[[[{"header":{"parameterUnit":"kt","parameterCategory":2,"dx":1,"dy":1,"la1":29.285339999999998,"la2":30.599998999999997,"lo1":-89.70041500000002,"lo2":-87.6738589999976,"nx":112,"ny":82,"refTime":"2022-09-23T06:00:00:Z","depth":0,"parameterNumber":1,"parameterNumberName":"U-component_of_WINDS"},"data":[12.2033,12.1525,0.0,12.04,11.9911,0.0,12.0245,0.0,11.61,0.0,0.0,0.0,0.0,11.0832,11.0306,10.6736,10.6299,10.5236,0.0,10.1295,10.1586,10.2416,10.9302,11.3085,11.0787,0.0,0.0,11.7555,12.1105,12.4157,0.0,12.933,13.1844,13.3192,13.6213,13.8008,13.8487,13.9803,14.0462,14.0462,14.0941,14.0791,13.9953,13.9953,13.9444,13.8547,13.8039,13.7799,13.7799,13.7799,13.7321,13.6543,13.6543,13.5765,13.4597,13.4118,13.3938,13.3938,13.3938,13.3938,13.3938,13.3938,13.3938,13.3938,13.3938,13.3938,13.3938,13.3938,13.3938,13.3938,13.3938,13.3938,13.3938,13.3938,13.3938,13.3938,13.3938,13.3938,13.3938,13.3938,13.3938,13.3938,13.3938,13.3938,13.3938,13.3938,13.3938,13.3938,13.3938,13.3938,13.3938,13.3938,13.3938,13.3938,13.3938,13.3938,13.3938,13.3938,13.3938,13.3938,13.3938,13.3938,13.3938,13.3938,13.3938,13.3938,13.3938,13.3938,13.3938,13.3938,13.3938,13.3938,12.1932,12.1017,12.0119,11.9443,11.8577,11.7937,11.83,11.6708,0.0,0.0,0.0,0.0,0.0,11.1625,11.0907,10.5849,10.6683,10.6609,0.0,10.1362,10.1533,10.3608,11.2411,11.7549,11.5541,0.0,0.0,12.0909,12.4157,0.0,12.8046,13.1816,13.4118,13.4597,13.8068,13.9953,13.9953,14.124,14.1898,14.1898,14.1479,14.0791,13.9953,13.9444,13.8697,13.7799,13.738,13.7141,13.7141,13.6662,13.6004,13.5255,13.5255,13.4716,13.3938,13.3938,13.3938,13.3938,13.3938,13.3938,13.3938,13.3938,13.3938,13.3938,13.3938,13.3938,13.3938,13.3938,13.3938,13.3938,13.3938,13.3938,13.3938,13.3938,13.3938,13.3938,13.3938,13.3938,13.3938,13.3938,13.3938,13.3938,13.3938,13.3938,13.3938,13.3938,13.3938,13.3938,13.3938,13.3938,13.3938,13.3938,13.3938,13.3938,13.3938,13.3938,13.4118,13.4537,13.5016,13.5255,13.5255,13.5255,13.5255,13.5255,13.5255,13.5255,13.5255,13.4836,13.4597,13.4597,13.4597,13.4836,12.2001,12.1212,12.0423,11.751,11.6721,11.6721,11.6721,11.4309,11.2659,0.0,0.0,0.0,11.2329,11.2614,11.0803,10.5213,10.6448,0.0,0.0,10.4815,10.6675,11.0328,11.2908,11.5924,11.9849,11.9191,12.0627,12.5832,12.6311,12.7986,13.176,13.3312,13.4657,13.5884,13.8607,13.9983,13.9983,14.124,14.1898,14.1898,14.0611,14.0013,13.9803,13.8457,13.7799,13.762,13.6363,13.5854,13.5734,13.4477,13.3938,13.3938,13.3938,13.3938,13.3938,13.3938,13.3938,13.3938,13.3938,13.3938,13.3938,13.3938,13.3938,13.3938,13.3938,13.3938,13.3938,13.3938,13.3938,13.3938,13.3938,13.3938,13.3938,13.3938,13.3938,13.3938,13.3938,13.3938,13.3938,13.3938,13.3938,13.3938,13.3938,13.3938,13.3938,13.3938,13.3938,13.3938,13.3938,13.3938,13.3938,13.3938,13.3938,13.3938,13.3938,13.3998,13.4537,13.5765,13.7081,13.7799,13.7799,13.7799,13.7799,13.7799,13.7799,13.7799,13.7799,13.6483,13.5884,13.5944,13.5944,13.6602,11.9943,11.8891,11.7576,11.5717,11.5256,11.4993,11.3977,0.0,0.0,0.0,11.2455,0.0,0.0,0.0,11.3497,11.1616,0.0,11.1255,10.7999,10.8537,11.1598,11.7816,11.7716,11.8293,12.1259,12.3831,12.5985,12.7448,12.9335,13.089,13.1939,13.5047,13.6902,13.7261,13.9923,14.136,14.136,14.1719,14.1898,14.1898,14.1539,14.0342,13.8398,13.7979,13.6782,13.5016,13.4597,13.4477,13.4417,13.4058,13.3938,13.3938,13.3938,13.3938,13.3938,13.3938,13.3938,13.3938,13.3938,13.3938,13.3938,13.3938,13.3938,13.3938,13.3938,13.3938,13.3938,13.3938,13.3938,13.3938,13.3938,13.3938,13.3938,13.3938,13.3938,13.3938,13.3938,13.3938,13.3938,13.3938,13.3938,13.3938,13.3938,13.3938,13.3938,13.3938,13.3938,13.3938,13.3938,13.3938,13.3938,13.3938,13.3938,13.3938,13.3938,13.4836,13.5494,13.5825,13.7081,13.7799,13.7799,13.7799,13.7799,13.7799,13.7799,13.7799,13.7799,13.6483,13.6363,13.7321,13.7321,13.75,11.5782,11.4814,11.3941,11.3087,11.2889,11.2824,11.2596,0.0,11.2728,11.3302,0.0,0.0,0.0,0.0,0.0,0.0,11.3851,11.3519,11.0953,11.203,11.547,12.1925,12.2001,12.2362,12.443,12.6703,12.8557,12.9634,13.1102,13.2505,13.3582,13.6303,13.8098,13.8697,14.0821,14.1898,14.1898,14.1898,14.1898,14.1898,14.136,14.0222,13.8666,13.75,13.6213,13.4716,13.4178,13.3938,13.3938,13.3938,13.3938,13.3938,13.3938,13.3938,13.3938,13.3938,13.3938,13.3938,13.3938,13.3938,13.3938,13.3938,13.3938,13.3938,13.3938,13.3938,13.3938,13.3938,13.3938,13.3938,13.3938,13.3938,13.3938,13.3938,13.3938,13.3938,13.3938,13.3938,13.3938,13.3938,13.3938,13.3938,13.3938,13.3938,13.3938,13.3938,13.3938,13.3938,13.3938,13.3938,13.3938,13.3938,13.3938,13.4178,13.4716,13.5435,13.6392,13.7529,13.8307,13.8936,13.9475,13.9534,13.9534,13.9534,13.9534,13.9534,13.9534,13.8247,13.8247,13.9534,13.8936,13.8996,11.0851,11.0211,11.0211,11.0408,11.0408,11.0751,11.215,0.0,11.2848,11.4072,0.0,11.6652,11.6671,0.0,0.0,11.3106,11.4169,11.5094,11.3716,11.5877,11.931,12.3925,12.5746,12.7029,12.8226,12.8438,12.9574,13.2027,13.2298,13.3463,13.5765,13.7261,13.8637,13.9953,14.124,14.1898,14.1898,14.1898,14.1898,14.1898,14.0701,14.0103,13.9893,13.7469,13.6243,13.6004,13.4716,13.4178,13.4178,13.3998,13.3938,13.3938,13.4118,13.4178,13.4118,13.3998,13.391,13.3824,13.3824,13.3796,13.3739,13.3824,13.3824,13.3853,13.391,13.3938,13.3938,13.3938,13.3938,13.3938,13.3938,13.3938,13.3938,13.3938,13.3938,13.3938,13.3938,13.3938,13.3938,13.3938,13.3938,13.3938,13.3938,13.3938,13.3938,13.3938,13.3938,13.3938,13.3938,13.3938,13.3938,13.3938,13.4058,13.4597,13.5765,13.6153,13.735,13.9833,14.0103,14.0731,14.1838,14.1898,14.1898,14.1898,14.1898,14.1898,14.1898,14.0611,14.0582,14.1898,14.0701,14.0761,10.8862,10.8664,10.8944,11.0128,11.0408,11.0715,0.0,0.0,0.0,11.2007,11.3991,11.5745,11.587,11.8611,12.0171,11.7895,11.8817,11.9144,11.7413,12.2177,12.6191,12.7181,12.8497,12.9395,12.9634,13.0651,13.1907,13.346,13.4508,13.5346,13.5825,13.8188,13.9624,13.9953,14.124,14.1898,14.1898,14.1898,14.1898,14.1898,14.1659,14.0941,13.9953,13.9385,13.8547,13.738,13.6064,13.5466,13.5435,13.4357,13.3938,13.4058,13.5135,13.5466,13.5375,13.4298,13.3624,13.3134,13.3134,13.2876,13.2617,13.3021,13.3134,13.322,13.3796,13.3938,13.3938,13.3938,13.3938,13.3938,13.3938,13.3938,13.3938,13.3938,13.3938,13.3938,13.3938,13.3938,13.3938,13.3938,13.3938,13.3938,13.3938,13.3938,13.3938,13.3938,13.3938,13.3938,13.3938,13.3938,13.3938,13.3938,13.4896,13.5585,13.5825,13.7888,13.9385,13.9923,14.0941,14.1659,14.1898,14.1898,14.1898,14.1898,14.1898,14.1898,14.1898,14.0611,14.0582,14.1898,14.1659,14.1659,10.5394,10.5526,10.6643,10.8813,10.9339,0.0,0.0,11.389,11.4502,11.4849,11.7665,11.9759,11.8847,12.1175,12.2926,12.205,12.2206,12.2836,12.399,12.7002,12.9335,12.9993,13.0651,13.1249,13.1935,13.2594,13.3491,13.4836,13.6124,13.7141,13.7888,13.9205,14.0252,14.0881,14.1539,14.1898,14.1898,14.1898,14.1898,14.1898,14.1898,14.1539,14.0881,14.0252,13.9564,13.8846,13.744,13.6842,13.6782,13.6124,13.5682,13.545,13.6077,13.6199,13.5726,13.4448,13.3681,13.3388,13.2766,13.2384,13.2239,13.2471,13.2761,13.299,13.3366,13.3681,13.3938,13.3938,13.3938,13.3938,13.3938,13.3938,13.3938,13.3938,13.3938,13.3938,13.3938,13.3938,13.3938,13.3938,13.3938,13.3938,13.3938,13.3938,13.3938,13.3938,13.3938,13.3938,13.3938,13.3938,13.3938,13.3938,13.5135,13.6124,13.6782,13.8726,14.0252,14.0881,14.1539,14.1898,14.1898,14.1898,14.1898,14.1898,14.1898,14.1898,14.1898,14.124,14.124,14.1898,14.1898,14.1898,10.232,10.2978,10.5,10.7613,10.8664,0.0,11.361,11.5521,11.6834,11.7788,12.1072,12.3224,12.1674,12.3681,12.5469,12.5088,12.5121,12.6377,12.9933,13.0412,13.089,13.2206,13.2386,13.2773,13.3819,13.3938,13.4477,13.5765,13.6842,13.8158,13.9863,14.0163,14.0821,14.1838,14.1898,14.1898,14.1898,14.1898,14.1898,14.1898,14.1898,14.1898,14.1838,14.0821,14.0372,14.0222,13.8846,13.8218,13.8218,13.7919,13.7686,13.7417,13.7121,13.6732,13.6045,13.4512,13.3863,13.3597,13.2389,13.1918,13.183,13.1947,13.2268,13.2674,13.279,13.3194,13.3624,13.3739,13.3853,13.3938,13.3938,13.3938,13.3938,13.3938,13.3938,13.3938,13.3938,13.3938,13.3938,13.3938,13.3938,13.3938,13.3938,13.3938,13.3938,13.3938,13.3938,13.3938,13.3938,13.3938,13.4058,13.4298,13.5494,13.6782,13.8098,13.9504,14.0791,14.1838,14.1898,14.1898,14.1898,14.1898,14.1898,14.1898,14.1898,14.1898,14.1898,14.1898,14.1898,14.1898,14.1898,14.1898,10.1794,10.3717,10.6266,10.7893,11.0211,0.0,11.3305,11.4673,11.5897,11.638,11.8691,12.0546,12.0354,12.4391,12.7353,12.6213,12.7883,12.9933,13.152,13.176,13.2266,13.3551,13.3699,13.3759,13.3938,13.3938,13.4477,13.5765,13.6004,13.723,13.9833,14.109,14.1719,14.1898,14.1898,14.1898,14.1898,14.1898,14.1898,14.1898,14.1898,14.1898,14.1898,14.1719,14.1659,14.1599,14.0282,13.9714,13.9654,13.8338,13.849,13.9473,13.8172,13.7639,13.7283,13.4866,13.3625,13.3032,13.1742,13.0948,13.0562,13.1154,13.139,13.1537,13.2123,13.2327,13.2501,13.2963,13.351,13.3938,13.3938,13.3938,13.3938,13.3938,13.3938,13.3938,13.3938,13.3938,13.3938,13.3938,13.3938,13.3938,13.3938,13.3938,13.3938,13.3938,13.3938,13.3938,13.3938,13.3938,13.4357,13.5554,13.6842,13.8158,13.9624,14.0941,14.1719,14.1898,14.1898,14.1898,14.1898,14.1898,14.1898,14.1898,14.1898,14.1898,14.1898,14.1898,14.1898,14.1898,14.1898,14.1898,10.0397,10.2567,10.5608,10.8747,0.0,0.0,11.5916,11.868,12.0505,11.924,12.1761,12.4136,12.3735,12.6045,12.8166,12.8378,13.0619,13.2474,13.3072,13.3132,13.3312,13.3879,13.3938,13.3938,13.3938,13.3938,13.4776,13.6842,13.7021,13.8247,14.0941,14.1599,14.1898,14.1898,14.1898,14.1898,14.1898,14.1898,14.1717,14.1353,14.1353,14.1139,14.0742,14.0742,14.0742,14.0742,14.0208,13.9971,13.9911,13.9318,13.9154,13.9116,13.7823,13.7138,13.6448,13.3874,13.2759,13.2374,13.106,13.0473,13.0295,13.0562,13.0918,13.1272,13.1537,13.1889,13.2298,13.2788,13.3134,13.3481,13.3853,13.3938,13.3938,13.3938,13.3938,13.3938,13.3938,13.3938,13.3938,13.3938,13.3938,13.3938,13.3938,13.3938,13.3938,13.3938,13.3938,13.3938,13.3938,13.3938,13.4417,13.5734,13.7021,13.8398,13.9833,14.112,14.1898,14.1898,14.1898,14.1898,14.1898,14.1898,14.1898,14.1898,14.1898,14.1898,14.1898,14.1898,14.1898,14.1898,14.1898,14.1898,9.9987,0.0,0.0,0.0,0.0,0.0,11.825,12.1634,12.4029,12.2885,12.4901,12.7017,12.7493,12.8454,12.9574,13.089,13.2713,13.3938,13.3938,13.3938,13.3938,13.3938,13.3938,13.3938,13.3938,13.3938,13.5016,13.762,13.7799,13.8996,14.1719,14.1898,14.1838,14.1656,14.1626,14.1535,14.1353,14.1353,14.1109,14.0681,14.0681,14.0405,13.9971,13.9971,13.9971,13.9971,13.9971,13.9695,13.9385,13.9385,13.9015,13.8371,13.7233,13.6518,13.5734,13.3146,13.2157,13.1982,13.0672,13.0265,13.0265,13.0265,13.0562,13.0948,13.0948,13.1272,13.1772,13.2326,13.2616,13.2905,13.351,13.3824,13.3938,13.3938,13.3938,13.3938,13.3938,13.3938,13.3938,13.3938,13.3938,13.3938,13.3938,13.3938,13.3938,13.3938,13.3938,13.3938,13.3938,13.4238,13.4927,13.6272,13.762,13.8966,14.0402,14.136,14.1898,14.1898,14.1898,14.1898,14.1898,14.1898,14.1898,14.1898,14.1898,14.1898,14.1898,14.1898,14.1898,14.1898,14.1898,14.1898,0.0,0.0,0.0,11.1741,11.5801,11.9138,11.9415,12.1794,12.4473,12.6712,12.6628,12.7181,13.0447,13.1475,13.2326,13.3639,13.3879,13.3938,13.3938,13.3938,13.3938,13.3938,13.3938,13.3938,13.3938,13.3938,13.5016,13.762,13.7799,13.8996,14.1719,14.1898,14.1626,14.1017,14.0927,14.065,14.0033,14.0033,14.0033,14.0002,14.0002,14.0002,13.9971,13.9971,13.9971,13.9971,13.9971,13.9167,13.786,13.786,13.7887,13.7712,13.658,13.6114,13.5734,13.3146,13.2157,13.1982,13.0672,13.0265,13.0265,13.0265,13.0265,13.0295,13.0295,13.0295,13.0444,13.1095,13.1743,13.2356,13.2876,13.3481,13.3938,13.3938,13.3938,13.3938,13.3938,13.3938,13.3938,13.3938,13.3938,13.3938,13.3938,13.3938,13.3938,13.3938,13.3938,13.3938,13.3938,13.5016,13.6303,13.762,13.9025,14.0432,14.1719,14.1898,14.1898,14.1898,14.1898,14.1898,14.1898,14.1898,14.1898,14.1898,14.1898,14.1898,14.1898,14.1898,14.1898,14.1898,14.1898,14.1898,10.1252,10.5608,11.0588,11.442,11.9417,12.3268,12.2558,12.5337,12.7917,12.739,12.7363,12.8512,13.1881,13.2922,13.3431,13.3879,13.3938,13.3938,13.3938,13.3938,13.3938,13.3938,13.3938,13.3938,13.3938,13.3938,13.5016,13.762,13.7417,13.8342,14.1083,14.0834,14.0466,14.0282,14.0251,14.0159,13.9971,13.9971,13.9695,13.9171,13.9171,13.8953,13.8515,13.8515,13.8515,13.8515,13.8515,13.8264,13.7797,13.7797,13.7797,13.7681,13.6549,13.6083,13.585,13.4105,13.2941,13.2099,13.1691,13.0963,13.0265,13.0265,13.0265,13.0265,13.0265,13.0265,13.0384,13.1036,13.139,13.1742,13.2672,13.3105,13.3364,13.3853,13.3938,13.3938,13.3938,13.3938,13.3938,13.3938,13.3938,13.3938,13.3938,13.3938,13.3938,13.3938,13.3938,13.3938,13.3938,13.5076,13.6363,13.768,13.9085,14.0462,14.1778,14.1898,14.1898,14.1898,14.1898,14.1898,14.1898,14.1898,14.1898,14.1898,14.1898,14.1898,14.1898,14.1898,14.1898,14.1898,14.1898,14.1898,10.3964,10.8287,11.3087,11.7952,12.2771,12.6389,12.6436,12.8439,13.0404,13.0884,12.9827,13.008,13.4225,13.4408,13.3938,13.3938,13.3938,13.3938,13.3938,13.3938,13.3938,13.3938,13.3938,13.3938,13.3938,13.3938,13.4901,13.7327,13.7062,13.7952,14.0411,14.0159,13.9971,13.9971,13.9664,13.954,13.954,13.9323,13.8922,13.8426,13.8426,13.8264,13.7797,13.7797,13.7797,13.7797,13.7797,13.7797,13.7797,13.7797,13.7797,13.7681,13.6549,13.6083,13.5909,13.4598,13.3581,13.2883,13.2883,13.201,13.0963,13.0963,13.0614,13.0265,13.0265,13.0265,13.0325,13.077,13.1036,13.142,13.2151,13.2529,13.2847,13.3452,13.3595,13.3653,13.3881,13.3938,13.3938,13.3938,13.3938,13.3938,13.3938,13.3938,13.3938,13.3938,13.3938,13.3938,13.3938,13.5466,13.6902,13.7739,13.9504,14.1,14.1838,14.1898,14.1898,14.1898,14.1898,14.1898,14.1898,14.1898,14.1898,14.1898,14.1898,14.1898,14.1898,14.1898,14.1898,14.1898,14.1898,14.1898,10.883,11.2626,11.629,12.2075,12.573,12.8548,13.0793,13.083,13.1716,13.6631,13.3618,13.1784,13.743,13.5995,13.3938,13.3938,13.3938,13.3938,13.3938,13.3938,13.3938,13.3938,13.3938,13.391,13.391,13.3881,13.467,13.6647,13.6735,13.7652,13.9763,13.9819,13.9819,13.9819,13.9109,13.8707,13.8707,13.817,13.7797,13.7797,13.7797,13.7797,13.7797,13.7797,13.7797,13.7797,13.7797,13.7797,13.7797,13.7797,13.7797,13.7681,13.6607,13.6141,13.6025,13.4772,13.4307,13.4249,13.4249,13.3349,13.2273,13.2273,13.137,13.0323,13.0323,13.0323,13.0265,13.0295,13.074,13.1213,13.1272,13.1713,13.2327,13.2847,13.2932,13.3105,13.3796,13.3938,13.3938,13.3938,13.3938,13.3938,13.3938,13.3938,13.3938,13.3938,13.3938,13.3938,13.4058,13.6243,13.7859,13.7919,14.0312,14.1898,14.1898,14.1898,14.1898,14.1898,14.1898,14.1898,14.1898,14.1898,14.1898,14.1898,14.1898,14.1898,14.1898,14.1898,14.1898,14.1898,14.1898,14.1898,10.8501,11.4157,11.9154,12.3889,12.7966,13.1234,13.2517,13.23,13.2926,13.6847,13.3618,13.2053,13.877,13.6696,13.3938,13.3938,13.3938,13.3938,13.3938,13.3938,13.3938,13.3938,13.3938,13.3739,13.322,13.3251,13.4032,13.611,13.5718,13.6442,13.896,13.8641,13.8359,13.8359,13.8201,13.8107,13.8107,13.786,13.7797,13.7797,13.7797,13.7797,13.7797,13.7797,13.7797,13.7797,13.7797,13.7797,13.7797,13.7797,13.7797,13.7797,13.7506,13.739,13.7332,13.6983,13.6343,13.5559,13.5559,13.4745,13.364,13.364,13.2767,13.1691,13.1691,13.1021,13.0354,13.0829,13.1095,13.1331,13.183,13.2064,13.2327,13.2847,13.2932,13.3105,13.3796,13.3938,13.3938,13.3938,13.3938,13.3938,13.3938,13.3938,13.3938,13.3938,13.3938,13.4298,13.5226,13.6782,13.8218,13.9265,14.0881,14.1898,14.1898,14.1898,14.1898,14.1898,14.1898,14.1898,14.1898,14.1898,14.1898,14.1898,14.1898,14.1898,14.1898,14.1898,14.1898,14.1898,14.1898,14.1898,10.8962,11.6064,12.3034,12.7308,13.1188,13.3986,13.4241,13.3723,13.4254,13.7834,13.5247,13.3734,13.8253,13.6254,13.3938,13.3938,13.3938,13.3938,13.3938,13.3938,13.3938,13.3938,13.3938,13.3796,13.3452,13.3165,13.3799,13.5841,13.5295,13.5891,13.8246,13.7986,13.7797,13.7797,13.7797,13.7797,13.7797,13.7797,13.7797,13.7797,13.7797,13.7797,13.7797,13.7797,13.7797,13.7797,13.7797,13.7797,13.7797,13.7797,13.7797,13.7797,13.7797,13.7797,13.7797,13.7797,13.739,13.6839,13.6839,13.6025,13.4978,13.4978,13.4105,13.3058,13.3058,13.2127,13.1169,13.1528,13.1209,13.0948,13.1596,13.1772,13.1918,13.279,13.2932,13.3105,13.3796,13.3938,13.3938,13.3938,13.3938,13.3938,13.3938,13.3938,13.3938,13.3938,13.4417,13.5076,13.5765,13.7589,13.9085,13.9893,14.112,14.1898,14.1898,14.1898,14.1898,14.1898,14.1898,14.1898,14.1898,14.1898,14.1898,14.1898,14.1898,14.1898,14.1898,14.1898,14.1898,14.1898,14.1898,14.1898,10.9619,11.7444,12.5862,13.0793,13.4102,13.6104,13.5897,13.5338,13.5686,13.9038,13.7265,13.564,13.734,13.565,13.3938,13.3938,13.3938,13.3938,13.3938,13.3938,13.3938,13.3938,13.3938,13.391,13.3824,13.3251,13.3653,13.5631,13.5144,13.5618,13.7479,13.7564,13.7564,13.7564,13.7564,13.7681,13.7797,13.7797,13.7797,13.7797,13.7797,13.7797,13.7797,13.7797,13.7797,13.7797,13.7797,13.7797,13.7797,13.7797,13.7797,13.7797,13.7797,13.7797,13.7797,13.7797,13.7797,13.7797,13.7797,13.7157,13.6316,13.6316,13.5443,13.4365,13.4365,13.3465,13.2448,13.2539,13.1667,13.0855,13.1418,13.1508,13.1684,13.2761,13.3287,13.3697,13.4123,13.4178,13.4178,13.3938,13.3938,13.3998,13.4178,13.4357,13.4477,13.4477,13.5406,13.6184,13.6392,13.8487,13.9983,14.0163,14.124,14.1898,14.1898,14.1898,14.1898,14.1898,14.1898,14.1898,14.1898,14.1898,14.1898,14.1898,14.1898,14.1898,14.1898,14.1898,14.1898,14.1898,14.1898,14.1898,10.9619,11.5209,12.2179,13.0004,13.3358,13.5245,13.7547,13.7543,13.757,13.9269,13.6734,13.5347,13.9288,13.6633,13.3938,13.3938,13.3938,13.3938,13.3938,13.3938,13.3938,13.3938,13.3938,13.3739,13.3163,13.2616,13.3097,13.4938,13.4564,13.4896,13.6316,13.6374,13.6374,13.6374,13.6374,13.6839,13.7797,13.7797,13.7797,13.7797,13.7797,13.7797,13.7797,13.7797,13.7797,13.7797,13.7797,13.7797,13.7797,13.7797,13.7797,13.7797,13.7797,13.7797,13.7797,13.7797,13.7797,13.7797,13.7797,13.7681,13.7506,13.7506,13.6692,13.5734,13.5734,13.4861,13.3875,13.4335,13.3912,13.3331,13.345,13.3066,13.2672,13.2904,13.5004,13.6696,13.5765,13.5554,13.5255,13.4178,13.3938,13.4298,13.5346,13.6423,13.7141,13.7141,13.7321,13.7919,13.9085,13.9624,14.0342,14.1419,14.1778,14.1898,14.1898,14.1898,14.1898,14.1898,14.1898,14.1898,14.1898,14.1898,14.1898,14.1898,14.1898,14.1898,14.1898,14.1898,14.1898,14.1898,14.1898,14.1898,11.2578,11.6918,12.1804,12.8183,13.2656,13.5665,13.6729,13.6906,13.7126,13.7713,13.7562,13.7315,13.7125,13.5371,13.3938,13.3938,13.3938,13.3938,13.3938,13.3938,13.3938,13.3938,13.3938,13.3824,13.351,13.2674,13.2772,13.4241,13.3574,13.3698,13.4978,13.5094,13.5385,13.6025,13.6083,13.6665,13.7797,13.7797,13.7797,13.7797,13.7797,13.7797,13.7797,13.7797,13.7797,13.7797,13.7797,13.7797,13.7797,13.7797,13.7797,13.7797,13.7797,13.7797,13.7797,13.7797,13.7797,13.7797,13.7797,13.7797,13.7797,13.7797,13.7448,13.6983,13.6983,13.6141,13.5183,13.5433,13.5049,13.4596,13.4984,13.5016,13.5129,13.5421,13.6697,13.768,13.7021,13.6902,13.6722,13.6064,13.5944,13.6124,13.6782,13.744,13.7799,13.7799,13.8457,13.9205,13.9863,14.0552,14.118,14.1838,14.1898,14.1898,14.1898,14.1898,14.1898,14.1898,14.1898,14.1898,14.1898,14.1898,14.1898,14.1898,14.1898,14.1898,14.1898,14.1898,14.1898,14.1898,14.1898,14.1898,11.4862,11.8562,12.1804,12.5796,13.1143,13.5623,13.6036,13.6591,13.7125,13.7595,13.9174,13.9629,13.664,13.5287,13.4645,13.4645,13.422,13.3938,13.3938,13.3938,13.3938,13.3938,13.3938,13.3938,13.3938,13.2847,13.2683,13.3863,13.2819,13.2592,13.3698,13.3667,13.4307,13.5618,13.5676,13.6343,13.7797,13.7797,13.7797,13.7797,13.7797,13.7797,13.7797,13.7797,13.7797,13.7797,13.7797,13.7797,13.7797,13.7797,13.7797,13.7797,13.7797,13.7797,13.7797,13.7797,13.7797,13.7797,13.7797,13.7797,13.7797,13.7797,13.7797,13.7797,13.7797,13.7157,13.6432,13.6432,13.6088,13.5767,13.634,13.6824,13.7478,13.8488,13.8697,13.8637,13.8338,13.8278,13.8158,13.7859,13.7799,13.7919,13.8218,13.8278,13.8398,13.8637,13.9624,14.0372,14.0372,14.124,14.1898,14.1898,14.1898,14.1898,14.1898,14.1898,14.1898,14.1898,14.1898,14.1898,14.1898,14.1898,14.217,14.265,14.211,14.1898,14.1898,14.1898,14.1898,14.1898,14.1898,14.1898,11.366,11.7097,12.0075,12.308,12.8163,13.3447,13.7393,13.8806,13.9812,14.1854,14.1349,14.1031,14.2666,13.9656,13.6907,13.6907,13.5231,13.3938,13.3938,13.3938,13.3938,13.3938,13.3938,13.3938,13.3938,13.2847,13.2683,13.3863,13.2819,13.2215,13.239,13.239,13.2941,13.4249,13.4307,13.5412,13.7797,13.7797,13.7797,13.7797,13.7797,13.7797,13.7797,13.7797,13.7797,13.7797,13.7797,13.7797,13.7797,13.7797,13.7797,13.7797,13.7797,13.7797,13.7797,13.7797,13.7797,13.7797,13.7797,13.7797,13.7797,13.7797,13.7797,13.7797,13.7797,13.7739,13.7681,13.7681,13.7622,13.7607,13.7637,13.7716,13.8398,14.0911,14.1539,14.118,13.9983,13.9744,13.9385,13.8039,13.7799,13.8218,13.9504,13.9744,14.0192,14.136,14.1659,14.1719,14.1719,14.1838,14.1898,14.1898,14.1898,14.1898,14.1898,14.1898,14.1898,14.1898,14.1898,14.1898,14.1898,14.1898,14.2888,14.5058,14.2978,14.1898,14.1898,14.1898,14.1898,14.1898,14.1898,14.1898,11.3529,11.69,11.9859,12.2752,12.7748,13.27,13.5397,13.6891,13.829,14.0438,13.9984,13.979,14.1542,13.826,13.5706,13.7016,13.5371,13.3938,13.3938,13.3938,13.3938,13.3938,13.3938,13.3938,13.3938,13.2847,13.2417,13.2831,13.2094,13.144,13.1051,13.141,13.2344,13.4074,13.4132,13.5296,13.7797,13.7797,13.7797,13.7797,13.7797,13.7797,13.7797,13.7797,13.7797,13.7797,13.7797,13.7797,13.7797,13.7797,13.7797,13.7797,13.7797,13.7797,13.7797,13.7797,13.7797,13.7797,13.7797,13.7797,13.7797,13.7797,13.7797,13.7797,13.7797,13.7797,13.7797,13.7797,13.8106,13.8531,13.8991,13.9403,14.0042,14.1568,14.1898,14.1778,14.124,14.112,14.0941,14.0372,14.0282,14.0462,14.1,14.112,14.13,14.1838,14.1898,14.1898,14.1898,14.1898,14.1898,14.1898,14.1898,14.1898,14.1898,14.1898,14.25,14.3923,14.271,14.3156,14.6035,14.6149,14.5859,14.54,14.4477,14.3334,14.1898,14.3334,14.4011,14.4011,14.4011,14.4739,11.2495,11.5914,11.9088,12.1568,12.6519,13.1254,13.3161,13.5089,13.7,13.8871,13.9849,14.0665,14.1686,13.8616,13.642,13.7991,13.5784,13.3938,13.3938,13.3938,13.3938,13.3938,13.3938,13.3938,13.3938,13.2992,13.2385,13.221,13.1596,13.0948,13.0295,13.0681,13.1878,13.4074,13.4132,13.5296,13.7797,13.7797,13.7797,13.7797,13.7797,13.7797,13.7797,13.7797,13.7797,13.7797,13.7797,13.7797,13.7797,13.7797,13.7797,13.7797,13.7797,13.7797,13.7797,13.7797,13.7797,13.7797,13.7797,13.7797,13.7797,13.7797,13.7797,13.7887,13.8076,13.808,13.817,13.839,13.8922,13.9544,14.0097,14.0589,14.1049,14.1747,14.1898,14.1898,14.1898,14.1898,14.1898,14.1898,14.1898,14.1898,14.1898,14.1898,14.1898,14.1898,14.1898,14.1898,14.1898,14.1898,14.1898,14.1898,14.253,14.2918,14.2918,14.36,14.4651,14.6344,14.4884,14.6059,15.0777,14.9648,14.8472,14.7493,14.6825,14.5663,14.3952,14.5601,14.6457,14.6457,14.6457,14.7332,11.0062,11.3565,11.7247,11.8825,12.3514,12.8512,13.1385,13.43,13.6843,13.8312,14.1971,14.4972,14.4994,14.2473,14.0489,14.0489,13.677,13.3938,13.3938,13.3938,13.3938,13.3938,13.3938,13.3938,13.3938,13.3306,13.2761,13.2239,13.1596,13.0948,13.0295,13.0265,13.1429,13.4016,13.4132,13.5296,13.7797,13.7797,13.7797,13.7797,13.7797,13.7797,13.7797,13.7797,13.7797,13.7797,13.7797,13.7797,13.7797,13.7797,13.7797,13.7797,13.7797,13.7797,13.7797,13.7797,13.7797,13.7797,13.7797,13.7797,13.7797,13.7797,13.7797,13.795,13.8551,13.8797,13.8953,13.9695,14.0405,14.0897,14.0897,14.0897,14.1049,14.1747,14.1898,14.1898,14.1898,14.1898,14.1898,14.1898,14.1898,14.1898,14.1898,14.1898,14.1898,14.1898,14.1898,14.1898,14.1898,14.1898,14.1898,14.1898,14.3982,14.5343,14.5343,14.7528,14.8857,14.8857,14.8857,15.0936,15.5626,15.136,14.9999,15.2289,15.0053,14.8857,14.8857,14.8857,14.8885,14.8885,14.8885,14.8885,10.9996,11.2824,11.598,11.8497,12.2705,12.6453,12.7374,12.9873,13.2898,13.6383,13.8991,14.149,14.4448,14.0545,13.7623,14.0156,13.6798,13.3938,13.3938,13.3938,13.3938,13.3938,13.3938,13.3938,13.3938,13.3366,13.3088,13.3362,13.3627,13.3686,13.3581,13.4001,13.4794,13.6064,13.5571,13.6137,13.7797,13.7797,13.7797,13.7797,13.7797,13.7797,13.7797,13.7797,13.7797,13.7797,13.7797,13.7797,13.7797,13.7797,13.7797,13.7797,13.7797,13.7797,13.7797,13.7797,13.7797,13.7797,13.7797,13.7797,13.7797,13.7797,13.7797,13.7923,13.8582,13.8828,13.8953,13.9726,14.0156,14.0466,14.1383,14.1595,14.1656,14.1838,14.1898,14.1898,14.1898,14.1898,14.1898,14.1898,14.1898,14.1898,14.1898,14.118,14.0611,14.0611,13.9744,13.9116,13.9116,13.9983,14.1207,14.2786,14.5872,14.7807,14.7807,14.85,14.9594,15.1175,15.2782,15.439,15.5864,15.4491,15.3244,15.2419,15.165,15.051,14.8912,15.051,15.1281,15.1281,15.1281,15.2185,10.9339,11.21,11.5107,11.6966,12.0319,12.3297,12.3823,12.7025,13.0773,13.4102,13.6383,13.8926,14.2673,14.0223,13.8343,14.0655,13.7728,13.5175,13.5175,13.4447,13.3938,13.3938,13.4357,13.4477,13.3998,13.4491,13.4684,13.4306,13.4927,13.5371,13.5477,13.5597,13.6123,13.7015,13.6583,13.6825,13.7797,13.7797,13.7797,13.7797,13.7797,13.7797,13.7797,13.7797,13.7797,13.7797,13.7797,13.7797,13.7797,13.7797,13.7797,13.7797,13.7797,13.7797,13.7797,13.7797,13.7797,13.7797,13.7797,13.7797,13.7828,13.808,13.8175,13.8332,13.9326,13.9605,13.976,14.0497,14.0681,14.0865,14.1686,14.1898,14.1898,14.1898,14.1898,14.1898,14.1898,14.1898,14.1898,14.1898,14.1898,14.1898,14.1898,14.0821,13.9953,13.9953,13.8726,13.7799,13.7799,13.934,14.0638,14.1271,14.4917,14.7636,14.8521,14.9904,15.1387,15.2837,15.4255,15.5058,15.5058,15.5584,15.523,15.3743,15.3718,15.2988,15.1518,15.2988,15.3718,15.3718,15.3718,15.4516,10.827,11.136,11.4515,11.4665,11.6834,11.9351,12.0817,12.5401,12.9852,13.1517,13.4102,13.6996,13.9868,14.0986,14.1464,14.1512,13.9148,13.7355,13.7478,13.5673,13.4394,13.4343,13.5365,13.5608,13.4298,13.6423,13.7057,13.5309,13.5875,13.6315,13.6313,13.5771,13.5993,13.7132,13.716,13.7377,13.7797,13.7797,13.7797,13.7797,13.7797,13.7797,13.7797,13.7797,13.7797,13.7797,13.7797,13.7797,13.7797,13.7797,13.7797,13.7797,13.7797,13.7797,13.7797,13.7797,13.7797,13.7797,13.7887,13.7887,13.795,13.8672,13.8859,13.9078,14.0499,14.0897,14.1078,14.1717,14.1898,14.1928,14.214,14.2049,14.1928,14.214,14.2019,14.1898,14.1898,14.1898,14.1898,14.1898,14.1898,14.1838,14.1778,14.0641,13.9744,13.9714,13.8634,13.7763,13.7763,13.9778,14.0519,13.864,14.2283,14.5789,14.8208,15.1614,15.3587,15.3456,15.3522,15.3653,15.3785,15.5058,15.5782,15.5913,15.5913,15.5913,15.5913,15.5913,15.5913,15.5913,15.5913,15.5913,10.827,11.0588,11.3302,11.4402,11.6045,11.7773,11.9286,12.2423,12.5953,12.9589,13.178,13.3971,13.6931,13.8041,13.8718,13.9233,13.8639,13.8483,13.9635,13.9314,13.8765,13.8046,13.819,13.8036,13.7017,13.744,13.7833,13.7865,13.8042,13.8452,13.9029,13.8904,13.8683,13.8391,13.8359,13.8223,13.7797,13.7797,13.7797,13.7797,13.7797,13.7797,13.7797,13.7797,13.7797,13.7797,13.7797,13.7797,13.7797,13.7797,13.7797,13.7797,13.7797,13.7797,13.7797,13.7797,13.7797,13.7918,13.8363,13.8206,13.8044,13.9292,13.9264,13.9078,14.0499,14.0897,14.1078,14.1717,14.1898,14.229,14.4128,14.3245,14.235,14.4187,14.3215,14.1898,14.1898,14.1898,14.1898,14.1898,14.1898,14.1599,14.0582,13.9265,13.7979,13.6991,13.7159,13.7363,13.7363,14.0136,14.2636,14.3922,14.6011,14.8284,15.0617,15.1638,15.1663,15.0587,15.1531,15.2625,15.3719,15.4113,15.4771,15.5847,15.5913,15.5913,15.5913,15.5913,15.5913,15.5913,15.5913,15.5913,10.827,11.0408,11.2728,11.3499,11.5274,11.705,11.7905,12.0845,12.433,12.7288,12.9544,13.1911,13.4957,13.6344,13.7657,13.934,13.9738,14.0083,14.0481,13.9656,13.9104,13.9276,13.8871,13.8776,13.9389,14.0572,14.1183,14.0953,14.1233,14.1688,14.244,14.0836,13.9757,13.9354,13.8984,13.8457,13.7797,13.7797,13.7797,13.7797,13.7797,13.7797,13.7797,13.7797,13.7797,13.7797,13.7797,13.8488,13.9491,13.9491,14.0229,14.1145,14.0291,13.9922,13.9858,13.8707,13.8237,13.8359,13.8703,13.8797,13.9012,14.0066,14.0128,13.9976,14.1019,14.1383,14.1474,14.1807,14.271,14.3805,14.5025,14.4447,14.3835,14.5054,14.3599,14.1898,14.1898,14.1898,14.1898,14.1898,14.1898,14.1479,14.0192,13.8786,13.738,13.6064,13.6667,13.7234,13.7234,14.0649,14.3194,14.3448,14.5995,14.7778,14.7996,14.8948,14.9558,14.9469,14.9558,15.0258,15.177,15.2428,15.348,15.4902,15.4927,15.5256,15.5913,15.5913,15.5913,15.5913,15.5913,15.5913,10.8533,11.054,11.253,11.253,11.4551,11.6524,11.6524,11.9727,12.3212,12.4612,12.7242,13.0115,13.3074,13.4571,13.6322,13.9561,14.0443,14.0753,14.0717,13.9609,13.9139,14.0098,13.9716,14.0058,14.1813,14.439,14.5309,14.3859,14.4527,14.5054,14.5227,14.235,14.0436,14.0002,13.9295,13.8863,13.8707,13.8707,13.8519,13.817,13.817,13.8107,13.8013,13.8013,13.8013,13.7923,13.7828,13.9053,14.1115,14.1479,14.2854,14.4671,14.3594,14.3151,14.2885,14.084,14.0015,14.0015,14.0015,14.0256,14.0591,14.1384,14.1323,14.1019,14.1717,14.1898,14.1989,14.232,14.3599,14.5058,14.5745,14.5659,14.5486,14.5859,14.4158,14.232,14.1989,14.1898,14.1898,14.1898,14.1719,14.118,13.9863,13.8721,13.7458,13.5823,13.7124,13.8152,13.7803,14.1593,14.3609,14.1745,14.4916,14.6402,14.4505,14.6054,14.7693,14.9009,14.7891,14.7759,14.9074,15.0545,15.1992,15.339,15.339,15.4006,15.5256,15.5453,15.5584,15.5584,15.5782,15.5913,10.9733,11.1263,11.253,11.253,11.3762,11.4993,11.4993,11.7492,12.0206,12.1653,12.4218,12.7111,12.9984,13.0258,13.1602,13.6343,13.6718,13.7643,14.1076,14.3897,14.5254,14.4129,14.5505,14.6067,14.4882,14.6971,14.7431,14.5236,14.6526,14.6594,14.4648,14.4067,14.2589,14.0064,13.9819,14.0654,14.2588,14.2618,14.1568,13.9602,13.9602,13.9292,13.8613,13.8613,13.8613,13.8641,13.8017,13.8332,13.9333,14.1328,14.2497,14.312,14.5417,14.6238,14.621,14.5812,14.5698,14.5698,14.5698,14.4497,14.3093,14.436,14.3006,14.1019,14.1717,14.1898,14.229,14.4272,14.3687,14.3364,14.7332,14.691,14.5888,14.7918,14.6571,14.4301,14.232,14.1898,14.1898,14.1898,14.1,13.9803,13.8398,13.8576,13.7859,13.4731,13.9121,14.2125,14.0282,14.3904,14.6519,14.6148,14.6753,14.7051,14.6683,14.6939,14.7233,14.7496,14.7299,14.7233,14.7496,14.9009,15.0455,15.1926,15.1926,15.2057,15.2255,15.348,15.4113,15.4113,15.5321,15.5913,11.0211,11.2052,11.3894,11.4683,11.5998,11.7097,11.7097,11.876,12.0469,12.1146,12.2968,12.5053,12.7157,12.9151,13.1621,13.4809,13.6977,13.9225,14.1938,14.4053,14.5378,14.545,14.5932,14.6824,14.7933,14.968,15.0376,14.9259,14.9909,14.9882,14.8794,14.7213,14.5712,14.4328,14.3916,14.4442,14.585,14.5503,14.4816,14.3711,14.2469,14.1688,14.1296,13.9979,13.9447,13.9416,13.9136,13.9915,14.1537,14.2589,14.3799,14.5224,14.6898,14.757,14.757,14.748,14.748,14.748,14.748,14.6752,14.6021,14.6961,14.6372,14.5285,14.5605,14.5692,14.5921,14.6995,14.6514,14.6457,14.9918,14.9076,14.7856,15.0242,14.8022,14.5144,14.404,14.2829,14.1898,14.1898,14.0821,13.9504,13.8039,13.8586,13.8417,13.6082,14.036,14.3461,14.249,14.5132,14.7167,14.7167,14.7167,14.7167,14.7167,14.7167,14.7167,14.7167,14.7167,14.7167,14.7167,14.7825,14.8548,14.9163,14.9995,15.0873,15.1597,15.2296,15.2559,15.2625,15.3283,15.357,11.164,0.0,11.5454,11.6524,11.7708,11.8628,0.0,11.9746,12.0817,12.0817,12.1916,12.3343,12.4809,12.8295,13.1583,13.349,13.7106,14.0351,14.2126,14.2647,14.3613,14.5747,14.5935,14.6893,14.9523,15.1593,15.251,15.193,15.2717,15.2962,15.2445,15.0232,14.8704,14.8153,14.8723,14.9024,14.8978,14.8476,14.798,14.7397,14.5593,14.4674,14.4471,14.2619,14.1809,14.1839,14.1628,14.2768,14.468,14.526,14.6543,14.8271,14.9449,14.9972,14.9945,14.9855,14.9792,14.9792,14.9792,14.9792,14.9765,14.972,14.9376,14.8912,14.8912,14.9295,14.9729,14.9729,14.9349,14.9458,15.1755,15.1042,15.0188,15.2002,14.9639,14.6707,14.563,14.3768,14.2079,14.154,14.0579,13.9458,13.8345,13.933,13.9786,13.8249,14.1771,14.4432,14.3919,14.577,14.7167,14.7167,14.7167,14.7167,14.7167,14.7167,14.7167,14.7167,14.7167,14.7167,14.7167,14.7167,14.7167,14.7167,14.8285,14.9469,15.0545,15.0939,15.1137,15.1137,15.1465,15.1597,0.0,11.6524,11.6721,11.6787,11.6918,11.6984,11.6984,11.8168,0.0,11.9286,12.0469,12.185,12.3343,12.5993,12.8907,13.1714,13.4739,13.772,14.046,14.0285,14.14,14.5465,14.7834,14.8914,14.836,15.1563,15.2757,15.0576,15.3658,15.4691,15.2523,15.2237,15.1069,14.8912,15.3013,15.4224,15.2133,15.2016,15.0936,14.8775,14.861,14.8188,14.7598,14.7431,14.7347,14.7319,14.6724,14.6893,14.7793,14.998,15.0968,15.139,15.4249,15.5354,15.5354,15.5354,15.5354,15.5354,15.5354,15.5354,15.4966,15.2833,15.067,14.8912,14.8912,15.0429,15.2185,15.2185,15.059,14.9458,15.1755,15.2289,15.2211,15.2367,15.2185,15.0723,14.6344,14.4302,14.2703,14.0519,13.9628,13.9174,13.9113,14.1559,14.2819,14.0619,14.4075,14.6214,14.4115,14.577,14.7167,14.7167,14.7167,14.7167,14.7167,14.7167,14.7167,14.7167,14.7167,14.7167,14.7167,14.7167,14.7167,14.7167,14.7233,14.7365,14.7496,14.8943,14.96,14.9666,15.1005,15.1597,11.8647,11.9633,11.9812,12.0713,12.0976,12.0713,11.9812,12.0094,12.0488,12.0488,12.0949,12.1738,12.3146,12.6499,12.9676,13.1648,13.5265,13.8487,14.046,14.1254,14.2561,14.5105,14.7816,14.9359,14.9003,15.1052,15.2049,15.1181,15.2453,15.3206,15.3245,15.3236,15.2887,15.1989,15.4483,15.5453,15.4591,15.4591,15.4098,15.3219,15.1755,15.0963,15.066,14.9204,14.8519,14.8519,14.8299,14.8327,0.0,14.9476,14.9855,15.0097,15.2704,15.3718,15.3895,15.5354,15.5913,15.5913,15.5913,15.5913,15.5503,15.3142,15.2782,15.2962,15.1492,15.2704,15.4591,15.4591,15.2885,15.1597,15.3946,15.2419,15.059,15.208,15.0151,14.7689,14.6516,14.4702,14.3244,14.2917,14.2012,14.1239,14.1239,14.2698,14.3535,14.2741,14.518,14.6823,14.5983,14.6636,14.7167,14.7167,14.7167,14.7167,14.7167,14.7167,14.7167,14.7167,14.7167,14.7167,14.7167,14.7167,14.7167,14.7167,14.7167,14.7167,14.7167,14.7759,14.8022,14.8022,14.8548,14.8835,12.1869,12.2659,12.2902,12.3869,12.4132,12.3738,12.2311,12.1982,12.185,12.1409,12.1278,12.1738,12.3146,12.6565,12.9807,13.1648,13.5331,13.84,13.9868,14.1644,14.3244,14.4208,14.697,14.8745,14.8745,15.0084,15.0939,15.0939,15.14,15.2057,15.302,15.3522,15.3785,15.3785,15.4705,15.5453,15.5913,15.5913,15.5913,15.5913,15.4249,15.3514,15.3463,15.1871,15.1095,15.1095,15.1095,15.1095,15.1095,15.1095,15.1095,15.1254,15.2859,15.3514,15.3692,15.5305,15.5913,15.5913,15.5913,15.5584,15.4945,15.3346,15.3938,15.492,15.3321,15.429,15.5913,15.5913,15.4741,15.387,15.5478,15.319,15.0825,15.2444,15.0021,14.733,14.7188,14.5613,14.4067,14.3935,14.3379,14.2948,14.2948,14.4029,14.4867,14.4867,14.6606,14.7891,14.7891,14.7891,14.7891,14.7891,14.743,14.7167,14.7167,14.7167,14.7167,14.7167,14.7167,14.7167,14.7167,14.7167,14.7167,14.7167,14.7167,14.7167,14.7167,14.7167,14.7167,14.7167,14.7167,14.7167,12.4809,12.5599,12.5599,12.5599,12.5599,12.5204,12.3804,12.3455,12.3015,12.1606,12.1343,12.1785,12.3212,12.5796,12.8644,13.1517,13.4497,13.6996,13.84,14.1052,14.285,14.285,14.5415,14.7102,14.7167,14.8548,14.9469,14.9469,15.0742,15.1597,15.1597,15.2954,15.3719,15.3719,15.3719,15.4442,15.5847,15.5913,15.5913,15.5913,15.5913,15.5913,15.5913,15.5913,15.5913,15.5913,15.5913,15.5913,15.5913,15.5913,15.5913,15.5913,15.5913,15.5913,15.5913,15.5913,15.5913,15.5913,15.5913,15.4993,15.3785,15.376,15.376,15.3785,15.3785,15.4795,15.5913,15.5913,15.5847,15.5847,15.5847,15.4771,15.3695,15.3695,15.2577,15.0907,14.8572,14.6985,14.529,14.3011,14.3232,14.3895,14.3895,14.5698,14.7167,14.7167,14.8482,14.9469,14.9469,14.9469,14.9469,14.9469,14.8088,14.7167,14.7167,14.7167,14.7167,14.7167,14.7167,14.7167,14.7167,14.7167,14.7167,14.7167,14.7167,14.7167,14.7167,14.7167,14.7167,14.7167,14.7167,14.7167,12.6256,12.7065,12.7065,12.7065,12.7065,12.6716,12.527,12.4921,12.4809,12.4415,12.4283,12.4744,12.619,12.7966,13.0181,13.3161,13.5199,13.6996,13.84,14.0197,14.1732,14.2784,14.4537,14.6026,14.7036,14.7562,14.7825,14.7825,14.8219,14.8943,15.0061,15.0521,15.0718,15.0718,15.2733,15.3982,15.4376,15.5387,15.5913,15.5913,15.5913,15.5913,15.5913,15.5913,15.5913,15.5913,15.5913,15.5913,15.5913,15.5913,15.5913,15.5913,15.5913,15.5913,15.5913,15.5913,15.5913,15.5913,15.5913,15.565,15.5011,15.3361,15.3888,15.5058,15.4048,15.4795,15.5913,15.5913,15.519,15.4376,15.4376,15.2095,14.9784,14.9784,14.8187,14.6651,14.6516,14.6138,14.5831,14.5807,14.5959,14.6214,14.6214,14.6706,14.7167,14.7167,14.8482,14.9469,14.9469,15.0324,15.061,14.96,14.9929,14.9887,14.8877,14.8811,14.8285,14.7233,14.7167,14.7167,14.7167,14.7167,14.7167,14.7167,14.7167,14.7167,14.7167,14.7167,14.7167,14.7167,14.7167,14.7167,12.8644,12.8973,12.8689,12.9301,12.8973,12.8163,12.6782,12.6388,12.6256,12.5664,12.5599,12.5993,12.746,12.8886,13.0839,13.3818,13.5549,13.6996,13.84,13.9846,14.1249,14.2718,14.4142,14.5566,14.7036,14.7167,14.7167,14.7167,14.7167,14.7562,14.8482,14.8548,14.8811,14.9469,15.1155,15.2601,15.3719,15.4574,15.5321,15.5913,15.5913,15.5913,15.5913,15.5913,15.5913,15.5913,15.5913,15.5913,15.5913,15.5913,15.5913,15.5913,15.5913,15.5913,15.5913,15.5913,15.5913,15.5913,15.5913,15.5519,15.4838,15.3417,15.35,15.4006,15.3151,15.348,15.4228,15.4228,15.3546,15.2888,15.2888,15.1222,14.9353,14.8809,14.7121,14.5723,14.622,14.6317,14.6508,14.7066,14.7167,14.7167,14.7167,14.7167,14.7167,14.7167,14.8943,15.0324,15.0324,15.1573,15.2165,15.131,15.0916,15.0126,14.868,14.8548,14.8154,14.7233,14.7167,14.7167,14.7167,14.7167,14.7167,14.7167,14.7167,14.7167,14.7167,14.7167,14.7167,14.7167,14.7167,14.7167,13.1056,13.0904,13.0313,13.1517,13.0904,12.9655,12.8249,12.792,12.7526,12.6256,12.5993,12.6388,12.7854,12.9149,13.1036,13.4016,13.5615,13.6996,13.84,13.9737,14.1052,14.2521,14.3814,14.5237,14.6773,14.697,14.7036,14.7102,14.7167,14.7167,14.7167,14.7167,14.7825,14.9206,14.9403,15.0718,15.3324,15.3653,15.4376,15.5716,15.5847,15.5913,15.5913,15.5913,15.5913,15.5913,15.5913,15.5913,15.5913,15.5913,15.5913,15.5913,15.5913,15.5913,15.5913,15.5913,15.5913,15.5913,15.5913,15.4993,15.3785,15.3785,15.2757,15.1597,15.1597,15.1597,15.1597,15.1597,15.1531,15.14,15.14,15.1334,15.0873,14.96,14.8154,14.7167,14.7167,14.7167,14.7167,14.7167,14.7167,14.7167,14.7167,14.7167,14.7167,14.7167,14.9558,15.1465,15.1597,15.2757,15.3587,15.3587,15.1244,14.9074,14.7496,14.7365,14.7299,14.7167,14.7167,14.7167,14.7167,14.7167,14.7167,14.7167,14.7167,14.7167,14.7167,14.7167,14.7167,14.7167,14.7167,14.7167,12.9852,13.0904,13.1299,13.051,13.0904,13.1188,12.9721,12.9392,12.9326,12.8998,12.8932,12.9326,13.0793,13.132,13.2503,13.5484,13.6273,13.6996,13.84,13.886,13.9583,14.1052,14.1446,14.2696,14.5237,14.55,14.5984,14.7102,14.7167,14.7167,14.7167,14.7167,14.7299,14.7628,14.8811,14.9798,15.0389,15.2601,15.3916,15.4245,15.5387,15.5913,15.5913,15.5913,15.5913,15.5913,15.5913,15.5913,15.5913,15.5913,15.5913,15.5913,15.5913,15.5913,15.5913,15.5913,15.5913,15.5913,15.5913,15.4993,15.3785,15.3785,15.2757,15.1597,15.1597,15.1597,15.1597,15.1597,15.0808,14.9929,14.9929,14.9032,14.8022,14.7693,14.7365,14.7167,14.7167,14.7167,14.7167,14.7167,14.7167,14.7167,14.7167,14.7167,14.7167,14.7167,14.8745,15.0347,15.1465,15.1926,15.2123,15.2123,15.1531,15.0545,14.914,14.9009,14.8417,14.7233,14.7167,14.7167,14.7167,14.7167,14.7167,14.7167,14.7167,14.7167,14.7167,14.7167,14.7167,14.7167,14.7167,14.7167,13.0333,13.0904,13.097,13.0925,13.0904,13.0773,13.005,12.9852,12.9852,12.9852,13.0378,13.1102,13.1846,13.3161,13.4629,13.6207,13.7062,13.7764,13.8531,13.8597,13.9123,14.0591,14.0723,14.1578,14.3748,14.3945,14.4603,14.6049,14.6115,14.6115,14.6115,14.6115,14.6444,14.7102,14.7956,14.8745,14.9469,15.0981,15.2033,15.2757,15.348,15.3809,15.3809,15.3809,15.3809,15.3809,15.3809,15.3809,15.3809,15.3809,15.3809,15.3809,15.3809,15.3809,15.3809,15.3809,15.3809,15.3809,15.3809,15.3349,15.2625,15.1944,15.0718,14.9492,14.9492,14.9492,14.9492,14.9492,14.8943,14.8351,14.8351,14.7759,14.7167,14.7167,14.7167,14.7167,14.7167,14.7167,14.7167,14.7167,14.7167,14.7167,14.7167,14.7167,14.7167,14.7167,14.8482,14.9732,15.0455,14.9953,14.9755,15.0545,14.9953,14.9163,14.8417,14.8351,14.8022,14.7233,14.7167,14.7167,14.7167,14.7167,14.7167,14.7167,14.7167,14.7167,14.7167,14.7167,14.7167,14.7167,14.7167,14.7167,13.0596,13.0728,13.0444,13.1385,13.0904,13.0181,12.9918,12.9852,12.9852,12.9852,13.097,13.2043,13.2372,13.4607,13.6536,13.6799,13.7808,13.8597,13.8597,13.8597,13.9057,14.0263,14.0394,14.092,14.2389,14.2521,14.3113,14.4514,14.4383,14.4383,14.458,14.4646,14.5326,14.6707,14.6773,14.7496,14.9074,14.9337,15.0061,15.1268,15.1531,15.1597,15.1597,15.1597,15.1597,15.1597,15.1597,15.1597,15.1597,15.1597,15.1597,15.1597,15.1597,15.1597,15.1597,15.1597,15.1597,15.1597,15.1597,15.1465,15.1005,14.9535,14.8219,14.7167,14.7167,14.7167,14.7167,14.7167,14.7167,14.7167,14.7167,14.7167,14.7167,14.7167,14.7167,14.7167,14.7167,14.7167,14.7167,14.7167,14.7167,14.7167,14.7167,14.7167,14.7167,14.7167,14.8285,14.9206,14.9469,14.8088,14.7628,14.8943,14.7891,14.7167,14.7167,14.7167,14.7167,14.7167,14.7167,14.7167,14.7167,14.7167,14.7167,14.7167,14.7167,14.7167,14.7167,14.7167,14.7167,14.7167,14.7167,14.7167,12.8183,12.9939,13.1451,13.0378,13.0904,13.1385,13.0115,12.9852,12.9852,12.9852,13.097,13.2372,13.3753,13.5331,13.6865,13.8137,13.8465,13.8597,13.8597,13.8597,13.8663,13.886,13.886,13.9452,14.0854,14.1052,14.1578,14.3047,14.1972,14.1841,14.3113,14.3179,14.3814,14.5237,14.5303,14.5961,14.743,14.8811,14.96,14.9798,15.1005,15.1597,15.1597,15.1597,15.1597,15.1597,15.1597,15.1597,15.1597,15.1597,15.1597,15.1597,15.1597,15.1597,15.1597,15.1597,15.1597,15.1597,15.1597,15.0808,14.9469,14.7956,14.7299,14.7167,14.7167,14.7167,14.7167,14.7167,14.7167,14.7167,14.7167,14.7167,14.7167,14.7167,14.7167,14.7167,14.7167,14.7167,14.7167,14.7167,14.7167,14.7167,14.7167,14.7167,14.7167,14.7167,14.7299,14.7956,14.9337,14.8088,14.7233,14.743,14.7233,14.7167,14.7167,14.7167,14.7167,14.7167,14.7167,14.7167,14.7167,14.7167,14.7167,14.7167,14.7167,14.7167,14.7167,14.7167,14.7167,14.7167,14.7167,14.7167,12.7263,12.8644,12.963,12.9787,13.0313,13.0641,12.9984,12.9852,12.9852,12.9852,13.1693,13.349,13.4213,13.612,13.7874,13.8531,13.8597,13.8597,13.8597,13.8597,13.8597,13.8597,13.8597,13.886,13.9452,13.9517,14.0131,14.16,14.0328,14.0131,14.16,14.1666,14.2324,14.3748,14.458,14.5303,14.5984,14.743,14.8154,14.8154,14.8811,14.9098,14.9098,14.9098,14.9098,14.9098,14.9098,14.9098,14.9098,14.9098,14.9098,14.9098,14.9098,14.9098,14.9098,14.9098,14.9098,14.9098,14.9098,14.8703,14.8088,14.7365,14.7167,14.7167,14.7167,14.7167,14.7167,14.7167,14.7167,14.7167,14.7167,14.7167,14.7167,14.7167,14.7167,14.7167,14.7167,14.7167,14.7167,14.7167,14.7167,14.7167,14.7167,14.7167,14.7167,14.7167,14.7167,14.7365,14.8088,14.7562,14.7167,14.7167,14.7167,14.7167,14.7167,14.7167,14.7167,14.7167,14.7167,14.7167,14.7167,14.7167,14.7167,14.7167,14.7167,14.7167,14.7167,14.7167,14.7167,14.7167,14.7167,14.7167,12.5927,12.6868,12.7526,12.8952,12.9326,12.9392,12.9787,12.9852,12.9852,12.9852,13.1891,13.3884,13.4279,13.6383,13.8137,13.8531,13.8597,13.8597,13.8597,13.8597,13.8597,13.8597,13.8597,13.8597,13.8597,13.8597,13.9057,14.0131,13.9189,13.9057,14.0131,14.0197,14.0854,14.2258,14.3353,14.412,14.4471,14.5918,14.6773,14.7167,14.7167,14.7167,14.7167,14.7167,14.7167,14.7167,14.7167,14.7167,14.7167,14.7167,14.7167,14.7167,14.7167,14.7167,14.7167,14.7167,14.7167,14.7102,14.6707,14.6641,14.6641,14.7036,14.7167,14.7167,14.7167,14.7167,14.7167,14.7167,14.7167,14.7167,14.7167,14.7167,14.7167,14.7167,14.7167,14.7167,14.7167,14.7167,14.7167,14.7167,14.7167,14.7167,14.7167,14.7167,14.7167,14.7167,14.7167,14.7167,14.7167,14.7167,14.7167,14.7167,14.7167,14.7167,14.7167,14.7167,14.7167,14.7167,14.7167,14.7167,14.7167,14.7167,14.7167,14.7167,14.7167,14.7167,14.7167,14.7167,14.7167,14.7167,14.7167,14.7167,12.3212,12.4658,12.5993,12.746,12.7854,12.8183,12.9524,12.9852,12.9852,12.9852,13.1036,13.2569,13.4081,13.5528,13.6996,13.84,13.8597,13.8597,13.8597,13.8597,13.8597,13.8597,13.8597,13.8597,13.8597,13.8597,13.8663,13.8728,13.8663,13.8663,13.8728,13.8728,13.9386,14.0789,14.092,14.1578,14.2981,14.4405,14.5786,14.7167,14.7167,14.7167,14.7167,14.7167,14.7167,14.7167,14.7167,14.7167,14.7167,14.7167,14.7167,14.7167,14.7167,14.7167,14.7167,14.7167,14.7167,14.697,14.5566,14.5106,14.5369,14.6707,14.7167,14.7167,14.7167,14.7167,14.7167,14.7167,14.7167,14.7167,14.7167,14.7167,14.7167,14.7167,14.7167,14.7167,14.7167,14.7167,14.7167,14.7167,14.7167,14.7167,14.7167,14.7167,14.7167,14.7167,14.7167,14.7167,14.7167,14.7167,14.7167,14.7167,14.7167,14.7167,14.7167,14.7167,14.7167,14.7167,14.7167,14.7167,14.7167,14.7167,14.7167,14.7167,14.7167,14.7167,14.7167,14.7167,14.7167,14.7167,14.7167,14.7167,12.0253,12.1719,12.3165,12.4593,12.5664,12.6453,12.6979,12.7834,12.8492,12.8492,13.0333,13.2174,13.27,13.4805,13.6602,13.7106,13.8005,13.8597,13.8597,13.8597,13.8597,13.8597,13.8597,13.8597,13.8597,13.8597,13.8597,13.8597,13.8597,13.8597,13.8597,13.8597,13.886,13.932,14.0241,14.0986,14.1534,14.2893,14.3902,14.4428,14.4428,14.4428,14.4428,14.5392,14.5763,14.5829,14.6773,14.6641,14.5763,14.5763,14.526,14.4428,14.4428,14.4428,14.4428,14.4428,14.4428,14.4297,14.3814,14.3616,14.3705,14.4231,14.4428,14.4428,14.4428,14.4428,14.4428,14.4428,14.5063,14.5763,14.5763,14.6444,14.7167,14.7167,14.7167,14.7167,14.7167,14.7167,14.7167,14.7167,14.7167,14.7167,14.7167,14.7167,14.7167,14.7167,14.7167,14.7167,14.7167,14.7167,14.7167,14.7167,14.7167,14.7167,14.7167,14.7167,14.7167,14.7167,14.7167,14.7167,14.7167,14.7167,14.6707,14.5763,14.5763,14.5326,14.4428,14.4428,14.4428,14.4428,14.4428,14.4428,11.6871,11.8248,11.9605,12.1082,12.2453,12.356,12.402,12.5204,12.6256,12.6256,12.8163,13.0136,13.1122,13.2898,13.4542,13.5615,13.6514,13.7348,13.7808,13.7895,13.8071,13.8531,13.8597,13.8597,13.8597,13.8597,13.8597,13.8597,13.8597,13.8597,13.8597,13.8597,13.8597,13.8597,13.9517,13.9978,13.9978,14.1446,14.2126,14.2126,14.2652,14.285,14.2915,14.3879,14.4274,14.434,14.5326,14.5129,14.4274,14.4274,14.3748,14.285,14.285,14.285,14.285,14.285,14.2258,14.1512,14.1995,14.2126,14.2258,14.2718,14.285,14.285,14.285,14.285,14.285,14.285,14.3573,14.4274,14.4274,14.4997,14.5744,14.5744,14.5744,14.5744,14.5744,14.5744,14.5744,14.5744,14.5744,14.5875,14.6378,14.6444,14.6575,14.7102,14.7167,14.6773,14.5786,14.5744,14.5744,14.5744,14.5744,14.5744,14.5744,14.5744,14.5744,14.5744,14.5744,14.5744,14.5744,14.5744,14.526,14.434,14.4274,14.3814,14.285,14.285,14.285,14.285,14.285,14.285,11.2978,11.426,11.5467,11.6884,11.8079,11.9351,12.0705,12.2179,12.3258,12.3258,12.4461,12.6368,12.9129,12.9721,13.0773,13.3687,13.4213,13.4739,13.6207,13.6404,13.6996,13.8334,13.8597,13.8597,13.8531,13.8597,13.8597,13.8597,13.8597,13.8597,13.8597,13.8597,13.8597,13.8597,13.8597,13.8597,13.8597,13.9978,14.0657,14.0723,14.206,14.2718,14.2718,14.2718,14.2784,14.2784,14.285,14.285,14.2784,14.2784,14.2784,14.2718,14.2718,14.2718,14.2718,14.2718,14.0986,13.8794,14.0197,14.0657,14.092,14.2324,14.2718,14.2718,14.2718,14.2718,14.2718,14.2718,14.2784,14.2784,14.2784,14.285,14.285,14.285,14.285,14.285,14.285,14.285,14.285,14.285,14.285,14.331,14.4711,14.4974,14.5435,14.6838,14.7036,14.5984,14.3244,14.285,14.285,14.285,14.285,14.285,14.285,14.285,14.285,14.285,14.285,14.285,14.285,14.285,14.285,14.2784,14.2784,14.2784,14.2718,14.2718,14.2718,14.2718,14.2718,14.2718,10.9807,11.1144,11.2265,11.2661,11.3568,11.4557,11.5252,11.7084,11.8628,11.8628,12.1502,12.4264,12.5053,12.6914,12.8886,13.0773,13.1977,13.3161,13.4673,13.5812,13.6602,13.6975,13.7939,13.8202,13.7172,13.8005,13.8597,13.8597,13.8597,13.8597,13.8597,13.8597,13.8597,13.8597,13.8597,13.8597,13.8597,13.8991,13.9189,13.9189,13.9583,13.9802,13.9802,13.9802,14.0328,14.1381,14.2389,14.2258,14.1315,14.1315,14.0723,13.9802,13.9802,13.9802,13.9802,13.9802,13.9254,13.8663,13.9057,13.9189,13.9254,13.9649,13.9802,13.9802,13.9802,13.9802,13.9802,13.9802,14.0526,14.1315,14.1315,14.2126,14.285,14.285,14.285,14.285,14.285,14.285,14.285,14.285,14.285,14.2981,14.3376,14.3442,14.3573,14.3968,14.4034,14.377,14.2981,14.285,14.285,14.285,14.285,14.285,14.285,14.285,14.285,14.285,14.285,14.285,14.285,14.285,14.2389,14.1315,14.1315,14.0789,13.9802,13.9802,13.9802,13.9802,13.9802,13.9802,10.5588,10.6757,10.7853,10.845,10.946,11.0461,11.1173,11.2949,11.4336,11.4192,11.7163,11.999,12.0582,12.3053,12.5487,12.6959,12.836,13.007,13.2154,13.3161,13.4147,13.5397,13.6317,13.6493,13.566,13.6843,13.7698,13.7698,13.8268,13.8597,13.8597,13.8597,13.8597,13.8597,13.8597,13.8597,13.8597,13.8597,13.8597,13.8597,13.8597,13.8597,13.8597,13.8597,13.9057,13.9846,14.0723,14.0591,13.9846,13.9846,13.932,13.8597,13.8597,13.8597,13.8597,13.8597,13.8597,13.8597,13.8597,13.8597,13.8597,13.8597,13.8597,13.8597,13.8597,13.8597,13.8597,13.8597,13.9189,13.9846,13.9846,14.046,14.1052,14.1052,14.1052,14.1052,14.1052,14.1052,14.1052,14.1052,14.1052,14.1249,14.1863,14.1995,14.1797,14.1183,14.1052,14.1052,14.1052,14.1052,14.1052,14.1052,14.1052,14.1052,14.1052,14.1052,14.1052,14.1052,14.1052,14.1052,14.1052,14.1052,14.0723,13.9868,13.9846,13.9452,13.8597,13.8597,13.8597,13.8597,13.8597,13.8268,10.099,10.1691,10.2785,10.4052,10.5268,10.641,0.0,10.9045,11.0182,10.9823,11.2171,11.4635,11.5866,11.8562,12.0995,12.2489,12.4001,12.6059,12.8735,12.9524,13.0707,13.3095,13.36,13.3818,13.3818,13.5265,13.6207,13.6207,13.7567,13.8334,13.8334,13.8531,13.8597,13.8597,13.8597,13.8597,13.8597,13.8597,13.8597,13.8597,13.8597,13.8597,13.8597,13.8597,13.8597,13.8597,13.8597,13.8597,13.8597,13.8597,13.8597,13.8597,13.8597,13.8597,13.8597,13.8597,13.8597,13.8597,13.8597,13.8597,13.8597,13.8597,13.8597,13.8597,13.8597,13.8597,13.8597,13.8597,13.8597,13.8597,13.8597,13.8597,13.8597,13.8597,13.8597,13.8597,13.8597,13.8597,13.8597,13.8597,13.8597,13.8991,14.0263,14.0526,14.0065,13.8794,13.8597,13.8597,13.8597,13.8597,13.8597,13.8597,13.8597,13.8597,13.8597,13.8597,13.8597,13.8597,13.8597,13.8597,13.8597,13.8597,13.8597,13.8597,13.8465,13.8334,13.8334,13.8202,13.8137,13.8137,13.8137,13.7369,0.0,0.0,0.0,0.0,0.0,0.0,0.0,10.3515,10.6016,10.5624,10.886,11.1678,11.1645,11.4007,11.644,11.7905,12.0338,12.2705,12.4461,12.7683,12.9195,12.7506,12.9326,13.0707,13.0707,13.3161,13.4739,13.4739,13.6076,13.6843,13.6843,13.7961,13.8597,13.8597,13.8597,13.8597,13.8597,13.8597,13.8597,13.8597,13.8597,13.8597,13.8597,13.8597,13.8597,13.8597,13.8597,13.8597,13.8597,13.8597,13.8597,13.8597,13.8597,13.8597,13.8597,13.8597,13.8597,13.8597,13.8597,13.8597,13.8597,13.8597,13.8597,13.8597,13.8597,13.8597,13.8597,13.8597,13.8597,13.8597,13.8597,13.8597,13.8597,13.8597,13.8597,13.8597,13.8597,13.8597,13.8597,13.8597,13.8597,13.8663,13.8991,13.8991,13.8926,13.8663,13.8597,13.8597,13.8597,13.8597,13.8597,13.8597,13.8597,13.8597,13.8597,13.8597,13.8597,13.8597,13.8597,13.8597,13.8597,13.8597,13.8597,13.8597,13.7501,13.6843,13.6843,13.5725,13.5133,13.5133,13.5133,13.4344,0.0,0.0,0.0,0.0,0.0,0.0,0.0,0.0,0.0,0.0,0.0,10.7904,10.7706,0.0,11.3107,11.3766,11.6191,11.876,12.0976,12.3757,12.5072,12.3645,12.5316,12.6959,12.7617,13.0378,13.2088,13.2088,13.4147,13.5397,13.5397,13.6054,13.6427,13.6427,13.7172,13.7501,13.7501,13.8268,13.8597,13.8597,13.8597,13.8597,13.8597,13.8597,13.8597,13.8597,13.8597,13.8597,13.8597,13.8597,13.8597,13.8465,13.7019,13.6427,13.658,13.7216,13.7501,13.7632,13.8334,13.8597,13.8597,13.8597,13.8597,13.8597,13.8597,13.8597,13.8597,13.8597,13.8597,13.8597,13.8597,13.8597,13.8597,13.8597,13.8597,13.8597,13.8597,13.8597,13.8597,13.8597,13.8597,13.8597,13.8597,13.8597,13.8597,13.8597,13.8597,13.8597,13.8597,13.8597,13.8597,13.8597,13.8597,13.8597,13.8597,13.8597,13.8597,13.8597,13.8597,13.8597,13.8597,13.7895,13.7501,13.7501,13.612,13.5023,13.4234,13.349,13.2766,13.2022,12.9149,12.8163,0.0,0.0,0.0,0.0,0.0,0.0,0.0,0.0,0.0,0.0,0.0,0.0,0.0,0.0,0.0,10.9705,11.2017,11.4796,11.751,11.8628,11.937,11.9962,12.1305,12.2817,12.4546,12.7091,12.8735,12.8998,13.1517,13.3161,13.3424,13.3753,13.4016,13.4344,13.5484,13.6076,13.6076,13.7238,13.7742,13.7742,13.7742,0.0,13.7742,13.7742,13.7742,13.7742,13.7742,13.7742,13.7742,13.7742,13.7742,13.7545,13.5199,13.4344,13.4476,13.5615,13.6076,13.6207,13.7348,13.7742,13.7742,13.7742,13.7742,13.7742,13.7742,13.7742,0.0,13.8137,13.8202,13.8268,13.8531,13.8597,13.8597,13.8597,13.8597,13.8597,13.8597,13.8597,13.8597,13.8597,13.8597,13.8597,13.8597,13.8597,13.8597,13.8597,13.8597,13.8597,13.8597,13.8597,13.8597,13.8597,13.8597,13.8597,13.8597,13.8597,13.8597,13.8597,13.8597,13.8465,13.8202,13.7062,13.6207,13.5615,13.4147,13.27,13.1122,13.0596,12.9721,12.8472,12.2511,12.1167,0.0,0.0,0.0,0.0,0.0,0.0,0.0,0.0,0.0,0.0,0.0,0.0,0.0,0.0,0.0,0.0,10.8393,11.146,11.3056,11.2315,11.2578,11.5125,11.6703,11.8694,12.1541,12.3212,12.4658,12.5993,12.7591,12.9018,13.0247,13.1562,0.0,0.0,0.0,13.4542,13.4542,13.4739,13.4805,13.4805,13.4805,13.4805,13.4805,13.4805,13.4805,13.4805,13.4805,13.4805,13.4805,13.4805,13.4805,13.4805,13.4476,13.4344,13.4344,13.4476,13.4542,13.4607,13.4739,0.0,0.0,13.4805,13.4805,13.4805,13.4805,13.4805,13.5068,13.6339,13.6667,13.6996,13.8268,13.8597,13.8597,13.8597,13.8597,13.8597,13.8597,13.8597,13.8597,13.8597,13.8597,13.8597,13.8597,13.8597,13.8597,13.8597,13.8597,13.8597,13.8597,13.8597,13.8597,13.8597,13.8597,0.0,13.8597,13.8597,13.8597,13.8597,13.8597,13.8027,13.6733,13.6536,13.5221,13.2569,13.1102,12.9655,12.8203,12.5644,12.431,12.4001,11.7473,11.5103,0.0,0.0,0.0,0.0,0.0,0.0,0.0,0.0,0.0,0.0,0.0,0.0,0.0,0.0,0.0,0.0,10.4798,10.7226,10.8003,10.729,10.8109,11.207,11.29,11.4222,11.7181,11.8741,12.0206,12.1719,12.3955,12.5513,12.6085,12.7485,12.8558,12.9215,13.007,13.0859,13.1693,13.2569,13.3424,13.4344,13.4344,13.4344,13.4344,13.4344,13.4344,13.4344,13.4344,13.4344,13.4344,13.4344,13.4344,13.4016,0.0,0.0,0.0,0.0,12.9741,13.0596,13.143,13.1693,13.1693,13.1693,13.2306,13.2963,13.2963,13.3621,13.4476,13.5002,13.5199,13.5331,13.5988,13.6098,13.6098,13.6098,13.6777,13.7369,13.7369,13.8005,13.8597,13.8597,13.8597,0.0,13.6361,13.6843,13.7369,13.7369,13.8071,13.8597,13.8597,13.8597,13.8597,13.8597,13.8597,13.8597,13.8597,13.8597,0.0,0.0,0.0,13.7939,13.6536,13.647,0.0,0.0,0.0,12.4593,12.139,12.0376,0.0,0.0,11.0534,10.9278,0.0,0.0,0.0,0.0,0.0,0.0,0.0,0.0,0.0,0.0,0.0,0.0,0.0,0.0,0.0,0.0,10.0965,10.2728,10.3109,10.3078,10.4586,10.8814,10.932,11.0481,11.3361,11.4539,11.5669,11.7247,11.9267,12.0779,12.1568,12.262,12.356,12.4349,12.5796,12.7045,12.8077,12.9524,13.0793,13.1911,13.1911,13.1911,13.1911,13.1911,13.1911,13.1911,13.1911,13.1911,13.1911,13.1911,13.1911,13.1451,12.6388,12.4415,12.4415,12.4415,12.5007,12.6079,12.7111,12.7485,12.7485,12.7485,12.8229,12.9018,12.9018,12.9873,13.0925,13.1714,13.1911,13.2109,13.2898,13.3358,13.3687,13.3687,13.4805,13.5878,13.5878,13.6712,13.7413,13.7413,13.6756,13.5638,13.395,13.4542,13.5352,13.5812,13.6777,13.7545,13.7939,13.8005,13.8137,13.8597,13.8597,13.8597,13.8597,13.8597,13.84,13.8005,13.8005,13.7172,13.5286,13.4805,13.2261,12.7197,12.3494,11.9699,0.0,0.0,0.0,0.0,0.0,0.0,0.0,0.0,0.0,0.0,0.0,0.0,0.0,0.0,0.0,0.0,0.0,0.0,0.0,0.0,0.0,0.0,0.0,0.0,9.8531,9.9755,10.1746,10.4784,10.6051,10.7838,11.0811,11.0814,11.1197,11.2662,11.2859,11.4109,11.6918,11.705,11.8431,12.1343,12.2817,12.3606,12.3653,12.5053,12.5796,12.5862,12.5862,12.5862,12.5862,12.5862,12.5862,12.5862,12.5862,12.5862,12.5862,12.5862,12.5862,12.5533,12.2593,12.1409,12.1409,12.1409,12.1475,12.1475,12.1541,12.1541,12.1541,12.1541,12.1606,12.1606,12.1606,12.1672,12.2264,12.5072,12.5862,12.6519,12.9261,13.1036,13.2043,13.2043,13.3226,13.441,13.441,13.441,13.4476,13.4476,13.2088,13.051,13.1846,13.2109,13.2635,13.4147,13.441,0.0,13.6339,13.6536,13.704,13.8465,13.8597,13.8597,13.8597,13.8597,13.8005,13.6602,13.6536,13.5221,13.224,13.0773,12.8669,12.5664,12.0009,11.5767,11.327,0.0,0.0,0.0,0.0,0.0,0.0,0.0,0.0,0.0,0.0,0.0,0.0,0.0,0.0,0.0,0.0,0.0,0.0,0.0,0.0,0.0,0.0,0.0,0.0,9.4688,9.6229,10.0337,10.1011,10.2255,10.5154,10.5195,10.5988,10.8346,10.9262,11.0522,11.2447,11.3517,11.4438,11.549,11.69,11.8065,11.9004,12.0516,12.1785,12.2724,12.2724,12.3231,12.4132,12.4132,12.4658,12.5533,12.4593,12.4132,12.4067,12.31,12.0423,11.6871,11.5885,11.549,11.549,11.549,11.549,11.549,11.549,11.549,11.549,11.549,11.6129,11.69,11.69,11.7576,11.876,12.0732,12.1324,12.1785,12.3692,12.527,12.6302,12.6302,12.8163,12.9959,12.9959,13.0662,13.1365,13.1365,12.7506,12.4349,12.4809,12.6453,12.79,12.8426,13.0115,13.1891,13.3292,13.349,13.441,13.6909,13.6317,13.6186,13.7106,13.6317,13.5594,13.5068,13.4081,13.2635,13.0641,12.8274,12.5204,12.139,11.7426,11.3642,11.0182,0.0,0.0,0.0,0.0,0.0,0.0,0.0,0.0,0.0,0.0,0.0,0.0,0.0,0.0,0.0,0.0,0.0,0.0,0.0,0.0,0.0,0.0,0.0,0.0,0.0,0.0,9.5815,9.6713,0.0,10.0102,10.017,10.0825,10.2646,10.3991,10.5346,10.6679,10.8557,10.9823,11.0246,11.21,11.3613,11.4551,11.6064,11.7266,11.8186,11.8186,11.8891,12.0319,12.0319,12.1108,12.2376,12.0976,12.0319,12.0122,11.7623,11.473,11.1799,11.1799,11.1822,11.1721,11.1222,11.097,11.0917,11.0436,11.0228,11.0228,11.0228,11.0872,11.1565,11.1565,11.2985,11.4741,11.5698,11.6401,11.7022,11.794,11.9615,12.1108,12.1108,12.3297,12.5421,12.5421,12.6125,12.617,12.4067,12.0667,11.8355,11.9078,12.1025,12.2678,12.332,12.5789,12.8077,12.9544,13.0596,13.2174,13.4629,13.4542,13.4673,13.5615,13.4344,13.3292,13.2745,13.0793,12.8821,12.6894,12.402,12.0667,11.6853,11.3522,11.0009,0.0,0.0,0.0,0.0,0.0,0.0,0.0,0.0,0.0,0.0,0.0,0.0,0.0,0.0,0.0,0.0,0.0,0.0,0.0,0.0,0.0,0.0,0.0,0.0,0.0,0.0,0.0,9.1376,9.3072,0.0,0.0,0.0,0.0,9.5692,9.7145,9.8516,9.9802,10.2385,10.4437,10.5741,10.8487,10.9948,10.9948,11.1496,11.2219,11.2201,11.2285,11.3122,11.4467,11.4467,11.5256,11.6524,11.5125,11.4467,11.4121,10.9737,10.8698,10.9876,10.9954,10.9927,10.9698,10.8308,10.7702,10.7445,10.6134,10.5675,10.5675,10.5675,10.5623,10.551,10.557,10.7585,0.0,0.0,11.0873,11.2064,11.2282,11.436,11.6411,11.6524,11.8713,12.0817,12.0817,12.0817,11.9173,0.0,11.2224,11.2808,11.4524,0.0,11.7091,11.8847,12.1355,12.356,12.5092,12.7703,13.005,13.1714,13.3161,13.4016,13.4081,13.2635,13.1122,12.9589,12.6828,12.402,12.1212,11.8121,11.5179,11.2303,10.8363,0.0,0.0,0.0,0.0,0.0,0.0,0.0,0.0,0.0,0.0,0.0,0.0,0.0,0.0,0.0,0.0,0.0,0.0,0.0,0.0,0.0,0.0,0.0,0.0,0.0,0.0,8.2473,8.4067,8.8025,8.8332,8.9066,0.0,0.0,0.0,0.0,0.0,0.0,9.6358,9.6528,9.7934,10.1,10.2173,10.3138,10.3898,10.6664,10.7983,10.7795,10.9169,11.0387,11.1509,11.1509,11.2315,11.3583,11.2118,11.1509,11.1087,10.5632,10.2882,10.2273,10.3209,10.2942,10.1827,10.1467,10.1306,10.1089,9.9905,9.9493,9.9493,9.9493,9.9487,9.9599,10.0463,0.0,0.0,0.0,0.0,10.5316,10.8389,11.001,11.0966,11.1842,11.3433,11.4766,11.4766,11.4766,11.3457,0.0,10.7834,10.7969,10.9031,0.0,0.0,0.0,11.567,11.8293,12.0781,12.2464,12.527,12.9918,12.9807,12.9807,13.0904,12.9676,12.7703,12.525,12.2357,11.9943,11.8036,11.4425,11.1053,10.8116,0.0,0.0,0.0,0.0,0.0,0.0,0.0,0.0,0.0,0.0,0.0,0.0,0.0,0.0,0.0,0.0,0.0,0.0,0.0,0.0,0.0,0.0,0.0,0.0,0.0,0.0,0.0,7.7813,7.9932,8.318,8.3945,8.4979,0.0,0.0,0.0,0.0,0.0,0.0,0.0,0.0,0.0,9.6109,9.7767,9.8836,9.9482,10.1541,10.2847,10.3327,10.3959,10.521,10.6995,10.6995,10.7787,10.9058,10.7521,10.5673,10.3496,10.0235,9.8548,9.812,0.0,0.0,0.0,0.0,9.6864,9.6636,9.5396,9.4984,9.4984,9.4984,0.0,0.0,0.0,0.0,0.0,0.0,0.0,10.0108,10.1816,0.0,10.4835,10.551,10.7252,10.8979,10.9571,10.8068,10.5955,0.0,10.2997,10.3303,10.4593,0.0,0.0,0.0,0.0,11.4744,11.6512,11.8852,12.185,12.5664,12.6519,12.7131,12.788,12.6059,12.3974,12.17,11.8234,11.5347,11.33,10.9305,10.6103,0.0,0.0,0.0,0.0,0.0,0.0,0.0,0.0,0.0,0.0,0.0,0.0,0.0,0.0,0.0,0.0,0.0,0.0,0.0,0.0,0.0,0.0,0.0,0.0,0.0,0.0,0.0,0.0,0.0,7.621,7.788,0.0,0.0,0.0,0.0,0.0,0.0,0.0,0.0,0.0,0.0,0.0,0.0,0.0,9.5294,9.4821,9.617,9.7518,9.8734,9.8348,9.9472,10.1848,10.2078,10.2801,10.3711,10.1573,0.0,9.4466,9.4689,0.0,0.0,0.0,0.0,0.0,0.0,0.0,0.0,0.0,0.0,0.0,0.0,0.0,0.0,0.0,0.0,0.0,0.0,0.0,0.0,0.0,0.0,9.881,9.9049,10.1218,10.3349,0.0,10.0869,9.7862,9.8012,9.8014,0.0,0.0,0.0,0.0,0.0,0.0,0.0,11.2796,11.6032,11.8957,12.0817,12.3231,12.4809,12.5007,12.2396,12.0028,11.8365,11.4175,11.0499,10.792,10.3659,0.0,0.0,0.0,0.0,0.0,0.0,0.0,0.0,0.0,0.0,0.0,0.0,0.0,0.0,0.0,0.0,0.0,0.0,0.0,0.0,0.0,0.0,0.0,0.0,0.0,0.0,0.0,0.0,0.0,0.0,0.0,0.0,0.0,0.0,0.0,0.0,0.0,0.0,0.0,0.0,0.0,0.0,0.0,0.0,0.0,0.0,0.0,0.0,0.0,0.0,9.6133,9.7465,9.7724,9.903,9.9335,9.8614,9.4341,9.154,9.0205,9.1827,0.0,0.0,0.0,0.0,0.0,0.0,0.0,0.0,0.0,0.0,0.0,0.0,0.0,0.0,0.0,0.0,0.0,0.0,0.0,0.0,0.0,0.0,0.0,0.0,9.791,9.7941,9.5196,0.0,0.0,0.0,0.0,0.0,0.0,0.0,0.0,0.0,0.0,0.0,11.1047,11.2699,11.5227,11.9088,12.0009,12.0732,12.1935,11.9286,11.6458,11.3846,10.9636,10.6087,0.0,0.0,0.0,0.0,0.0,0.0,0.0,0.0,0.0,0.0,0.0,0.0,0.0,0.0,0.0,0.0,0.0,0.0,0.0,0.0,0.0,0.0,0.0,0.0,0.0,0.0,0.0,0.0,0.0,0.0,0.0,0.0,0.0,0.0,0.0,0.0,0.0,0.0,0.0,0.0,0.0,0.0,0.0,0.0,0.0,0.0,0.0,0.0,0.0,0.0,0.0,0.0,0.0,0.0,0.0,0.0,0.0,0.0,0.0,8.5966,0.0,0.0,0.0,0.0,0.0,0.0,0.0,0.0,0.0,0.0,0.0,0.0,0.0,0.0,0.0,0.0,0.0,0.0,0.0,0.0,0.0,0.0,0.0,0.0,0.0,0.0,0.0,0.0,0.0,0.0,0.0,0.0,0.0,0.0,0.0,0.0,0.0,0.0,0.0,0.0,10.8534,11.0539,11.2949,11.5995,11.7519,11.8201,11.8201,11.5976,11.3128,10.9662,10.6054,0.0,0.0,0.0,0.0,0.0,0.0,0.0,0.0,0.0,0.0,0.0,0.0,0.0,0.0,0.0,0.0,0.0,0.0,0.0,0.0,0.0,0.0,0.0,0.0,0.0,0.0,0.0,0.0,0.0,0.0,0.0,0.0,0.0,0.0,0.0,0.0,0.0,0.0,0.0,0.0,0.0,0.0,0.0,0.0,0.0,0.0,0.0,0.0,0.0,0.0,0.0,0.0,0.0,0.0,0.0,0.0,0.0,0.0,0.0,8.3173,0.0,0.0,0.0,0.0,0.0,0.0,0.0,0.0,0.0,0.0,0.0,0.0,0.0,0.0,0.0,0.0,0.0,0.0,0.0,0.0,0.0,0.0,0.0,0.0,0.0,0.0,0.0,0.0,0.0,0.0,0.0,0.0,0.0,0.0,0.0,0.0,0.0,0.0,0.0,0.0,0.0,10.6007,10.8318,11.0636,11.2946,11.4709,11.5442,11.4842,11.2667,10.9863,10.6252,10.3112,0.0,0.0,0.0,0.0,0.0,0.0,0.0,0.0,0.0,0.0,0.0,0.0,0.0,0.0,0.0,0.0,0.0,0.0,0.0,0.0,0.0,0.0,0.0,0.0,0.0,0.0,0.0,0.0,0.0,0.0,0.0,0.0,0.0,0.0,0.0,0.0,0.0,0.0,0.0,0.0,0.0,0.0,0.0,0.0,0.0,0.0,0.0,0.0,0.0,0.0,0.0,0.0,0.0,0.0,0.0,0.0,0.0,0.0,0.0,0.0,0.0,0.0,0.0,0.0,0.0,0.0,0.0,0.0,0.0,0.0,0.0,0.0,0.0,0.0,0.0,0.0,0.0,0.0,0.0,0.0,0.0,0.0,0.0,0.0,0.0,0.0,0.0,0.0,0.0,0.0,0.0,0.0,0.0,0.0,0.0,0.0,0.0,0.0,0.0,0.0,0.0,10.3895,10.5121,10.7106,11.1205,11.064,11.0887,11.311,10.9808,10.6728,10.4748,0.0,0.0,0.0,0.0,0.0,0.0,0.0,0.0,0.0,0.0,0.0,0.0,0.0,0.0,0.0,0.0,0.0,0.0,0.0,0.0,0.0,0.0,0.0,0.0,0.0,0.0,0.0,0.0,0.0,0.0,0.0,0.0,0.0,0.0,0.0,0.0,0.0,0.0,0.0,0.0,0.0,0.0,0.0,0.0,0.0,0.0,0.0,0.0,0.0,0.0,0.0,0.0,0.0,0.0,0.0,0.0,0.0,0.0,0.0,0.0,0.0,0.0,0.0,0.0,0.0,0.0,0.0,0.0,0.0,0.0,0.0,0.0,0.0,0.0,0.0,0.0,0.0,0.0,0.0,0.0,0.0,0.0,0.0,0.0,0.0,0.0,0.0,0.0,0.0,0.0,0.0,0.0,0.0,0.0,0.0,0.0,0.0,0.0,0.0,0.0,0.0,0.0,10.2436,10.431,10.6925,11.1402,11.0509,11.0319,11.2135,10.8302,10.4732,10.2099,0.0,0.0,0.0,0.0,0.0,0.0,0.0,0.0,0.0,0.0,0.0,0.0,0.0,0.0,0.0,0.0,0.0,0.0,0.0,0.0,0.0,0.0,0.0,0.0,0.0,0.0,0.0,0.0,0.0,0.0,0.0,0.0,0.0,0.0,0.0,0.0,0.0,0.0,0.0,0.0,0.0,0.0,0.0,0.0,0.0,0.0,0.0,0.0,0.0,0.0,0.0,0.0,0.0,0.0,0.0,0.0,0.0,0.0,0.0,0.0,0.0,0.0,0.0,0.0,0.0,0.0,0.0,0.0,0.0,0.0,0.0,0.0,0.0,0.0,0.0,0.0,0.0,0.0,0.0,0.0,0.0,0.0,0.0,0.0,0.0,0.0,0.0,0.0,0.0,0.0,0.0,0.0,0.0,0.0,0.0,0.0,0.0,0.0,0.0,0.0,0.0,0.0,10.1344,10.361,10.6596,11.1487,11.0628,11.0075,11.1013,10.7389,10.3739,10.0513,0.0,0.0,0.0,0.0,0.0,0.0,0.0,0.0,0.0,0.0,0.0,0.0,0.0,0.0,0.0,0.0,0.0,0.0,0.0,0.0,0.0,0.0,0.0,0.0,0.0,0.0,0.0,0.0,0.0,0.0,0.0,0.0,0.0,0.0,0.0,0.0,0.0,0.0,0.0,0.0,0.0,0.0,0.0,0.0,0.0,0.0,0.0,0.0,0.0,0.0,0.0,0.0,0.0,0.0,0.0,0.0,0.0,0.0,0.0,0.0,0.0,0.0,0.0,0.0,0.0,0.0,0.0,0.0,0.0,0.0,0.0,0.0,0.0,0.0,0.0,0.0,0.0,0.0,0.0,0.0,0.0,0.0,0.0,0.0,0.0,0.0,0.0,0.0,0.0,0.0,0.0,0.0,0.0,0.0,0.0,0.0,0.0,0.0,0.0,0.0,0.0,0.0,10.0699,10.26,10.5378,11.0964,11.0309,10.9489,10.9456,10.6961,10.3895,0.0,0.0,0.0,0.0,0.0,0.0,0.0,0.0,0.0,0.0,0.0,0.0,0.0,0.0,0.0,0.0,0.0,0.0,0.0,0.0,0.0,0.0,0.0,0.0,0.0,0.0,0.0,0.0,0.0,0.0,0.0,0.0,0.0,0.0,0.0,0.0,0.0,0.0,0.0,0.0,0.0,0.0,0.0,0.0,0.0,0.0,0.0,0.0,0.0,0.0,0.0,0.0,0.0,0.0,0.0,0.0,0.0,0.0,0.0,0.0,0.0,0.0,0.0,0.0,0.0,0.0,0.0,0.0,0.0,0.0,0.0,0.0,0.0,0.0,0.0,0.0,0.0,0.0,0.0,0.0,0.0,0.0,0.0,0.0,0.0,0.0,0.0,0.0,0.0,0.0,0.0,0.0,0.0,0.0,0.0,0.0,0.0,0.0,0.0,0.0,0.0,0.0,0.0,9.7745,10.0951,10.4893,0.0,11.0143,10.9758,11.0439,10.6145,10.1814,9.825,0.0,0.0,0.0,0.0,0.0,0.0,0.0,0.0,0.0,0.0,0.0,0.0,0.0,0.0,0.0,0.0,0.0,0.0,0.0,0.0,0.0,0.0,0.0,0.0,0.0,0.0,0.0,0.0,0.0,0.0,0.0,0.0,0.0,0.0,0.0,0.0,0.0,0.0,0.0,0.0,0.0,0.0,0.0,0.0,0.0,0.0,0.0,0.0,0.0,0.0,0.0,0.0,0.0,0.0,0.0,0.0,0.0,0.0,0.0,0.0,0.0,0.0,0.0,0.0,0.0,0.0,0.0,0.0,0.0,0.0,0.0,0.0,0.0,0.0,0.0,0.0,0.0,0.0,0.0,0.0,0.0,0.0,0.0,0.0,0.0,0.0,0.0,0.0,0.0,0.0,0.0,0.0,0.0,0.0,0.0,0.0,0.0,0.0,0.0,0.0,0.0,0.0,0.0,10.0843,10.5094,0.0,11.0755,11.0555,11.0143,10.577,10.1336,9.7242,0.0,0.0,0.0,0.0,0.0,0.0,0.0,0.0,0.0,0.0,0.0,0.0,0.0,0.0,0.0,0.0,0.0,0.0,0.0,0.0,0.0,0.0,0.0,0.0,0.0,0.0,0.0,0.0,0.0,0.0,0.0,0.0,0.0,0.0,0.0,0.0,0.0,0.0,0.0,0.0,0.0,0.0,0.0,0.0,0.0,0.0,0.0,0.0,0.0,0.0,0.0,0.0,0.0,0.0,0.0,0.0,0.0,0.0,0.0,0.0,0.0,0.0,0.0,0.0,0.0,0.0,0.0,0.0,0.0,0.0,0.0,0.0,0.0,0.0,0.0,0.0,0.0,0.0,0.0,0.0,0.0,0.0,0.0,0.0,0.0,0.0,0.0,0.0,0.0,0.0,0.0,0.0,0.0,0.0,0.0,0.0,0.0,0.0,0.0,0.0,0.0,0.0,0.0,10.1589,10.5519,10.9641,11.1452,11.1378,10.8809,10.5801,10.195,9.7101,9.2497,0.0,0.0,0.0,0.0,0.0,0.0,0.0,0.0,0.0,0.0,0.0,0.0,0.0,0.0,0.0,0.0,0.0,0.0,0.0,0.0,0.0,0.0,0.0,0.0,0.0,0.0,0.0,0.0,0.0,0.0,0.0,0.0,0.0,0.0,0.0,0.0,0.0,0.0,0.0,0.0,0.0,0.0,0.0,0.0,0.0,0.0,0.0,0.0,0.0,0.0,0.0,0.0,0.0,0.0,0.0,0.0,0.0,0.0,0.0,0.0,0.0,0.0,0.0,0.0,0.0,0.0,0.0,0.0,0.0,0.0,0.0,0.0,0.0,0.0,0.0,0.0,0.0,0.0,0.0,0.0,0.0,0.0,0.0,0.0,0.0,0.0,0.0,0.0,0.0,0.0,0.0,0.0,0.0,0.0,0.0,0.0,0.0,0.0,0.0,0.0,0.0,0.0,9.8279,10.309,10.6507,10.8252,10.8879,10.8293,10.4298,9.9724,9.491,9.1355,0.0,0.0,0.0,0.0,0.0,0.0,0.0,0.0,0.0,0.0,0.0,0.0,0.0,0.0,0.0,0.0,0.0,0.0,0.0,0.0,0.0,0.0,0.0,0.0,0.0,0.0,0.0,0.0,0.0,0.0,0.0,0.0,0.0,0.0,0.0,0.0,0.0,0.0,0.0,0.0,0.0,0.0,0.0,0.0,0.0,0.0,0.0,0.0,0.0,0.0,0.0,0.0,0.0,0.0,0.0,0.0,0.0,0.0,0.0,0.0,0.0,0.0,0.0,0.0,0.0,0.0,0.0,0.0,0.0,0.0,0.0,0.0,0.0,0.0,0.0,0.0,0.0,0.0,0.0,0.0,0.0,0.0,0.0,0.0,0.0,0.0,0.0,0.0,0.0,0.0,0.0,0.0,0.0,0.0,0.0,0.0,0.0,0.0,0.0,0.0,0.0,0.0,9.3248,9.8741,10.4092,10.6753,10.7477,10.6029,10.2319,9.7966,9.3096,8.9181,0.0,0.0,0.0,0.0,0.0,0.0,0.0,0.0,0.0,0.0,0.0,0.0,0.0,0.0,0.0,0.0,0.0,0.0,0.0,0.0,0.0,0.0,0.0,0.0,0.0,0.0,0.0,0.0,0.0,0.0,0.0,0.0,0.0,0.0,0.0,0.0,0.0,0.0,0.0,0.0,0.0,0.0,0.0,0.0,0.0,0.0,0.0,0.0,0.0,0.0,0.0,0.0,0.0,0.0,0.0,0.0,0.0,0.0,0.0,0.0,0.0,0.0,0.0,0.0,0.0,0.0,0.0,0.0,0.0,0.0,0.0,0.0,0.0,0.0,0.0,0.0,0.0,0.0,0.0,0.0,0.0,0.0,0.0,0.0,0.0,0.0,0.0,0.0,0.0,0.0,0.0,0.0,0.0,0.0,0.0,0.0,0.0,0.0,0.0,0.0,0.0,0.0,0.0,9.3729,10.1157,10.4816,10.5754,10.3583,10.0097,9.6163,9.1794,0.0,0.0,0.0,0.0,0.0,0.0,0.0,0.0,0.0,0.0,0.0,0.0,0.0,0.0,0.0,0.0,0.0,0.0,0.0,0.0,0.0,0.0,0.0,0.0,0.0,0.0,0.0,0.0,0.0,0.0,0.0,0.0,0.0,0.0,0.0,0.0,0.0,0.0,0.0,0.0,0.0,0.0,0.0,0.0,0.0,0.0,0.0,0.0,0.0,0.0,0.0,0.0,0.0,0.0,0.0,0.0,0.0,0.0,0.0,0.0,0.0,0.0,0.0,0.0,0.0,0.0,0.0,0.0,0.0,0.0,0.0,0.0,0.0,0.0,0.0,0.0,0.0,0.0,0.0,0.0,0.0,0.0,0.0,0.0,0.0,0.0,0.0,0.0,0.0,0.0,0.0,0.0,0.0,0.0,0.0,0.0,0.0,0.0,0.0,0.0,0.0,0.0,0.0,0.0,8.96,9.4817,9.8242,10.1096,10.3226,9.8018,9.3738,9.1722,0.0,0.0,0.0,0.0,0.0,0.0,0.0,0.0,0.0,0.0,0.0,0.0,0.0,0.0]}],[{"header":{"parameterUnit":"kt","parameterCategory":2,"dx":1,"dy":1,"la1":29.285339999999998,"la2":30.599998999999997,"lo1":-89.70041500000002,"lo2":-87.6738589999976,"nx":112,"ny":82,"refTime":"2022-09-23T06:00:00:Z","depth":0,"parameterNumber":2,"parameterNumberName":"V-component_of_WINDS"},"data":[8.2506,8.2308,0.0,7.8375,7.7454,0.0,7.2474,0.0,7.3121,0.0,0.0,0.0,0.0,7.1076,6.8927,7.1235,6.9693,6.8545,0.0,7.0722,7.1628,7.2297,7.5297,7.877,8.2353,0.0,0.0,9.1638,9.4618,9.7002,0.0,10.0987,10.295,10.4061,10.6361,10.7763,10.8137,10.9165,10.9679,10.9679,11.0053,10.9874,10.922,10.922,10.8885,10.8184,10.7848,10.7661,10.7661,10.7661,10.7287,10.6679,10.6679,10.6071,10.5099,10.4726,10.4585,10.4585,10.4585,10.4585,10.4585,10.4585,10.4585,10.4585,10.4585,10.4585,10.4585,10.4585,10.4585,10.4585,10.4585,10.4585,10.4585,10.4585,10.4585,10.4585,10.4585,10.4585,10.4585,10.4585,10.4585,10.4585,10.4585,10.4585,10.4585,10.4585,10.4585,10.4585,10.4585,10.4585,10.4585,10.4585,10.4585,10.4585,10.4585,10.4585,10.4585,10.4585,10.4585,10.4585,10.4585,10.4585,10.4585,10.4585,10.4585,10.4585,10.4585,10.4585,10.4585,10.4585,10.4585,10.4585,7.8382,7.7841,7.6709,7.3643,7.2442,7.1302,6.8904,6.8318,0.0,0.0,0.0,0.0,0.0,6.7652,6.5451,6.7028,6.7271,6.7672,0.0,7.2468,7.6597,8.063,8.0645,8.1927,8.5886,0.0,0.0,9.4252,9.7002,0.0,10.0041,10.2986,10.4726,10.5099,10.781,10.922,10.922,11.0287,11.0801,11.0801,11.0474,10.9874,10.922,10.8885,10.8362,10.7661,10.7333,10.7146,10.7146,10.6772,10.6258,10.5613,10.5613,10.5193,10.4585,10.4585,10.4585,10.4585,10.4585,10.4585,10.4585,10.4585,10.4585,10.4585,10.4585,10.4585,10.4585,10.4585,10.4585,10.4585,10.4585,10.4585,10.4585,10.4585,10.4585,10.4585,10.4585,10.4585,10.4585,10.4585,10.4585,10.4585,10.4585,10.4585,10.4585,10.4585,10.4585,10.4585,10.4585,10.4585,10.4585,10.4585,10.4585,10.4585,10.4585,10.4585,10.4726,10.5053,10.5427,10.5613,10.5613,10.5613,10.5613,10.5613,10.5613,10.5613,10.5613,10.5286,10.5099,10.5099,10.5099,10.5286,7.0393,6.9938,6.9482,6.7845,6.7389,6.7389,6.7389,6.8642,6.9165,0.0,0.0,0.0,6.5426,6.4936,6.3972,6.0898,6.4475,0.0,0.0,6.7096,7.5347,8.4849,8.7966,9.0519,9.3636,9.3122,9.4244,9.8311,9.8685,9.9994,10.3058,10.4154,10.5146,10.6165,10.823,10.9305,10.9305,11.0287,11.0801,11.0801,10.9734,10.9267,10.9165,10.8175,10.7661,10.752,10.6539,10.6081,10.5987,10.5006,10.4585,10.4585,10.4585,10.4585,10.4585,10.4585,10.4585,10.4585,10.4585,10.4585,10.4585,10.4585,10.4585,10.4585,10.4585,10.4585,10.4585,10.4585,10.4585,10.4585,10.4585,10.4585,10.4585,10.4585,10.4585,10.4585,10.4585,10.4585,10.4585,10.4585,10.4585,10.4585,10.4585,10.4585,10.4585,10.4585,10.4585,10.4585,10.4585,10.4585,10.4585,10.4585,10.4585,10.4585,10.4585,10.4632,10.5053,10.6071,10.71,10.7661,10.7661,10.7661,10.7661,10.7661,10.7661,10.7661,10.7661,10.6632,10.6165,10.6211,10.6211,10.6726,6.9249,6.8642,6.7883,6.6851,6.6585,6.6433,6.5763,0.0,0.0,0.0,6.5664,0.0,0.0,0.0,6.6439,6.8106,0.0,7.1261,7.3707,7.6529,7.9694,8.3264,8.8303,9.2421,9.4791,9.6802,9.8486,9.9573,10.1104,10.232,10.3198,10.551,10.6959,10.724,10.9259,11.038,11.038,11.066,11.0801,11.0801,11.052,10.9586,10.8128,10.7801,10.6866,10.5427,10.5099,10.5006,10.4959,10.4679,10.4585,10.4585,10.4585,10.4585,10.4585,10.4585,10.4585,10.4585,10.4585,10.4585,10.4585,10.4585,10.4585,10.4585,10.4585,10.4585,10.4585,10.4585,10.4585,10.4585,10.4585,10.4585,10.4585,10.4585,10.4585,10.4585,10.4585,10.4585,10.4585,10.4585,10.4585,10.4585,10.4585,10.4585,10.4585,10.4585,10.4585,10.4585,10.4585,10.4585,10.4585,10.4585,10.4585,10.4585,10.4585,10.5286,10.58,10.6118,10.71,10.7661,10.7661,10.7661,10.7661,10.7661,10.7661,10.7661,10.7661,10.6632,10.6539,10.7287,10.7287,10.7427,6.6889,6.6288,6.5826,6.5332,6.5218,6.518,6.4966,0.0,6.5042,6.5415,0.0,0.0,0.0,0.0,0.0,0.0,7.4378,7.7202,7.8504,8.2332,8.5981,8.8482,9.2457,9.56,9.727,9.9047,10.0496,10.1338,10.2543,10.3583,10.4425,10.6492,10.7894,10.8362,10.996,11.0801,11.0801,11.0801,11.0801,11.0801,11.038,10.9492,10.8277,10.7427,10.6361,10.5193,10.4772,10.4585,10.4585,10.4585,10.4585,10.4585,10.4585,10.4585,10.4585,10.4585,10.4585,10.4585,10.4585,10.4585,10.4585,10.4585,10.4585,10.4585,10.4585,10.4585,10.4585,10.4585,10.4585,10.4585,10.4585,10.4585,10.4585,10.4585,10.4585,10.4585,10.4585,10.4585,10.4585,10.4585,10.4585,10.4585,10.4585,10.4585,10.4585,10.4585,10.4585,10.4585,10.4585,10.4585,10.4585,10.4585,10.4585,10.4772,10.5193,10.5754,10.6501,10.7389,10.7997,10.8549,10.8969,10.9016,10.9016,10.9016,10.9016,10.9016,10.9016,10.795,10.795,10.9016,10.8549,10.8595,6.404,6.363,6.363,6.3744,6.3744,6.4063,6.5281,0.0,6.5894,6.711,0.0,6.8713,6.8681,0.0,0.0,7.3014,7.934,8.3286,7.9856,8.6579,9.3215,9.6929,9.8298,9.9246,10.0181,10.0403,10.1291,10.3209,10.3479,10.4331,10.6071,10.724,10.8315,10.922,11.0287,11.0801,11.0801,11.0801,11.0801,11.0801,10.9866,10.9399,10.9174,10.7343,10.6445,10.6258,10.5193,10.4772,10.4772,10.4632,10.4585,10.4585,10.4726,10.4772,10.4726,10.4632,10.4622,10.4731,10.4731,10.4768,10.4841,10.4731,10.4731,10.4695,10.4622,10.4585,10.4585,10.4585,10.4585,10.4585,10.4585,10.4585,10.4585,10.4585,10.4585,10.4585,10.4585,10.4585,10.4585,10.4585,10.4585,10.4585,10.4585,10.4585,10.4585,10.4585,10.4585,10.4585,10.4585,10.4585,10.4585,10.4585,10.4679,10.5099,10.6071,10.6314,10.7249,10.9127,10.9399,10.9828,11.0754,11.0801,11.0801,11.0801,11.0801,11.0801,11.0801,10.9734,10.9773,11.0801,10.9866,10.9913,6.293,6.2816,6.2939,6.3622,6.3744,6.4729,0.0,0.0,0.0,7.3173,7.527,7.6474,7.6284,7.902,8.1869,8.3416,8.5782,8.7911,8.9334,9.46,9.8591,9.9421,10.045,10.1151,10.1338,10.2133,10.3115,10.4212,10.5089,10.5744,10.6118,10.7903,10.9025,10.922,11.0287,11.0801,11.0801,11.0801,11.0801,11.0801,11.0614,11.0053,10.922,10.8838,10.8184,10.7333,10.6305,10.5837,10.5754,10.4913,10.4585,10.4679,10.552,10.5837,10.5707,10.4866,10.4987,10.5485,10.5485,10.5932,10.6377,10.575,10.5485,10.5376,10.4768,10.4585,10.4585,10.4585,10.4585,10.4585,10.4585,10.4585,10.4585,10.4585,10.4585,10.4585,10.4585,10.4585,10.4585,10.4585,10.4585,10.4585,10.4585,10.4585,10.4585,10.4585,10.4585,10.4585,10.4585,10.4585,10.4585,10.4585,10.5333,10.5931,10.6118,10.767,10.8838,10.9259,11.0053,11.0614,11.0801,11.0801,11.0801,11.0801,11.0801,11.0801,11.0801,10.9734,10.9773,11.0801,11.0614,11.0614,6.0888,6.0964,6.1609,6.2863,6.3167,0.0,0.0,6.8601,7.0081,7.4095,7.6869,7.8938,8.0305,8.416,8.748,8.8827,9.1048,9.3618,9.6599,9.9281,10.1104,10.1619,10.2133,10.2601,10.3079,10.3593,10.4295,10.5286,10.6352,10.7146,10.767,10.8698,10.9454,11.0006,11.052,11.0801,11.0801,11.0801,11.0801,11.0801,11.0801,11.052,11.0006,10.9454,10.8978,10.8417,10.738,10.6913,10.6866,10.6352,10.6424,10.684,10.7395,10.7853,10.8082,10.7005,10.6871,10.7115,10.6556,10.6546,10.6847,10.6438,10.6076,10.5667,10.5314,10.4914,10.4585,10.4585,10.4585,10.4585,10.4585,10.4585,10.4585,10.4585,10.4585,10.4585,10.4585,10.4585,10.4585,10.4585,10.4585,10.4585,10.4585,10.4585,10.4585,10.4585,10.4585,10.4585,10.4585,10.4585,10.4585,10.4585,10.552,10.6352,10.6866,10.8324,10.9454,11.0006,11.052,11.0801,11.0801,11.0801,11.0801,11.0801,11.0801,11.0801,11.0801,11.0287,11.0287,11.0801,11.0801,11.0801,5.9075,5.9454,6.066,6.2208,6.2816,0.0,6.7591,6.8984,7.1071,7.6401,7.9567,8.2093,8.4507,8.9294,9.2895,9.2771,9.563,9.8847,10.1572,10.1946,10.232,10.3349,10.3489,10.3734,10.4492,10.4585,10.5006,10.6071,10.6913,10.7941,10.9212,10.9445,10.996,11.0754,11.0801,11.0801,11.0801,11.0801,11.0801,11.0801,11.0801,11.0801,11.0754,10.996,10.9547,10.9492,10.8417,10.7988,10.7988,10.7754,10.8543,10.9858,10.9621,10.9984,11.0352,10.9108,10.8703,10.8668,10.7506,10.7243,10.7351,10.7207,10.6691,10.6185,10.604,10.5532,10.4987,10.4841,10.4695,10.4585,10.4585,10.4585,10.4585,10.4585,10.4585,10.4585,10.4585,10.4585,10.4585,10.4585,10.4585,10.4585,10.4585,10.4585,10.4585,10.4585,10.4585,10.4585,10.4585,10.4585,10.4679,10.4866,10.58,10.6866,10.7894,10.8931,10.9874,11.0754,11.0801,11.0801,11.0801,11.0801,11.0801,11.0801,11.0801,11.0801,11.0801,11.0801,11.0801,11.0801,11.0801,11.0801,5.8771,5.9844,6.1352,6.2331,6.363,0.0,7.4242,7.6577,7.9375,8.7301,9.0664,9.2238,9.2612,9.6206,9.883,9.7945,9.9633,10.1572,10.287,10.3058,10.3396,10.4341,10.4398,10.4445,10.4585,10.4585,10.5006,10.6071,10.6258,10.7156,10.9127,11.0108,11.066,11.0801,11.0801,11.0801,11.0801,11.0801,11.0801,11.0801,11.0801,11.0801,11.0801,11.066,11.0614,11.0567,10.9539,10.9034,10.8987,10.8081,10.9729,11.2754,11.1827,11.152,11.1356,10.9395,10.8994,10.9359,10.8298,10.8426,10.8889,10.8175,10.7889,10.771,10.6991,10.6738,10.6522,10.5823,10.5132,10.4585,10.4585,10.4585,10.4585,10.4585,10.4585,10.4585,10.4585,10.4585,10.4585,10.4585,10.4585,10.4585,10.4585,10.4585,10.4585,10.4585,10.4585,10.4585,10.4585,10.4585,10.4913,10.5847,10.6913,10.7941,10.9025,11.0053,11.066,11.0801,11.0801,11.0801,11.0801,11.0801,11.0801,11.0801,11.0801,11.0801,11.0801,11.0801,11.0801,11.0801,11.0801,11.0801,5.8001,5.9254,6.0973,6.2825,0.0,0.0,7.398,7.698,8.0424,8.7781,9.1389,9.3915,9.6184,9.8532,10.0134,10.0356,10.2051,10.35,10.3967,10.4014,10.4154,10.4539,10.4585,10.4585,10.4585,10.4585,10.524,10.6913,10.7053,10.795,11.0053,11.0567,11.0801,11.0801,11.0801,11.0801,11.0801,11.0801,11.1033,11.1496,11.1496,11.1766,11.2265,11.2265,11.2265,11.2265,11.1839,11.165,11.1602,11.1129,11.2183,11.3916,11.2857,11.2734,11.2855,11.0726,11.0048,11.0155,10.9122,10.8996,10.9209,10.8889,10.8461,10.8032,10.771,10.7279,10.6774,10.592,10.5485,10.5169,10.4695,10.4585,10.4585,10.4585,10.4585,10.4585,10.4585,10.4585,10.4585,10.4585,10.4585,10.4585,10.4585,10.4585,10.4585,10.4585,10.4585,10.4585,10.4585,10.4585,10.4959,10.5987,10.7053,10.8128,10.9127,11.0193,11.0801,11.0801,11.0801,11.0801,11.0801,11.0801,11.0801,11.0801,11.0801,11.0801,11.0801,11.0801,11.0801,11.0801,11.0801,11.0801,5.78,0.0,0.0,0.0,0.0,0.0,7.4836,7.8144,8.1704,8.8058,9.2001,9.501,9.7278,9.9516,10.1291,10.232,10.3687,10.4585,10.4585,10.4585,10.4585,10.4585,10.4585,10.4585,10.4585,10.4585,10.5427,10.752,10.7661,10.8595,11.066,11.0801,11.0878,11.111,11.1149,11.1264,11.1496,11.1496,11.1804,11.2342,11.2342,11.2687,11.3346,11.3346,11.3346,11.3346,11.3346,11.3565,11.3946,11.3946,11.4277,11.47,11.3693,11.3604,11.3831,11.1599,11.077,11.0624,10.9586,10.9245,10.9245,10.9245,10.8889,10.8426,10.8426,10.8032,10.7423,10.6619,10.6257,10.5895,10.5132,10.4731,10.4585,10.4585,10.4585,10.4585,10.4585,10.4585,10.4585,10.4585,10.4585,10.4585,10.4585,10.4585,10.4585,10.4585,10.4585,10.4585,10.4585,10.4819,10.5417,10.6408,10.752,10.8511,10.9632,11.038,11.0801,11.0801,11.0801,11.0801,11.0801,11.0801,11.0801,11.0801,11.0801,11.0801,11.0801,11.0801,11.0801,11.0801,11.0801,11.0801,0.0,0.0,0.0,6.4473,6.6857,7.0924,7.932,8.2587,8.5398,9.1062,9.5529,9.781,9.5867,9.9693,10.3443,10.4352,10.4539,10.4585,10.4585,10.4585,10.4585,10.4585,10.4585,10.4585,10.4585,10.4585,10.5427,10.752,10.7661,10.8595,11.066,11.0801,11.1149,11.1919,11.1911,11.238,11.327,11.327,11.327,11.3308,11.3308,11.3308,11.3346,11.3346,11.3346,11.3346,11.3346,11.4212,11.555,11.555,11.5637,11.549,11.4477,11.4087,11.3831,11.1599,11.077,11.0624,10.9586,10.9245,10.9245,10.9245,10.9245,10.9209,10.9209,10.9209,10.9032,10.8247,10.7459,10.6702,10.5932,10.5169,10.4585,10.4585,10.4585,10.4585,10.4585,10.4585,10.4585,10.4585,10.4585,10.4585,10.4585,10.4585,10.4585,10.4585,10.4585,10.4585,10.4585,10.5427,10.6492,10.752,10.8558,10.9594,11.066,11.0801,11.0801,11.0801,11.0801,11.0801,11.0801,11.0801,11.0801,11.0801,11.0801,11.0801,11.0801,11.0801,11.0801,11.0801,11.0801,11.0801,5.8495,6.0973,6.3888,6.606,6.8946,7.3337,8.1312,8.4939,8.7761,9.1549,9.6193,9.8945,9.6865,10.0676,10.4248,10.4539,10.4585,10.4585,10.4585,10.4585,10.4585,10.4585,10.4585,10.4585,10.4585,10.4585,10.5427,10.752,10.827,10.9427,11.147,11.215,11.261,11.284,11.2878,11.2993,11.3346,11.3346,11.3565,11.4088,11.4088,11.4353,11.4883,11.4883,11.4883,11.4883,11.4883,11.5185,11.5625,11.5625,11.5625,11.5528,11.4514,11.4124,11.3929,11.2465,11.1489,11.0721,11.038,10.983,10.9245,10.9245,10.9245,10.9245,10.9245,10.9245,10.9103,10.8318,10.7889,10.7339,10.6065,10.5522,10.5195,10.4695,10.4585,10.4585,10.4585,10.4585,10.4585,10.4585,10.4585,10.4585,10.4585,10.4585,10.4585,10.4585,10.4585,10.4585,10.4585,10.5473,10.6539,10.7567,10.8604,10.9679,11.0707,11.0801,11.0801,11.0801,11.0801,11.0801,11.0801,11.0801,11.0801,11.0801,11.0801,11.0801,11.0801,11.0801,11.0801,11.0801,11.0801,11.0801,6.0024,6.2559,6.5332,6.8142,7.0882,7.4774,8.1766,8.577,8.8425,8.9744,9.5684,9.9645,9.6351,10.0596,10.4585,10.4585,10.4585,10.4585,10.4585,10.4585,10.4585,10.4585,10.4585,10.4585,10.4585,10.4585,10.5574,10.8017,10.8719,11.004,11.2315,11.2993,11.3346,11.3346,11.3603,11.3756,11.3756,11.4022,11.4391,11.4872,11.4872,11.5185,11.5625,11.5625,11.5625,11.5625,11.5625,11.5625,11.5625,11.5625,11.5625,11.5528,11.4514,11.4124,11.3978,11.2941,11.2026,11.144,11.144,11.0709,10.983,10.983,10.9538,10.9245,10.9245,10.9245,10.9174,10.864,10.8318,10.7853,10.6835,10.6366,10.5968,10.5205,10.5023,10.495,10.4658,10.4585,10.4585,10.4585,10.4585,10.4585,10.4585,10.4585,10.4585,10.4585,10.4585,10.4585,10.4585,10.5837,10.6959,10.7614,10.8931,11.01,11.0754,11.0801,11.0801,11.0801,11.0801,11.0801,11.0801,11.0801,11.0801,11.0801,11.0801,11.0801,11.0801,11.0801,11.0801,11.0801,11.0801,11.0801,6.2833,6.5066,6.7225,7.0569,7.259,7.5296,8.0987,8.5317,8.7698,8.626,9.4323,10.0041,9.4563,9.9601,10.4585,10.4585,10.4585,10.4585,10.4585,10.4585,10.4585,10.4585,10.4585,10.4622,10.4622,10.4658,10.5868,10.8876,10.913,11.0416,11.3241,11.3413,11.3413,11.3413,11.4164,11.4532,11.4532,11.5298,11.5625,11.5625,11.5625,11.5625,11.5625,11.5625,11.5625,11.5625,11.5625,11.5625,11.5625,11.5625,11.5625,11.5528,11.4563,11.4173,11.4075,11.3087,11.2697,11.2648,11.2648,11.1831,11.0868,11.0868,11.0172,10.9294,10.9294,10.9294,10.9245,10.9209,10.8675,10.8104,10.8032,10.7494,10.6738,10.5968,10.5739,10.5522,10.4768,10.4585,10.4585,10.4585,10.4585,10.4585,10.4585,10.4585,10.4585,10.4585,10.4585,10.4585,10.4679,10.6445,10.7707,10.7754,10.9624,11.0801,11.0801,11.0801,11.0801,11.0801,11.0801,11.0801,11.0801,11.0801,11.0801,11.0801,11.0801,11.0801,11.0801,11.0801,11.0801,11.0801,11.0801,11.0801,6.2643,6.5908,6.8794,7.1527,7.3881,7.687,8.1954,8.6122,8.8347,8.6344,9.4323,10.0188,9.5429,10.0058,10.4585,10.4585,10.4585,10.4585,10.4585,10.4585,10.4585,10.4585,10.4585,10.4841,10.5376,10.546,10.6674,10.9546,11.0393,11.1788,11.4105,11.4732,11.5072,11.5072,11.526,11.5373,11.5373,11.555,11.5625,11.5625,11.5625,11.5625,11.5625,11.5625,11.5625,11.5625,11.5625,11.5625,11.5625,11.5625,11.5625,11.5625,11.5381,11.5284,11.5235,11.4942,11.4405,11.3685,11.3685,11.3002,11.2075,11.2075,11.1343,11.038,11.038,10.9879,10.9138,10.8568,10.8247,10.7961,10.7351,10.7063,10.6738,10.5968,10.5739,10.5522,10.4768,10.4585,10.4585,10.4585,10.4585,10.4585,10.4585,10.4585,10.4585,10.4585,10.4585,10.4866,10.565,10.6866,10.7988,10.8745,11.0006,11.0801,11.0801,11.0801,11.0801,11.0801,11.0801,11.0801,11.0801,11.0801,11.0801,11.0801,11.0801,11.0801,11.0801,11.0801,11.0801,11.0801,11.0801,11.0801,6.2909,6.7009,7.1034,7.3501,7.5741,7.8482,8.2919,8.6997,8.923,8.6914,9.3715,9.9467,9.7369,10.1168,10.4585,10.4585,10.4585,10.4585,10.4585,10.4585,10.4585,10.4585,10.4585,10.4768,10.5205,10.5569,10.6966,10.9879,11.0911,11.2456,11.4851,11.54,11.5625,11.5625,11.5625,11.5625,11.5625,11.5625,11.5625,11.5625,11.5625,11.5625,11.5625,11.5625,11.5625,11.5625,11.5625,11.5625,11.5625,11.5625,11.5625,11.5625,11.5625,11.5625,11.5625,11.5625,11.5284,11.4758,11.4758,11.4075,11.3197,11.3197,11.2465,11.1587,11.1587,11.0806,10.9821,10.9391,10.8944,10.8426,10.7638,10.7423,10.7123,10.604,10.5739,10.5522,10.4768,10.4585,10.4585,10.4585,10.4585,10.4585,10.4585,10.4585,10.4585,10.4585,10.4959,10.5473,10.6071,10.7436,10.8604,10.9174,11.0193,11.0801,11.0801,11.0801,11.0801,11.0801,11.0801,11.0801,11.0801,11.0801,11.0801,11.0801,11.0801,11.0801,11.0801,11.0801,11.0801,11.0801,11.0801,11.0801,6.3289,6.7807,7.2666,7.5514,7.7375,7.9523,8.3125,8.7157,8.9543,8.7567,9.346,9.9058,9.9041,10.2104,10.4585,10.4585,10.4585,10.4585,10.4585,10.4585,10.4585,10.4585,10.4585,10.4622,10.4731,10.546,10.7148,11.0139,11.1095,11.2667,11.5295,11.543,11.543,11.543,11.543,11.5528,11.5625,11.5625,11.5625,11.5625,11.5625,11.5625,11.5625,11.5625,11.5625,11.5625,11.5625,11.5625,11.5625,11.5625,11.5625,11.5625,11.5625,11.5625,11.5625,11.5625,11.5625,11.5625,11.5625,11.5088,11.4319,11.4319,11.3587,11.2746,11.2746,11.1928,11.1014,11.0906,11.0054,10.9012,10.8333,10.7985,10.7411,10.6076,10.5903,10.5753,10.4965,10.4772,10.4772,10.4585,10.4585,10.4632,10.4772,10.4913,10.5006,10.5006,10.5791,10.6398,10.6501,10.8137,10.9305,10.9445,11.0287,11.0801,11.0801,11.0801,11.0801,11.0801,11.0801,11.0801,11.0801,11.0801,11.0801,11.0801,11.0801,11.0801,11.0801,11.0801,11.0801,11.0801,11.0801,11.0801,6.3289,6.6516,7.054,7.5058,7.6994,7.8281,8.0366,8.3926,8.6905,8.7342,9.5964,10.1875,9.6683,10.0528,10.4585,10.4585,10.4585,10.4585,10.4585,10.4585,10.4585,10.4585,10.4585,10.4841,10.5449,10.6257,10.796,11.0987,11.1916,11.294,11.4319,11.4368,11.4368,11.4368,11.4368,11.4758,11.5625,11.5625,11.5625,11.5625,11.5625,11.5625,11.5625,11.5625,11.5625,11.5625,11.5625,11.5625,11.5625,11.5625,11.5625,11.5625,11.5625,11.5625,11.5625,11.5625,11.5625,11.5625,11.5625,11.5528,11.5381,11.5381,11.4698,11.3831,11.3831,11.3099,11.2148,11.1478,11.0082,10.8754,10.8609,10.7394,10.6065,10.5775,10.6548,10.7099,10.6071,10.5847,10.5613,10.4772,10.4585,10.4866,10.5744,10.6585,10.7146,10.7146,10.7287,10.7754,10.8604,10.9025,10.9586,11.0427,11.0707,11.0801,11.0801,11.0801,11.0801,11.0801,11.0801,11.0801,11.0801,11.0801,11.0801,11.0801,11.0801,11.0801,11.0801,11.0801,11.0801,11.0801,11.0801,11.0801,6.4997,6.7503,7.0279,7.396,7.654,7.8919,8.1749,8.5964,8.9424,8.9913,9.5041,9.9594,9.9856,10.2473,10.4585,10.4585,10.4585,10.4585,10.4585,10.4585,10.4585,10.4585,10.4585,10.4731,10.5132,10.6185,10.7757,10.9801,11.0969,11.2124,11.3197,11.3295,11.3539,11.4075,11.4124,11.4612,11.5625,11.5625,11.5625,11.5625,11.5625,11.5625,11.5625,11.5625,11.5625,11.5625,11.5625,11.5625,11.5625,11.5625,11.5625,11.5625,11.5625,11.5625,11.5625,11.5625,11.5625,11.5625,11.5625,11.5625,11.5625,11.5625,11.5333,11.4942,11.4942,11.4173,11.3306,11.2889,11.1449,10.9847,10.9491,10.8362,10.7246,10.6877,10.722,10.7567,10.7053,10.6959,10.6819,10.6305,10.6211,10.6352,10.6866,10.738,10.7661,10.7661,10.8175,10.8698,10.9212,10.9688,11.024,11.0754,11.0801,11.0801,11.0801,11.0801,11.0801,11.0801,11.0801,11.0801,11.0801,11.0801,11.0801,11.0801,11.0801,11.0801,11.0801,11.0801,11.0801,11.0801,11.0801,11.0801,6.6357,6.8452,7.0279,7.2628,7.5668,7.9143,8.2752,8.7595,9.1084,9.0372,9.2664,9.6189,10.0647,10.2584,10.355,10.355,10.41,10.4585,10.4585,10.4585,10.4585,10.4585,10.4585,10.4585,10.4585,10.5968,10.7385,10.8582,10.9975,11.1197,11.2124,11.216,11.2697,11.3734,11.3782,11.4405,11.5625,11.5625,11.5625,11.5625,11.5625,11.5625,11.5625,11.5625,11.5625,11.5625,11.5625,11.5625,11.5625,11.5625,11.5625,11.5625,11.5625,11.5625,11.5625,11.5625,11.5625,11.5625,11.5625,11.5625,11.5625,11.5625,11.5625,11.5625,11.5625,11.5088,11.4417,11.4417,11.2932,11.1173,11.0591,10.9506,10.8561,10.8382,10.8362,10.8315,10.8081,10.8035,10.7941,10.7707,10.7661,10.7754,10.7988,10.8035,10.8128,10.8315,10.9025,10.9547,10.9547,11.0287,11.0801,11.0801,11.0801,11.0801,11.0801,11.0801,11.0801,11.0801,11.0801,11.0801,11.0801,11.0801,11.0452,10.9707,11.0406,11.0801,11.0801,11.0801,11.0801,11.0801,11.0801,11.0801,6.5705,6.7649,6.9325,7.1105,7.3995,7.7143,7.9875,8.4333,8.7046,8.3976,8.9454,9.4123,9.1766,9.6151,10.0155,10.0155,10.2658,10.4585,10.4585,10.4585,10.4585,10.4585,10.4585,10.4585,10.4585,10.5968,10.7385,10.8582,10.9975,11.0819,11.0965,11.0965,11.1489,11.2648,11.2697,11.3624,11.5625,11.5625,11.5625,11.5625,11.5625,11.5625,11.5625,11.5625,11.5625,11.5625,11.5625,11.5625,11.5625,11.5625,11.5625,11.5625,11.5625,11.5625,11.5625,11.5625,11.5625,11.5625,11.5625,11.5625,11.5625,11.5625,11.5625,11.5625,11.5625,11.5577,11.5528,11.5528,11.3699,11.1681,11.1643,10.9728,10.825,11.0091,11.052,11.024,10.9305,10.9118,10.8838,10.7848,10.7661,10.7988,10.8931,10.9118,10.9407,11.038,11.0614,11.066,11.066,11.0754,11.0801,11.0801,11.0801,11.0801,11.0801,11.0801,11.0801,11.0801,11.0801,11.0801,11.0801,11.0801,10.9271,10.6117,10.9154,11.0801,11.0801,11.0801,11.0801,11.0801,11.0801,11.0801,6.5629,6.7535,6.9244,7.0915,7.3802,7.6615,7.8171,8.0434,8.2837,8.501,9.0041,9.3791,9.3075,9.8279,10.203,10.0005,10.2473,10.4585,10.4585,10.4585,10.4585,10.4585,10.4585,10.4585,10.4585,10.5968,10.711,10.7564,10.8588,10.9378,10.9843,10.9414,11.0191,11.2502,11.255,11.3527,11.5625,11.5625,11.5625,11.5625,11.5625,11.5625,11.5625,11.5625,11.5625,11.5625,11.5625,11.5625,11.5625,11.5625,11.5625,11.5625,11.5625,11.5625,11.5625,11.5625,11.5625,11.5625,11.5625,11.5625,11.5625,11.5625,11.5625,11.5625,11.5625,11.5625,11.5625,11.5625,11.4543,11.3311,11.2867,11.1508,11.0338,11.073,11.0801,11.0707,11.0287,11.0193,11.0053,10.9671,10.9539,10.9679,11.01,11.0193,11.0333,11.0754,11.0801,11.0801,11.0801,11.0801,11.0801,11.0801,11.0801,11.0801,11.0801,11.0801,10.9901,10.7778,10.9629,10.892,10.4768,10.4609,10.4883,10.5518,10.6907,10.8686,11.0801,10.8686,10.766,10.766,10.766,10.6552,6.499,6.6965,6.8756,7.0232,7.3046,7.5779,7.688,7.7945,7.9946,8.4373,8.8131,9.0805,9.1464,9.7116,10.0945,9.8655,10.1799,10.4585,10.4585,10.4585,10.4585,10.4585,10.4585,10.4585,10.4585,10.5786,10.6666,10.6883,10.7638,10.8426,10.9209,10.8747,10.9682,11.2502,11.255,11.3527,11.5625,11.5625,11.5625,11.5625,11.5625,11.5625,11.5625,11.5625,11.5625,11.5625,11.5625,11.5625,11.5625,11.5625,11.5625,11.5625,11.5625,11.5625,11.5625,11.5625,11.5625,11.5625,11.5625,11.5625,11.5625,11.5625,11.5625,11.5637,11.5411,11.5287,11.5298,11.5034,11.4391,11.3632,11.3069,11.2457,11.1757,11.0994,11.0801,11.0801,11.0801,11.0801,11.0801,11.0801,11.0801,11.0801,11.0801,11.0801,11.0801,11.0801,11.0801,11.0801,11.0801,11.0801,11.0801,11.0801,10.9862,10.9232,10.9232,10.8334,10.6671,10.4206,10.6355,10.4604,9.7682,9.9402,10.115,10.2439,10.3526,10.5285,10.7739,10.5241,10.4046,10.4046,10.4046,10.2804,6.3584,6.5567,6.7693,6.8604,7.1266,7.415,7.5855,7.7489,7.9006,7.9955,8.2122,8.391,8.3871,8.9948,9.4929,9.4929,10.0341,10.4585,10.4585,10.4585,10.4585,10.4585,10.4585,10.4585,10.4585,10.5267,10.6076,10.6847,10.7638,10.8426,10.9209,10.9245,11.0221,11.2453,11.255,11.3527,11.5625,11.5625,11.5625,11.5625,11.5625,11.5625,11.5625,11.5625,11.5625,11.5625,11.5625,11.5625,11.5625,11.5625,11.5625,11.5625,11.5625,11.5625,11.5625,11.5625,11.5625,11.5625,11.5625,11.5625,11.5625,11.5625,11.5625,11.5561,11.4721,11.4542,11.4353,11.3565,11.2687,11.1949,11.1949,11.1949,11.1757,11.0994,11.0801,11.0801,11.0801,11.0801,11.0801,11.0801,11.0801,11.0801,11.0801,11.0801,11.0801,11.0801,11.0801,11.0801,11.0801,11.0801,11.0801,11.0801,10.77,10.5598,10.5598,10.2523,10.0583,10.0583,10.0583,9.7435,9.0361,9.6775,9.8871,9.545,9.8789,10.0583,10.0583,10.0583,10.0542,10.0542,10.0542,10.0542,6.3546,6.518,6.7003,6.8414,7.0844,7.3008,7.3539,7.4982,7.6729,7.8741,8.0297,8.1741,8.345,9.1271,9.6813,9.515,10.0304,10.4585,10.4585,10.4585,10.4585,10.4585,10.4585,10.4585,10.4585,10.5314,10.6397,10.7994,10.7787,10.8438,11.0484,11.0094,11.0684,11.2724,11.3317,11.4296,11.5625,11.5625,11.5625,11.5625,11.5625,11.5625,11.5625,11.5625,11.5625,11.5625,11.5625,11.5625,11.5625,11.5625,11.5625,11.5625,11.5625,11.5625,11.5625,11.5625,11.5625,11.5625,11.5625,11.5625,11.5625,11.5625,11.5625,11.5475,11.4683,11.4505,11.4353,11.3527,11.3117,11.261,11.1457,11.1187,11.111,11.0878,11.0801,11.0801,11.0801,11.0801,11.0801,11.0801,11.0801,11.0801,11.0801,11.024,10.9734,10.9734,10.9118,10.8689,10.8689,10.9305,10.8842,10.6381,10.369,10.212,10.212,10.111,9.9484,9.7064,9.4659,9.2309,9.0102,9.2141,9.3908,9.5242,9.6321,9.8093,10.0501,9.8093,9.6899,9.6899,9.6899,9.5616,6.3167,6.4762,6.6541,6.7573,6.951,7.1186,7.1489,7.3384,7.5549,7.7375,7.8741,8.0259,8.2424,8.9385,9.4305,9.2767,9.824,10.2731,10.2731,10.3807,10.4585,10.4585,10.4913,10.5006,10.4632,10.5727,10.6953,10.8033,10.823,10.9011,11.0689,11.0541,11.1217,11.2884,11.3406,11.4302,11.5625,11.5625,11.5625,11.5625,11.5625,11.5625,11.5625,11.5625,11.5625,11.5625,11.5625,11.5625,11.5625,11.5625,11.5625,11.5625,11.5625,11.5625,11.5625,11.5625,11.5625,11.5625,11.5625,11.5625,11.5588,11.5287,11.5174,11.4985,11.3898,11.3555,11.3365,11.2572,11.2342,11.2112,11.1071,11.0801,11.0801,11.0801,11.0801,11.0801,11.0801,11.0801,11.0801,11.0801,11.0801,11.0801,11.0801,10.996,10.922,10.922,10.8324,10.7661,10.7661,10.7161,10.646,10.5492,10.1885,9.8997,9.7664,9.6653,9.5172,9.2972,9.075,8.9523,8.9523,8.9827,9.1039,9.3236,9.3278,9.4326,9.6528,9.4326,9.3278,9.3278,9.3278,9.2098,6.2588,6.4375,6.6199,6.6243,6.7497,6.8908,6.971,7.24,7.5018,7.5931,7.7375,7.9045,8.0753,8.5132,8.8558,8.891,9.4742,9.928,9.9369,10.1947,10.4,10.4313,10.5225,10.5532,10.4866,10.6585,10.7623,10.7509,10.9112,11.0139,11.0261,11.0929,11.1855,11.298,11.3066,11.3876,11.5625,11.5625,11.5625,11.5625,11.5625,11.5625,11.5625,11.5625,11.5625,11.5625,11.5625,11.5625,11.5625,11.5625,11.5625,11.5625,11.5625,11.5625,11.5625,11.5625,11.5625,11.5625,11.5637,11.5637,11.5561,11.4694,11.4467,11.4201,11.2448,11.1949,11.1842,11.1033,11.0801,11.0762,11.0491,11.0607,11.0762,11.0491,11.0646,11.0801,11.0801,11.0801,11.0801,11.0801,11.0801,11.0754,11.0707,10.9819,10.9118,10.9034,10.7948,10.7089,10.7089,10.4318,10.3446,10.6202,10.1138,9.6153,9.2667,9.0145,8.873,8.8654,8.8692,8.8768,8.8844,8.9523,8.9941,9.0016,9.0016,9.0016,9.0016,9.0016,9.0016,9.0016,9.0016,9.0016,6.2588,6.3888,6.5415,6.6091,6.7041,6.7996,6.887,7.0725,7.2811,7.4866,7.6083,7.7299,7.9007,8.3251,8.7789,9.1611,9.3734,9.5177,9.5913,9.6646,9.8354,10.1683,10.2255,10.3605,10.6689,10.738,10.8233,10.954,11.0049,11.0995,11.2458,11.2733,11.3245,11.408,11.4118,11.464,11.5625,11.5625,11.5625,11.5625,11.5625,11.5625,11.5625,11.5625,11.5625,11.5625,11.5625,11.5625,11.5625,11.5625,11.5625,11.5625,11.5625,11.5625,11.5625,11.5625,11.5625,11.5599,11.4948,11.5136,11.5448,11.406,11.3974,11.4201,11.2448,11.1949,11.1842,11.1033,11.0801,11.0173,10.7503,10.8803,11.0095,10.7425,10.8842,11.0801,11.0801,11.0801,11.0801,11.0801,11.0801,11.0567,10.9773,10.8745,10.7801,10.6969,10.3885,10.1585,10.1585,9.944,9.7174,9.526,9.4425,9.2546,8.8997,8.8156,8.7507,8.6941,8.7431,8.8118,8.8806,8.9033,8.9413,8.9979,9.0016,9.0016,9.0016,9.0016,9.0016,9.0016,9.0016,9.0016,6.2588,6.3744,6.5042,6.5529,6.6554,6.7579,6.8072,6.9814,7.1827,7.3536,7.4792,7.6159,7.7869,8.0614,8.3738,8.7228,8.9721,9.2116,9.4533,9.6151,9.8138,10.09,10.2994,10.4516,10.5216,10.6169,10.6873,10.7426,10.8311,10.909,10.9731,11.2026,11.3489,11.3984,11.4315,11.4834,11.5625,11.5625,11.5625,11.5625,11.5625,11.5625,11.5625,11.5625,11.5625,11.5625,11.5625,11.4797,11.3336,11.3336,11.242,11.1145,11.2344,11.2802,11.3003,11.4532,11.5098,11.5072,11.4656,11.4542,11.4401,11.3108,11.3031,11.3098,11.1795,11.1457,11.1342,11.0917,10.9629,10.7935,10.6033,10.6946,10.7896,10.5994,10.8209,11.0801,11.0801,11.0801,11.0801,11.0801,11.0801,11.0474,10.9407,10.8371,10.7333,10.6305,10.2519,9.9706,9.9706,9.6045,9.3325,9.2934,9.062,8.9013,8.865,8.7191,8.6293,8.6296,8.6293,8.6751,8.7625,8.8004,8.8612,8.9489,8.9447,8.9637,9.0016,9.0016,9.0016,9.0016,9.0016,9.0016,6.274,6.382,6.4928,6.4928,6.6136,6.7275,6.7275,6.9168,7.1181,7.1945,7.3463,7.5169,7.6879,7.8234,7.9451,8.0677,8.4856,8.94,9.336,9.5951,9.822,10.0278,10.3384,10.4705,10.3092,10.4065,10.4608,10.428,10.5427,10.5994,10.5756,10.9971,11.2649,11.3308,11.3936,11.4343,11.4532,11.4532,11.4759,11.5298,11.5298,11.5373,11.5486,11.5486,11.5486,11.5475,11.5588,11.3991,11.1184,11.0597,10.869,10.6259,10.7838,10.8424,10.8775,11.1654,11.2688,11.2688,11.2688,11.263,11.2333,11.1333,11.141,11.1795,11.1033,11.0801,11.0685,11.0134,10.8209,10.6117,10.5042,10.5161,10.5399,10.4883,10.7464,11.0134,11.0685,11.0801,11.0801,11.0801,11.066,11.024,10.9212,10.7712,10.6491,10.5997,10.1525,9.843,9.8919,9.3275,9.0282,9.3043,8.8316,8.613,8.8987,8.657,8.5271,8.603,8.5385,8.5309,8.6068,8.6862,8.7697,8.8616,8.8616,8.8915,8.9637,8.9751,8.9827,8.9827,8.9941,9.0016,6.3395,6.4238,6.4928,6.4928,6.5681,6.6433,6.6433,6.7877,6.9401,7.0236,7.1717,7.3388,7.5093,7.8219,8.0251,7.9264,8.2504,8.6218,8.9174,8.8234,8.9941,9.7273,9.6307,9.7656,10.442,10.2791,10.2396,10.5097,10.3555,10.3722,10.6547,10.7458,10.9536,11.3232,11.3413,11.2132,10.9288,10.9249,11.073,11.368,11.368,11.406,11.4645,11.4645,11.4645,11.4732,11.5362,11.4985,11.365,11.0666,10.9157,10.8339,10.5107,10.383,10.387,10.4427,10.4586,10.4586,10.4586,10.6496,10.8626,10.7065,10.8991,11.1795,11.1033,11.0801,11.0173,10.7183,10.8092,10.8647,10.2804,10.3406,10.4843,10.1959,10.3886,10.7143,11.0134,11.0801,11.0801,11.0801,11.01,10.9165,10.8128,10.4781,10.2827,10.4556,9.7188,9.2462,9.5235,8.9812,8.593,8.641,8.553,8.5168,8.565,8.521,8.5005,8.5157,8.5043,8.5005,8.5157,8.603,8.6865,8.7659,8.7659,8.7735,8.7849,8.8612,8.9033,8.9033,8.9675,9.0016,6.363,6.4693,6.5756,6.6212,6.6971,6.7649,6.7649,6.8566,6.9553,6.99,7.0996,7.2245,7.346,7.6218,7.8306,7.8126,8.0736,8.3345,8.5022,8.6663,8.9306,9.3613,9.4826,9.6376,9.8963,9.8251,9.8298,9.9849,9.887,9.8911,10.054,10.2841,10.4958,10.698,10.7406,10.6699,10.4635,10.4988,10.6062,10.7681,10.9568,11.0699,11.1077,11.2974,11.387,11.3908,11.425,11.3174,11.1016,10.9412,10.7563,10.5632,10.3158,10.2195,10.2195,10.2192,10.2192,10.2192,10.2192,10.3235,10.4396,10.3202,10.4166,10.5677,10.5364,10.5245,10.4927,10.3286,10.3966,10.4046,9.8994,10.0258,10.1915,9.8503,10.1673,10.5999,10.7621,10.9473,11.0801,11.0801,10.996,10.8931,10.7848,10.4136,10.1434,10.1907,9.512,9.0517,9.2038,8.796,8.4967,8.4967,8.4967,8.4967,8.4967,8.4967,8.4967,8.4967,8.4967,8.4967,8.4967,8.5347,8.5764,8.6065,8.66,8.7052,8.7469,8.7928,8.808,8.8118,8.8498,8.8608,6.4496,0.0,6.6699,6.7275,6.7958,6.849,0.0,6.9135,6.971,6.971,7.0388,7.1257,7.2059,7.4071,7.5969,7.707,7.9158,8.098,8.2005,8.6347,8.9848,9.1018,9.3419,9.4598,9.3716,9.3694,9.4088,9.4879,9.4331,9.4368,9.52,9.8379,10.0538,10.1348,10.0374,9.9927,10.0132,10.0739,10.1466,10.2312,10.4993,10.6383,10.6659,10.9373,11.0545,11.063,11.0776,10.9303,10.6631,10.584,10.3926,10.131,9.9564,9.8912,9.8953,9.8952,9.891,9.891,9.891,9.891,9.8951,9.9156,9.981,10.0501,10.0501,9.9932,9.928,9.928,9.9851,9.9688,9.6156,9.727,9.8585,9.5906,9.9279,10.3562,10.5201,10.7479,10.9453,11.0273,10.8786,10.7131,10.6336,10.1986,9.862,9.8555,9.3004,8.9105,8.9931,8.7047,8.4967,8.4967,8.4967,8.4967,8.4967,8.4967,8.4967,8.4967,8.4967,8.4967,8.4967,8.4967,8.4967,8.4967,8.5612,8.6296,8.6862,8.709,8.7204,8.7204,8.7394,8.7469,0.0,6.7275,6.7389,6.7427,6.7503,6.7541,6.7541,6.8224,0.0,6.887,6.9553,7.035,7.1257,7.2742,7.4377,7.6045,7.7792,7.9462,8.1095,8.497,8.8517,9.0896,8.8773,8.8594,9.2424,9.0675,9.0599,9.3748,9.1758,9.1803,9.5076,9.5533,9.7229,10.0501,9.4284,9.2438,9.5699,9.5741,9.7435,10.0704,10.0948,10.1431,10.2154,10.2396,10.2516,10.2556,10.3275,10.3034,10.1872,9.8624,9.7106,9.6446,9.2396,9.0827,9.0827,9.0827,9.0827,9.0827,9.0827,9.0827,9.1339,9.4576,9.7846,10.0501,10.0501,9.8216,9.5616,9.5616,9.7969,9.9688,9.6156,9.545,9.5574,9.5325,9.5616,9.7764,10.4206,10.4962,10.5474,10.874,10.5277,10.1814,10.1769,9.5651,9.1809,9.4737,8.9537,8.6449,8.9616,8.7047,8.4967,8.4967,8.4967,8.4967,8.4967,8.4967,8.4967,8.4967,8.4967,8.4967,8.4967,8.4967,8.4967,8.4967,8.5005,8.5081,8.5157,8.5992,8.6372,8.641,8.7128,8.7469,6.8458,6.9027,6.9173,6.9738,6.989,6.9738,6.9173,6.9292,6.952,6.952,6.9786,7.0241,7.1143,7.308,7.4868,7.6007,7.8095,7.9956,8.1095,8.305,8.4867,8.6382,8.642,8.694,8.8593,8.8257,8.8506,8.9832,8.9019,8.9235,9.1115,9.1279,9.1863,9.3196,9.1111,9.0658,9.1972,9.1972,9.2649,9.395,9.6156,9.7394,9.7723,9.9931,10.0946,10.0946,10.1269,10.1229,0.0,9.9523,9.8952,9.8584,9.4784,9.3278,9.2985,9.0827,9.0016,9.0016,9.0016,9.0016,9.0573,9.4075,9.4659,9.4368,9.6569,9.4784,9.1972,9.1972,9.4493,9.6404,9.2901,9.5242,9.7969,9.5782,9.8502,10.1622,10.1583,10.2977,10.3835,10.2472,10.0074,9.8266,9.8266,9.3668,9.04,9.1649,8.7881,8.541,8.6689,8.573,8.4967,8.4967,8.4967,8.4967,8.4967,8.4967,8.4967,8.4967,8.4967,8.4967,8.4967,8.4967,8.4967,8.4967,8.4967,8.4967,8.4967,8.5309,8.5461,8.5461,8.5764,8.5876,7.0317,7.0772,7.0958,7.1561,7.1713,7.1485,7.0616,7.0426,7.035,7.0051,6.9976,7.0241,7.1143,7.3118,7.4944,7.6007,7.8133,7.9955,8.0753,8.1778,8.265,8.3259,8.4853,8.5878,8.5878,8.6597,8.709,8.709,8.7356,8.7735,8.8346,8.8692,8.8844,8.8844,8.9375,8.9751,9.0016,9.0016,9.0016,9.0016,9.2396,9.3613,9.3697,9.6113,9.7188,9.7188,9.7188,9.7188,9.7188,9.7188,9.7188,9.6941,9.4534,9.3613,9.332,9.0912,9.0016,9.0016,9.0016,8.9827,9.0022,9.2425,9.1584,9.0064,9.2466,9.1736,9.0016,9.0016,9.1719,9.3026,9.0615,9.3416,9.6202,9.3761,9.6612,9.9317,9.7479,9.8738,9.9652,9.783,9.5802,9.4391,9.4391,9.104,8.8395,8.8395,8.6681,8.5385,8.5385,8.5385,8.5385,8.5385,8.5119,8.4967,8.4967,8.4967,8.4967,8.4967,8.4967,8.4967,8.4967,8.4967,8.4967,8.4967,8.4967,8.4967,8.4967,8.4967,8.4967,8.4967,8.4967,8.4967,7.2059,7.2514,7.2514,7.2514,7.2514,7.2287,7.1523,7.1367,7.1067,7.0165,7.0013,7.0312,7.1181,7.2628,7.4226,7.5931,7.7603,7.9045,7.9955,8.1436,8.2422,8.2422,8.3902,8.4929,8.4967,8.5764,8.6296,8.6296,8.6976,8.7469,8.7469,8.8308,8.8806,8.8806,8.8806,8.9223,8.9979,9.0016,9.0016,9.0016,9.0016,9.0016,9.0016,9.0016,9.0016,9.0016,9.0016,9.0016,9.0016,9.0016,9.0016,9.0016,9.0016,9.0016,9.0016,9.0016,9.0016,9.0016,9.0016,8.9485,8.8844,8.8885,8.8885,8.8844,8.8844,8.9371,9.0016,9.0016,8.9979,8.9979,8.9979,8.9413,8.8847,8.8847,8.8201,8.8504,9.1939,9.1902,9.2171,9.567,9.2849,8.997,8.997,8.7166,8.4967,8.4967,8.5726,8.6296,8.6296,8.6296,8.6296,8.6296,8.5499,8.4967,8.4967,8.4967,8.4967,8.4967,8.4967,8.4967,8.4967,8.4967,8.4967,8.4967,8.4967,8.4967,8.4967,8.4967,8.4967,8.4967,8.4967,8.4967,7.2894,7.3315,7.3315,7.3315,7.3315,7.316,7.2325,7.2169,7.2059,7.1831,7.1755,7.2021,7.2856,7.3881,7.5207,7.688,7.8057,7.9045,7.9955,8.0943,8.1777,8.2384,8.3448,8.4361,8.4891,8.5195,8.5347,8.5347,8.5575,8.5992,8.6638,8.6903,8.7017,8.7017,8.8236,8.8957,8.9185,8.9713,9.0016,9.0016,9.0016,9.0016,9.0016,9.0016,9.0016,9.0016,9.0016,9.0016,9.0016,9.0016,9.0016,9.0016,9.0016,9.0016,9.0016,9.0016,9.0016,9.0016,9.0016,8.9865,9.006,9.2547,9.1668,8.9523,8.8995,8.9371,9.0016,9.0016,8.9599,8.9185,8.9185,9.0375,9.1563,9.1563,9.3273,9.4272,9.2221,9.1539,9.0739,8.875,8.7322,8.6449,8.6449,8.561,8.4967,8.4967,8.5726,8.6296,8.6296,8.6789,8.69,8.6372,8.6562,8.6483,8.5954,8.5916,8.5612,8.5005,8.4967,8.4967,8.4967,8.4967,8.4967,8.4967,8.4967,8.4967,8.4967,8.4967,8.4967,8.4967,8.4967,8.4967,7.4226,7.4415,7.4299,7.4605,7.4415,7.3995,7.3198,7.297,7.2894,7.2552,7.2514,7.2742,7.3543,7.4413,7.5587,7.726,7.821,7.9045,7.9955,8.0791,8.155,8.2346,8.3221,8.4096,8.4891,8.4967,8.4967,8.4967,8.4967,8.5195,8.5726,8.5764,8.5916,8.6296,8.7324,8.816,8.8806,8.9299,8.9675,9.0016,9.0016,9.0016,9.0016,9.0016,9.0016,9.0016,9.0016,9.0016,9.0016,9.0016,9.0016,9.0016,9.0016,9.0016,9.0016,9.0016,9.0016,9.0016,9.0016,8.9789,8.9903,9.2012,9.0983,8.8915,8.8422,8.8612,8.8987,8.8987,8.865,8.827,8.827,8.9466,9.0518,9.0244,9.1541,9.2055,8.9385,8.8788,8.8031,8.5444,8.4967,8.4967,8.4967,8.4967,8.4967,8.4967,8.5992,8.6789,8.6789,8.7511,8.7852,8.7359,8.7131,8.6676,8.584,8.5764,8.5537,8.5005,8.4967,8.4967,8.4967,8.4967,8.4967,8.4967,8.4967,8.4967,8.4967,8.4967,8.4967,8.4967,8.4967,8.4967,7.5665,7.5625,7.5283,7.5931,7.5625,7.4904,7.3998,7.3808,7.3581,7.2894,7.2742,7.297,7.377,7.4564,7.5701,7.7374,7.8248,7.9045,7.9955,8.0677,8.1436,8.2233,8.3031,8.3906,8.4739,8.4853,8.4891,8.4929,8.4967,8.4967,8.4967,8.4967,8.5347,8.6144,8.6258,8.7017,8.8578,8.8768,8.9185,8.9903,8.9979,9.0016,9.0016,9.0016,9.0016,9.0016,9.0016,9.0016,9.0016,9.0016,9.0016,9.0016,9.0016,9.0016,9.0016,9.0016,9.0016,9.0016,9.0016,8.9485,8.8844,8.8844,8.8194,8.7469,8.7469,8.7469,8.7469,8.7469,8.7431,8.7356,8.7356,8.7318,8.7052,8.6372,8.5537,8.4967,8.4967,8.4967,8.4967,8.4967,8.4967,8.4967,8.4967,8.4967,8.4967,8.4967,8.6293,8.7394,8.7469,8.8194,8.873,8.873,8.7321,8.6068,8.5157,8.5081,8.5043,8.4967,8.4967,8.4967,8.4967,8.4967,8.4967,8.4967,8.4967,8.4967,8.4967,8.4967,8.4967,8.4967,8.4967,8.4967,7.5018,7.5625,7.5853,7.5397,7.5625,7.5741,7.4942,7.4752,7.4714,7.4524,7.4486,7.4714,7.5514,7.5817,7.6501,7.8172,7.8628,7.9045,7.9955,8.0221,8.0639,8.1436,8.1664,8.2385,8.3906,8.4058,8.4284,8.4929,8.4967,8.4967,8.4967,8.4967,8.5043,8.5233,8.5916,8.6486,8.6827,8.816,8.892,8.9109,8.9713,9.0016,9.0016,9.0016,9.0016,9.0016,9.0016,9.0016,9.0016,9.0016,9.0016,9.0016,9.0016,9.0016,9.0016,9.0016,9.0016,9.0016,9.0016,8.9485,8.8844,8.8844,8.8194,8.7469,8.7469,8.7469,8.7469,8.7469,8.7014,8.6562,8.6562,8.5989,8.5461,8.5271,8.5081,8.4967,8.4967,8.4967,8.4967,8.4967,8.4967,8.4967,8.4967,8.4967,8.4967,8.4967,8.5878,8.6748,8.7394,8.7659,8.7773,8.7773,8.7431,8.6862,8.6106,8.603,8.5688,8.5005,8.4967,8.4967,8.4967,8.4967,8.4967,8.4967,8.4967,8.4967,8.4967,8.4967,8.4967,8.4967,8.4967,8.4967,7.5248,7.5625,7.5663,7.559,7.5625,7.5549,7.5131,7.5018,7.5018,7.5018,7.5321,7.5739,7.6121,7.688,7.7679,7.859,7.9083,7.9538,8.0031,8.0069,8.0373,8.1171,8.1246,8.174,8.2993,8.3107,8.3486,8.4322,8.436,8.436,8.436,8.436,8.4549,8.4929,8.5423,8.5878,8.6296,8.7169,8.7777,8.8194,8.8612,8.8802,8.8802,8.8802,8.8802,8.8802,8.8802,8.8802,8.8802,8.8802,8.8802,8.8802,8.8802,8.8802,8.8802,8.8802,8.8802,8.8802,8.8802,8.8536,8.8118,8.778,8.7017,8.6255,8.6255,8.6255,8.6255,8.6255,8.5992,8.565,8.565,8.5309,8.4967,8.4967,8.4967,8.4967,8.4967,8.4967,8.4967,8.4967,8.4967,8.4967,8.4967,8.4967,8.4967,8.4967,8.5726,8.6448,8.6865,8.6521,8.6407,8.6862,8.6521,8.6065,8.5688,8.565,8.5461,8.5005,8.4967,8.4967,8.4967,8.4967,8.4967,8.4967,8.4967,8.4967,8.4967,8.4967,8.4967,8.4967,8.4967,8.4967,7.54,7.5476,7.5359,7.5855,7.5625,7.5207,7.5056,7.5018,7.5018,7.5018,7.5663,7.6235,7.6425,7.7716,7.8779,7.8931,7.9614,8.0069,8.0069,8.0069,8.0335,8.0981,8.1057,8.136,8.2157,8.2233,8.2574,8.3488,8.3412,8.3412,8.3526,8.3564,8.3904,8.4701,8.4739,8.5157,8.6068,8.622,8.6638,8.728,8.7431,8.7469,8.7469,8.7469,8.7469,8.7469,8.7469,8.7469,8.7469,8.7469,8.7469,8.7469,8.7469,8.7469,8.7469,8.7469,8.7469,8.7469,8.7469,8.7394,8.7128,8.6334,8.5575,8.4967,8.4967,8.4967,8.4967,8.4967,8.4967,8.4967,8.4967,8.4967,8.4967,8.4967,8.4967,8.4967,8.4967,8.4967,8.4967,8.4967,8.4967,8.4967,8.4967,8.4967,8.4967,8.4967,8.5612,8.6144,8.6296,8.5499,8.5233,8.5992,8.5385,8.4967,8.4967,8.4967,8.4967,8.4967,8.4967,8.4967,8.4967,8.4967,8.4967,8.4967,8.4967,8.4967,8.4967,8.4967,8.4967,8.4967,8.4967,8.4967,7.396,7.502,7.5893,7.5321,7.5625,7.5855,7.5169,7.5018,7.5018,7.5018,7.5663,7.6425,7.7222,7.8133,7.8969,7.9803,7.9993,8.0069,8.0069,8.0069,8.0107,8.0221,8.0221,8.0563,8.1322,8.1436,8.174,8.2536,8.1968,8.1892,8.2574,8.2612,8.3031,8.3906,8.3944,8.4323,8.5119,8.5916,8.6372,8.6486,8.7128,8.7469,8.7469,8.7469,8.7469,8.7469,8.7469,8.7469,8.7469,8.7469,8.7469,8.7469,8.7469,8.7469,8.7469,8.7469,8.7469,8.7469,8.7469,8.7014,8.6296,8.5423,8.5043,8.4967,8.4967,8.4967,8.4967,8.4967,8.4967,8.4967,8.4967,8.4967,8.4967,8.4967,8.4967,8.4967,8.4967,8.4967,8.4967,8.4967,8.4967,8.4967,8.4967,8.4967,8.4967,8.4967,8.5043,8.5423,8.622,8.5499,8.5005,8.5119,8.5005,8.4967,8.4967,8.4967,8.4967,8.4967,8.4967,8.4967,8.4967,8.4967,8.4967,8.4967,8.4967,8.4967,8.4967,8.4967,8.4967,8.4967,8.4967,8.4967,7.3429,7.4226,7.4795,7.498,7.5283,7.5473,7.5093,7.5018,7.5018,7.5018,7.6081,7.707,7.7488,7.8589,7.9652,8.0031,8.0069,8.0069,8.0069,8.0069,8.0069,8.0069,8.0069,8.0221,8.0563,8.0601,8.0905,8.1701,8.1019,8.0905,8.1701,8.1739,8.2119,8.2993,8.3526,8.3944,8.4284,8.5119,8.5537,8.5537,8.5916,8.6027,8.6027,8.6027,8.6027,8.6027,8.6027,8.6027,8.6027,8.6027,8.6027,8.6027,8.6027,8.6027,8.6027,8.6027,8.6027,8.6027,8.6027,8.58,8.5499,8.5081,8.4967,8.4967,8.4967,8.4967,8.4967,8.4967,8.4967,8.4967,8.4967,8.4967,8.4967,8.4967,8.4967,8.4967,8.4967,8.4967,8.4967,8.4967,8.4967,8.4967,8.4967,8.4967,8.4967,8.4967,8.4967,8.5081,8.5499,8.5195,8.4967,8.4967,8.4967,8.4967,8.4967,8.4967,8.4967,8.4967,8.4967,8.4967,8.4967,8.4967,8.4967,8.4967,8.4967,8.4967,8.4967,8.4967,8.4967,8.4967,8.4967,8.4967,7.2704,7.3201,7.3581,7.4451,7.4714,7.4752,7.498,7.5018,7.5018,7.5018,7.6195,7.7298,7.7526,7.8741,7.9803,8.0031,8.0069,8.0069,8.0069,8.0069,8.0069,8.0069,8.0069,8.0069,8.0069,8.0069,8.0335,8.0905,8.0411,8.0335,8.0905,8.0943,8.1322,8.2081,8.2765,8.326,8.341,8.4246,8.4739,8.4967,8.4967,8.4967,8.4967,8.4967,8.4967,8.4967,8.4967,8.4967,8.4967,8.4967,8.4967,8.4967,8.4967,8.4967,8.4967,8.4967,8.4967,8.4929,8.4701,8.4663,8.4663,8.4891,8.4967,8.4967,8.4967,8.4967,8.4967,8.4967,8.4967,8.4967,8.4967,8.4967,8.4967,8.4967,8.4967,8.4967,8.4967,8.4967,8.4967,8.4967,8.4967,8.4967,8.4967,8.4967,8.4967,8.4967,8.4967,8.4967,8.4967,8.4967,8.4967,8.4967,8.4967,8.4967,8.4967,8.4967,8.4967,8.4967,8.4967,8.4967,8.4967,8.4967,8.4967,8.4967,8.4967,8.4967,8.4967,8.4967,8.4967,8.4967,8.4967,8.4967,7.1181,7.2017,7.2742,7.3543,7.377,7.396,7.4828,7.5018,7.5018,7.5018,7.5701,7.6539,7.7412,7.8247,7.9045,7.9955,8.0069,8.0069,8.0069,8.0069,8.0069,8.0069,8.0069,8.0069,8.0069,8.0069,8.0107,8.0145,8.0107,8.0107,8.0145,8.0145,8.0525,8.1284,8.136,8.174,8.2498,8.3373,8.417,8.4967,8.4967,8.4967,8.4967,8.4967,8.4967,8.4967,8.4967,8.4967,8.4967,8.4967,8.4967,8.4967,8.4967,8.4967,8.4967,8.4967,8.4967,8.4853,8.4096,8.383,8.3982,8.4701,8.4967,8.4967,8.4967,8.4967,8.4967,8.4967,8.4967,8.4967,8.4967,8.4967,8.4967,8.4967,8.4967,8.4967,8.4967,8.4967,8.4967,8.4967,8.4967,8.4967,8.4967,8.4967,8.4967,8.4967,8.4967,8.4967,8.4967,8.4967,8.4967,8.4967,8.4967,8.4967,8.4967,8.4967,8.4967,8.4967,8.4967,8.4967,8.4967,8.4967,8.4967,8.4967,8.4967,8.4967,8.4967,8.4967,8.4967,8.4967,8.4967,8.4967,6.9472,7.0274,7.111,7.1979,7.2552,7.3008,7.3312,7.3805,7.4185,7.4185,7.5248,7.6311,7.6615,7.783,7.8817,7.9158,7.9727,8.0069,8.0069,8.0069,8.0069,8.0069,8.0069,8.0069,8.0069,8.0069,8.0069,8.0069,8.0069,8.0069,8.0069,8.0069,8.0221,8.0487,8.1019,8.1398,8.1663,8.2499,8.303,8.3333,8.3333,8.3333,8.3333,8.3942,8.421,8.4248,8.4739,8.4663,8.421,8.421,8.3866,8.3333,8.3333,8.3333,8.3333,8.3333,8.3333,8.3257,8.3031,8.2917,8.2916,8.3219,8.3333,8.3333,8.3333,8.3333,8.3333,8.3333,8.3752,8.421,8.421,8.4549,8.4967,8.4967,8.4967,8.4967,8.4967,8.4967,8.4967,8.4967,8.4967,8.4967,8.4967,8.4967,8.4967,8.4967,8.4967,8.4967,8.4967,8.4967,8.4967,8.4967,8.4967,8.4967,8.4967,8.4967,8.4967,8.4967,8.4967,8.4967,8.4967,8.4967,8.4701,8.421,8.421,8.3904,8.3333,8.3333,8.3333,8.3333,8.3333,8.3333,6.667,6.7627,6.862,6.9555,7.052,7.1337,7.1603,7.2287,7.2894,7.2894,7.3995,7.5134,7.5703,7.6729,7.7678,7.8248,7.8817,7.9348,7.9614,7.9614,7.9765,8.0031,8.0069,8.0069,8.0069,8.0069,8.0069,8.0069,8.0069,8.0069,8.0069,8.0069,8.0069,8.0069,8.0601,8.0867,8.0867,8.1664,8.2005,8.2005,8.2309,8.2422,8.246,8.3069,8.3297,8.3335,8.3904,8.379,8.3297,8.3297,8.2993,8.2422,8.2422,8.2422,8.2422,8.2422,8.2081,8.1702,8.1929,8.2005,8.2081,8.2346,8.2422,8.2422,8.2422,8.2422,8.2422,8.2422,8.284,8.3297,8.3297,8.3714,8.4092,8.4092,8.4092,8.4092,8.4092,8.4092,8.4092,8.4092,8.4092,8.4168,8.4511,8.4549,8.4625,8.4929,8.4967,8.4739,8.417,8.4092,8.4092,8.4092,8.4092,8.4092,8.4092,8.4092,8.4092,8.4092,8.4092,8.4092,8.4092,8.4092,8.3866,8.3335,8.3297,8.3031,8.2422,8.2422,8.2422,8.2422,8.2422,8.2422,6.2907,6.4193,6.5453,6.634,6.7616,6.8908,6.9601,7.054,7.1253,7.1253,7.1903,7.3004,7.46,7.4942,7.5549,7.7184,7.7488,7.7792,7.859,7.8704,7.9045,7.9917,8.0069,8.0069,8.0031,8.0069,8.0069,8.0069,8.0069,8.0069,8.0069,8.0069,8.0069,8.0069,8.0069,8.0069,8.0069,8.0867,8.1208,8.1246,8.1967,8.2346,8.2346,8.2346,8.2384,8.2384,8.2422,8.2422,8.2384,8.2384,8.2384,8.2346,8.2346,8.2346,8.2346,8.2346,8.1398,8.0183,8.0943,8.1208,8.136,8.2119,8.2346,8.2346,8.2346,8.2346,8.2346,8.2346,8.2384,8.2384,8.2384,8.2422,8.2422,8.2422,8.2422,8.2422,8.2422,8.2422,8.2422,8.2422,8.2422,8.2688,8.3602,8.3754,8.402,8.4777,8.4891,8.4284,8.265,8.2422,8.2422,8.2422,8.2422,8.2422,8.2422,8.2422,8.2422,8.2422,8.2422,8.2422,8.2422,8.2422,8.2422,8.2384,8.2384,8.2384,8.2346,8.2346,8.2346,8.2346,8.2346,8.2346,6.1731,6.2762,6.3557,6.3781,6.4951,6.5973,6.583,6.7216,6.849,6.849,7.0194,7.1789,7.2245,7.3274,7.4413,7.5549,7.6197,7.688,7.7754,7.8362,7.8817,7.9082,7.969,7.9841,7.9196,7.9727,8.0069,8.0069,8.0069,8.0069,8.0069,8.0069,8.0069,8.0069,8.0069,8.0069,8.0069,8.0297,8.0411,8.0411,8.0639,8.0715,8.0715,8.0715,8.1019,8.1626,8.2157,8.2081,8.1588,8.1588,8.1246,8.0715,8.0715,8.0715,8.0715,8.0715,8.0449,8.0107,8.0335,8.0411,8.0449,8.0677,8.0715,8.0715,8.0715,8.0715,8.0715,8.0715,8.1133,8.1588,8.1588,8.2005,8.2422,8.2422,8.2422,8.2422,8.2422,8.2422,8.2422,8.2422,8.2422,8.2498,8.2726,8.2764,8.284,8.3068,8.3105,8.2954,8.2498,8.2422,8.2422,8.2422,8.2422,8.2422,8.2422,8.2422,8.2422,8.2422,8.2422,8.2422,8.2422,8.2422,8.2157,8.1588,8.1588,8.1284,8.0715,8.0715,8.0715,8.0715,8.0715,8.0715,5.8228,5.9252,6.0092,6.0425,6.1575,6.2735,6.3019,6.4351,6.5597,6.5846,6.7687,6.932,6.9662,7.1,7.2404,7.3346,7.4109,7.5096,7.6347,7.688,7.745,7.8171,7.8703,7.8854,7.8323,7.9006,7.95,7.95,7.9879,8.0069,8.0069,8.0069,8.0069,8.0069,8.0069,8.0069,8.0069,8.0069,8.0069,8.0069,8.0069,8.0069,8.0069,8.0069,8.0335,8.0791,8.1246,8.1171,8.0791,8.0791,8.0487,8.0069,8.0069,8.0069,8.0069,8.0069,8.0069,8.0069,8.0069,8.0069,8.0069,8.0069,8.0069,8.0069,8.0069,8.0069,8.0069,8.0069,8.0411,8.0791,8.0791,8.1095,8.1436,8.1436,8.1436,8.1436,8.1436,8.1436,8.1436,8.1436,8.1436,8.155,8.1853,8.1929,8.1815,8.1512,8.1436,8.1436,8.1436,8.1436,8.1436,8.1436,8.1436,8.1436,8.1436,8.1436,8.1436,8.1436,8.1436,8.1436,8.1436,8.1436,8.1246,8.0753,8.0791,8.0563,8.0069,8.0069,8.0069,8.0069,8.0069,7.9879,5.3804,5.4748,5.5916,5.6606,5.7864,5.925,0.0,6.1538,6.2457,6.3087,6.464,6.6143,6.6895,6.8452,6.9857,7.0763,7.1637,7.278,7.4372,7.4828,7.5511,7.6842,7.7183,7.726,7.726,7.8095,7.859,7.859,7.9424,7.9917,7.9917,8.0031,8.0069,8.0069,8.0069,8.0069,8.0069,8.0069,8.0069,8.0069,8.0069,8.0069,8.0069,8.0069,8.0069,8.0069,8.0069,8.0069,8.0069,8.0069,8.0069,8.0069,8.0069,8.0069,8.0069,8.0069,8.0069,8.0069,8.0069,8.0069,8.0069,8.0069,8.0069,8.0069,8.0069,8.0069,8.0069,8.0069,8.0069,8.0069,8.0069,8.0069,8.0069,8.0069,8.0069,8.0069,8.0069,8.0069,8.0069,8.0069,8.0069,8.0297,8.0981,8.1133,8.0867,8.0183,8.0069,8.0069,8.0069,8.0069,8.0069,8.0069,8.0069,8.0069,8.0069,8.0069,8.0069,8.0069,8.0069,8.0069,8.0069,8.0069,8.0069,8.0069,7.9993,7.9917,7.9917,7.9841,7.9803,7.9803,7.9803,7.931,0.0,0.0,0.0,0.0,0.0,0.0,0.0,5.7269,5.9334,5.9874,6.1865,6.3668,6.4336,6.5863,6.7269,6.8072,6.9477,7.0844,7.1903,7.3764,7.4638,7.3615,7.4714,7.5511,7.5511,7.688,7.7792,7.7792,7.8514,7.9006,7.9006,7.9652,8.0069,8.0069,8.0069,8.0069,8.0069,8.0069,8.0069,8.0069,8.0069,8.0069,8.0069,8.0069,8.0069,8.0069,8.0069,8.0069,8.0069,8.0069,8.0069,8.0069,8.0069,8.0069,8.0069,8.0069,8.0069,8.0069,8.0069,8.0069,8.0069,8.0069,8.0069,8.0069,8.0069,8.0069,8.0069,8.0069,8.0069,8.0069,8.0069,8.0069,8.0069,8.0069,8.0069,8.0069,8.0069,8.0069,8.0069,8.0069,8.0069,8.0107,8.0297,8.0297,8.0259,8.0107,8.0069,8.0069,8.0069,8.0069,8.0069,8.0069,8.0069,8.0069,8.0069,8.0069,8.0069,8.0069,8.0069,8.0069,8.0069,8.0069,8.0069,8.0069,7.9386,7.9006,7.9006,7.8361,7.8019,7.8019,7.8019,7.7564,0.0,0.0,0.0,0.0,0.0,0.0,0.0,0.0,0.0,0.0,0.0,6.0623,6.0976,0.0,6.4687,6.5064,6.6788,6.8566,6.989,7.1451,7.2211,7.1342,7.2397,7.3346,7.3726,7.5321,7.6309,7.6309,7.745,7.8171,7.8171,7.8551,7.8816,7.8816,7.9196,7.9386,7.9386,7.9879,8.0069,8.0069,8.0069,8.0069,8.0069,8.0069,8.0069,8.0069,8.0069,8.0069,8.0069,8.0069,8.0069,7.9993,7.9158,7.8816,7.8855,7.9272,7.9386,7.9462,7.9917,8.0069,8.0069,8.0069,8.0069,8.0069,8.0069,8.0069,8.0069,8.0069,8.0069,8.0069,8.0069,8.0069,8.0069,8.0069,8.0069,8.0069,8.0069,8.0069,8.0069,8.0069,8.0069,8.0069,8.0069,8.0069,8.0069,8.0069,8.0069,8.0069,8.0069,8.0069,8.0069,8.0069,8.0069,8.0069,8.0069,8.0069,8.0069,8.0069,8.0069,8.0069,8.0069,7.9614,7.9386,7.9386,7.8589,7.7907,7.7451,7.707,7.6653,7.6271,7.4564,7.3995,0.0,0.0,0.0,0.0,0.0,0.0,0.0,0.0,0.0,0.0,0.0,0.0,0.0,0.0,0.0,6.2068,6.4145,6.6319,6.7845,6.849,6.8875,6.9217,7.008,7.0953,7.1907,7.3422,7.4372,7.4524,7.5931,7.688,7.7032,7.7222,7.7374,7.7564,7.8172,7.8514,7.8514,7.9234,7.9576,7.9576,7.9576,0.0,7.9576,7.9576,7.9576,7.9576,7.9576,7.9576,7.9576,7.9576,7.9576,7.9462,7.8057,7.7564,7.764,7.8248,7.8514,7.859,7.9348,7.9576,7.9576,7.9576,7.9576,7.9576,7.9576,7.9576,0.0,7.9803,7.9841,7.9879,8.0031,8.0069,8.0069,8.0069,8.0069,8.0069,8.0069,8.0069,8.0069,8.0069,8.0069,8.0069,8.0069,8.0069,8.0069,8.0069,8.0069,8.0069,8.0069,8.0069,8.0069,8.0069,8.0069,8.0069,8.0069,8.0069,8.0069,8.0069,8.0069,7.9993,7.9841,7.9083,7.859,7.8248,7.745,7.6615,7.5703,7.54,7.4942,7.422,7.042,6.956,0.0,0.0,0.0,0.0,0.0,0.0,0.0,0.0,0.0,0.0,0.0,0.0,0.0,0.0,0.0,0.0,6.207,6.4352,6.5232,6.4845,6.4997,6.6509,6.7421,6.8528,7.0127,7.1181,7.2017,7.2742,7.3619,7.4489,7.5245,7.6005,0.0,0.0,0.0,7.7678,7.7678,7.7792,7.783,7.783,7.783,7.783,7.783,7.783,7.783,7.783,7.783,7.783,7.783,7.783,7.783,7.783,7.764,7.7564,7.7564,7.764,7.7678,7.7716,7.7792,0.0,0.0,7.783,7.783,7.783,7.783,7.783,7.7981,7.8666,7.8855,7.9045,7.9879,8.0069,8.0069,8.0069,8.0069,8.0069,8.0069,8.0069,8.0069,8.0069,8.0069,8.0069,8.0069,8.0069,8.0069,8.0069,8.0069,8.0069,8.0069,8.0069,8.0069,8.0069,8.0069,0.0,8.0069,8.0069,8.0069,8.0069,8.0069,7.969,7.8893,7.8779,7.802,7.6539,7.5739,7.4904,7.3925,7.2587,7.1861,7.1637,6.6379,6.4708,0.0,0.0,0.0,0.0,0.0,0.0,0.0,0.0,0.0,0.0,0.0,0.0,0.0,0.0,0.0,0.0,5.933,6.1052,6.1066,6.1399,6.226,6.4053,6.4896,6.5946,6.7655,6.8598,6.9401,7.0274,7.1565,7.2511,7.2887,7.365,7.4223,7.4602,7.5096,7.5552,7.6081,7.6539,7.7032,7.7564,7.7564,7.7564,7.7564,7.7564,7.7564,7.7564,7.7564,7.7564,7.7564,7.7564,7.7564,7.7374,0.0,0.0,0.0,0.0,7.4906,7.54,7.5929,7.6081,7.6081,7.6081,7.6387,7.6766,7.6766,7.7146,7.764,7.7943,7.8057,7.8133,7.8513,7.8626,7.8626,7.8626,7.8969,7.931,7.931,7.9727,8.0069,8.0069,8.0069,0.0,7.8778,7.9006,7.931,7.931,7.9765,8.0069,8.0069,8.0069,8.0069,8.0069,8.0069,8.0069,8.0069,8.0069,0.0,0.0,0.0,7.969,7.8779,7.8741,0.0,0.0,0.0,7.1979,7.0085,6.9106,0.0,0.0,6.2298,6.1434,0.0,0.0,0.0,0.0,0.0,0.0,0.0,0.0,0.0,0.0,0.0,0.0,0.0,0.0,0.0,0.0,5.6543,5.7899,5.7375,5.8207,5.9549,6.1329,6.2284,6.3465,6.5161,6.6004,6.6782,6.7693,6.8902,6.9776,7.0232,7.0839,7.1337,7.1793,7.2628,7.335,7.3992,7.4828,7.5514,7.6159,7.6159,7.6159,7.6159,7.6159,7.6159,7.6159,7.6159,7.6159,7.6159,7.6159,7.6159,7.5893,7.297,7.1831,7.1831,7.1831,7.2173,7.2746,7.3388,7.365,7.365,7.365,7.4033,7.4489,7.4489,7.4982,7.559,7.6045,7.6159,7.6273,7.6729,7.6994,7.7184,7.7184,7.783,7.84,7.84,7.8931,7.9386,7.9386,7.9006,7.836,7.7336,7.7678,7.8096,7.8362,7.8969,7.9462,7.969,7.9727,7.9803,8.0069,8.0069,8.0069,8.0069,8.0069,7.9955,7.9727,7.9727,7.9196,7.8058,7.783,7.6313,7.3391,7.1299,6.9065,0.0,0.0,0.0,0.0,0.0,0.0,0.0,0.0,0.0,0.0,0.0,0.0,0.0,0.0,0.0,0.0,0.0,0.0,0.0,0.0,0.0,0.0,0.0,0.0,5.4827,5.5438,5.6544,5.8269,5.9581,6.105,6.2734,6.3496,6.42,6.5004,6.5118,6.5839,6.7503,6.7579,6.8376,7.0013,7.0953,7.1409,7.1481,7.2245,7.2628,7.2666,7.2666,7.2666,7.2666,7.2666,7.2666,7.2666,7.2666,7.2666,7.2666,7.2666,7.2666,7.2476,7.0735,7.0051,7.0051,7.0051,7.0089,7.0089,7.0127,7.0127,7.0127,7.0127,7.0165,7.0165,7.0165,7.0203,7.0545,7.2211,7.2666,7.3046,7.4676,7.5701,7.6235,7.6235,7.6918,7.7602,7.7602,7.7602,7.764,7.764,7.6309,7.5397,7.6121,7.6273,7.6577,7.745,7.7602,0.0,7.8666,7.8779,7.912,7.9993,8.0069,8.0069,8.0069,8.0069,7.9727,7.8817,7.8779,7.802,7.6349,7.5549,7.4334,7.2552,6.9287,6.646,6.4248,0.0,0.0,0.0,0.0,0.0,0.0,0.0,0.0,0.0,0.0,0.0,0.0,0.0,0.0,0.0,0.0,0.0,0.0,0.0,0.0,0.0,0.0,0.0,0.0,5.2048,5.3341,5.5011,5.5991,5.7192,5.8852,5.9554,6.0462,6.1846,6.2844,6.385,6.4921,6.5498,6.6029,6.6636,6.7535,6.8251,6.875,6.9624,7.0312,7.081,7.081,7.1148,7.1713,7.1713,7.2017,7.2476,7.1979,7.1713,7.1675,7.1072,6.9482,6.7433,6.6864,6.6636,6.6636,6.6636,6.6636,6.6636,6.6636,6.6636,6.6636,6.6636,6.7047,6.7535,6.7535,6.7883,6.8566,6.9705,7.0047,7.0312,7.1413,7.2325,7.2966,7.2966,7.3995,7.4985,7.4985,7.5438,7.5891,7.5891,7.3615,7.1793,7.2059,7.3008,7.3843,7.4147,7.5169,7.6195,7.6956,7.707,7.7602,7.9044,7.8703,7.8627,7.9158,7.8703,7.8285,7.7981,7.7412,7.6577,7.5473,7.4106,7.2287,7.0085,6.7839,6.5281,6.2457,0.0,0.0,0.0,0.0,0.0,0.0,0.0,0.0,0.0,0.0,0.0,0.0,0.0,0.0,0.0,0.0,0.0,0.0,0.0,0.0,0.0,0.0,0.0,0.0,0.0,0.0,5.2362,5.3093,0.0,5.5595,5.6098,5.6791,5.789,5.906,6.021,6.1243,6.2242,6.3087,6.357,6.4762,6.5636,6.6136,6.7009,6.7661,6.8192,6.8192,6.8642,6.951,6.951,6.9966,7.0654,6.989,6.951,6.9396,6.7953,6.5366,6.237,6.237,6.1546,6.0463,6.1533,6.1987,6.2236,6.3239,6.36,6.36,6.36,6.3088,6.2479,6.2479,6.2267,6.238,6.4421,6.5188,6.5787,6.7707,6.9059,6.9966,6.9966,7.1186,7.2366,7.2366,7.2818,7.289,7.1675,6.9667,6.8203,6.8317,6.9654,7.0739,7.0841,7.2487,7.3992,7.4792,7.54,7.6311,7.7679,7.7678,7.7754,7.8248,7.7564,7.6956,7.6689,7.5514,7.4375,7.3308,7.1603,6.9667,6.7465,6.5336,6.2915,0.0,0.0,0.0,0.0,0.0,0.0,0.0,0.0,0.0,0.0,0.0,0.0,0.0,0.0,0.0,0.0,0.0,0.0,0.0,0.0,0.0,0.0,0.0,0.0,0.0,0.0,0.0,5.0034,5.0731,0.0,0.0,0.0,0.0,5.3214,5.3883,5.4854,5.6286,5.789,5.9351,6.0742,6.2517,6.3479,6.3479,6.4291,6.4708,6.4739,6.4746,6.527,6.6129,6.6129,6.6585,6.7275,6.6509,6.6129,6.5971,6.3237,6.0291,5.7465,5.7315,5.5032,5.2213,5.5037,5.6215,5.6867,5.9743,6.0704,6.0704,6.0704,5.8322,5.5328,5.5213,5.3603,0.0,0.0,5.8179,5.9664,6.3526,6.586,6.7167,6.7275,6.8496,6.971,6.971,6.971,6.8761,0.0,6.4548,6.4598,6.496,0.0,6.705,6.7497,6.9536,7.1337,7.2177,7.3729,7.5131,7.6045,7.688,7.7374,7.7412,7.6577,7.5703,7.4866,7.327,7.1603,6.9938,6.8154,6.6415,6.4715,6.1817,0.0,0.0,0.0,0.0,0.0,0.0,0.0,0.0,0.0,0.0,0.0,0.0,0.0,0.0,0.0,0.0,0.0,0.0,0.0,0.0,0.0,0.0,0.0,0.0,0.0,0.0,4.1176,4.2402,4.467,4.6228,4.6953,0.0,0.0,0.0,0.0,0.0,0.0,5.1032,5.2957,5.4181,5.4589,5.7183,5.9023,5.9986,6.0964,6.1717,6.2196,6.2395,6.3171,6.442,6.442,6.4845,6.5536,6.4731,6.442,6.3935,5.7989,5.4775,5.3488,5.1318,4.9619,4.8432,4.9181,4.9513,4.9954,5.2771,5.3704,5.3704,5.3704,5.3072,5.1883,4.985,0.0,0.0,0.0,0.0,5.5043,5.8163,6.1058,6.3382,6.445,6.5491,6.6219,6.6219,6.6219,6.5298,0.0,5.9658,5.8622,6.0631,0.0,0.0,0.0,6.5402,6.7396,6.8857,7.0349,7.2325,7.5056,7.4944,7.4944,7.5625,7.4868,7.3729,7.2359,7.0687,6.9249,6.8148,6.5441,6.3231,6.1637,0.0,0.0,0.0,0.0,0.0,0.0,0.0,0.0,0.0,0.0,0.0,0.0,0.0,0.0,0.0,0.0,0.0,0.0,0.0,0.0,0.0,0.0,0.0,0.0,0.0,0.0,0.0,3.8268,3.912,4.0429,4.1283,4.1763,0.0,0.0,0.0,0.0,0.0,0.0,0.0,0.0,0.0,4.8706,5.0962,5.2518,5.3244,5.5025,5.6278,5.6981,5.8034,5.9373,6.0843,6.0843,6.1294,6.1977,6.1453,5.9787,5.7147,5.3121,4.9773,4.7031,0.0,0.0,0.0,0.0,4.3793,4.4294,4.7077,4.8071,4.8071,4.8071,0.0,0.0,0.0,0.0,0.0,0.0,0.0,5.0219,5.3214,0.0,6.0032,6.0839,6.1922,6.2879,6.3221,6.0019,5.6597,0.0,5.3082,5.2317,5.3797,0.0,0.0,0.0,0.0,6.3481,6.5919,6.8101,7.035,7.2552,7.3046,7.3353,7.3878,7.278,7.1531,7.0308,6.8262,6.6428,6.4961,6.2157,5.9954,0.0,0.0,0.0,0.0,0.0,0.0,0.0,0.0,0.0,0.0,0.0,0.0,0.0,0.0,0.0,0.0,0.0,0.0,0.0,0.0,0.0,0.0,0.0,0.0,0.0,0.0,0.0,0.0,0.0,3.635,3.6549,0.0,0.0,0.0,0.0,0.0,0.0,0.0,0.0,0.0,0.0,0.0,0.0,0.0,4.5549,4.5482,4.808,4.9789,5.0579,5.2465,5.422,5.5731,5.5785,5.6362,5.7229,5.623,0.0,4.8751,4.8149,0.0,0.0,0.0,0.0,0.0,0.0,0.0,0.0,0.0,0.0,0.0,0.0,0.0,0.0,0.0,0.0,0.0,0.0,0.0,0.0,0.0,0.0,5.6189,5.6075,5.7485,5.8807,0.0,5.2404,4.6514,4.6553,4.6194,0.0,0.0,0.0,0.0,0.0,0.0,0.0,6.2765,6.615,6.868,6.971,7.1148,7.2059,7.2173,7.0621,6.9255,6.8338,6.5877,6.3435,6.1214,5.8722,0.0,0.0,0.0,0.0,0.0,0.0,0.0,0.0,0.0,0.0,0.0,0.0,0.0,0.0,0.0,0.0,0.0,0.0,0.0,0.0,0.0,0.0,0.0,0.0,0.0,0.0,0.0,0.0,0.0,0.0,0.0,0.0,0.0,0.0,0.0,0.0,0.0,0.0,0.0,0.0,0.0,0.0,0.0,0.0,0.0,0.0,0.0,0.0,0.0,0.0,4.6434,4.734,4.8192,4.8635,4.9899,5.1472,4.6812,4.5111,4.5406,4.1848,0.0,0.0,0.0,0.0,0.0,0.0,0.0,0.0,0.0,0.0,0.0,0.0,0.0,0.0,0.0,0.0,0.0,0.0,0.0,0.0,0.0,0.0,0.0,0.0,5.019,5.1121,4.782,0.0,0.0,0.0,0.0,0.0,0.0,0.0,0.0,0.0,0.0,0.0,5.7846,6.247,6.6484,6.8756,6.9287,6.9705,7.0355,6.887,6.7237,6.5687,6.3259,6.0902,0.0,0.0,0.0,0.0,0.0,0.0,0.0,0.0,0.0,0.0,0.0,0.0,0.0,0.0,0.0,0.0,0.0,0.0,0.0,0.0,0.0,0.0,0.0,0.0,0.0,0.0,0.0,0.0,0.0,0.0,0.0,0.0,0.0,0.0,0.0,0.0,0.0,0.0,0.0,0.0,0.0,0.0,0.0,0.0,0.0,0.0,0.0,0.0,0.0,0.0,0.0,0.0,0.0,0.0,0.0,0.0,0.0,0.0,0.0,3.8218,0.0,0.0,0.0,0.0,0.0,0.0,0.0,0.0,0.0,0.0,0.0,0.0,0.0,0.0,0.0,0.0,0.0,0.0,0.0,0.0,0.0,0.0,0.0,0.0,0.0,0.0,0.0,0.0,0.0,0.0,0.0,0.0,0.0,0.0,0.0,0.0,0.0,0.0,0.0,0.0,5.4928,6.0252,6.4351,6.5752,6.6913,6.7557,6.7557,6.6706,6.5109,6.2757,6.0653,0.0,0.0,0.0,0.0,0.0,0.0,0.0,0.0,0.0,0.0,0.0,0.0,0.0,0.0,0.0,0.0,0.0,0.0,0.0,0.0,0.0,0.0,0.0,0.0,0.0,0.0,0.0,0.0,0.0,0.0,0.0,0.0,0.0,0.0,0.0,0.0,0.0,0.0,0.0,0.0,0.0,0.0,0.0,0.0,0.0,0.0,0.0,0.0,0.0,0.0,0.0,0.0,0.0,0.0,0.0,0.0,0.0,0.0,0.0,3.6272,0.0,0.0,0.0,0.0,0.0,0.0,0.0,0.0,0.0,0.0,0.0,0.0,0.0,0.0,0.0,0.0,0.0,0.0,0.0,0.0,0.0,0.0,0.0,0.0,0.0,0.0,0.0,0.0,0.0,0.0,0.0,0.0,0.0,0.0,0.0,0.0,0.0,0.0,0.0,0.0,0.0,5.2169,5.7973,6.2118,6.2808,6.4323,6.5189,6.5016,6.4232,6.2712,6.0306,5.8301,0.0,0.0,0.0,0.0,0.0,0.0,0.0,0.0,0.0,0.0,0.0,0.0,0.0,0.0,0.0,0.0,0.0,0.0,0.0,0.0,0.0,0.0,0.0,0.0,0.0,0.0,0.0,0.0,0.0,0.0,0.0,0.0,0.0,0.0,0.0,0.0,0.0,0.0,0.0,0.0,0.0,0.0,0.0,0.0,0.0,0.0,0.0,0.0,0.0,0.0,0.0,0.0,0.0,0.0,0.0,0.0,0.0,0.0,0.0,0.0,0.0,0.0,0.0,0.0,0.0,0.0,0.0,0.0,0.0,0.0,0.0,0.0,0.0,0.0,0.0,0.0,0.0,0.0,0.0,0.0,0.0,0.0,0.0,0.0,0.0,0.0,0.0,0.0,0.0,0.0,0.0,0.0,0.0,0.0,0.0,0.0,0.0,0.0,0.0,0.0,0.0,4.8137,5.4431,5.9561,6.1721,6.1487,6.198,6.3913,6.1574,5.9771,5.9264,0.0,0.0,0.0,0.0,0.0,0.0,0.0,0.0,0.0,0.0,0.0,0.0,0.0,0.0,0.0,0.0,0.0,0.0,0.0,0.0,0.0,0.0,0.0,0.0,0.0,0.0,0.0,0.0,0.0,0.0,0.0,0.0,0.0,0.0,0.0,0.0,0.0,0.0,0.0,0.0,0.0,0.0,0.0,0.0,0.0,0.0,0.0,0.0,0.0,0.0,0.0,0.0,0.0,0.0,0.0,0.0,0.0,0.0,0.0,0.0,0.0,0.0,0.0,0.0,0.0,0.0,0.0,0.0,0.0,0.0,0.0,0.0,0.0,0.0,0.0,0.0,0.0,0.0,0.0,0.0,0.0,0.0,0.0,0.0,0.0,0.0,0.0,0.0,0.0,0.0,0.0,0.0,0.0,0.0,0.0,0.0,0.0,0.0,0.0,0.0,0.0,0.0,4.6582,5.3184,5.7679,5.7491,5.903,5.9704,5.888,5.8803,5.7421,5.4144,0.0,0.0,0.0,0.0,0.0,0.0,0.0,0.0,0.0,0.0,0.0,0.0,0.0,0.0,0.0,0.0,0.0,0.0,0.0,0.0,0.0,0.0,0.0,0.0,0.0,0.0,0.0,0.0,0.0,0.0,0.0,0.0,0.0,0.0,0.0,0.0,0.0,0.0,0.0,0.0,0.0,0.0,0.0,0.0,0.0,0.0,0.0,0.0,0.0,0.0,0.0,0.0,0.0,0.0,0.0,0.0,0.0,0.0,0.0,0.0,0.0,0.0,0.0,0.0,0.0,0.0,0.0,0.0,0.0,0.0,0.0,0.0,0.0,0.0,0.0,0.0,0.0,0.0,0.0,0.0,0.0,0.0,0.0,0.0,0.0,0.0,0.0,0.0,0.0,0.0,0.0,0.0,0.0,0.0,0.0,0.0,0.0,0.0,0.0,0.0,0.0,0.0,4.456,5.0849,5.4717,5.3401,5.5157,5.6086,5.5236,5.5829,5.4616,5.0766,0.0,0.0,0.0,0.0,0.0,0.0,0.0,0.0,0.0,0.0,0.0,0.0,0.0,0.0,0.0,0.0,0.0,0.0,0.0,0.0,0.0,0.0,0.0,0.0,0.0,0.0,0.0,0.0,0.0,0.0,0.0,0.0,0.0,0.0,0.0,0.0,0.0,0.0,0.0,0.0,0.0,0.0,0.0,0.0,0.0,0.0,0.0,0.0,0.0,0.0,0.0,0.0,0.0,0.0,0.0,0.0,0.0,0.0,0.0,0.0,0.0,0.0,0.0,0.0,0.0,0.0,0.0,0.0,0.0,0.0,0.0,0.0,0.0,0.0,0.0,0.0,0.0,0.0,0.0,0.0,0.0,0.0,0.0,0.0,0.0,0.0,0.0,0.0,0.0,0.0,0.0,0.0,0.0,0.0,0.0,0.0,0.0,0.0,0.0,0.0,0.0,0.0,4.1422,4.6589,5.0157,5.0022,4.9257,5.033,5.4275,5.2639,5.113,0.0,0.0,0.0,0.0,0.0,0.0,0.0,0.0,0.0,0.0,0.0,0.0,0.0,0.0,0.0,0.0,0.0,0.0,0.0,0.0,0.0,0.0,0.0,0.0,0.0,0.0,0.0,0.0,0.0,0.0,0.0,0.0,0.0,0.0,0.0,0.0,0.0,0.0,0.0,0.0,0.0,0.0,0.0,0.0,0.0,0.0,0.0,0.0,0.0,0.0,0.0,0.0,0.0,0.0,0.0,0.0,0.0,0.0,0.0,0.0,0.0,0.0,0.0,0.0,0.0,0.0,0.0,0.0,0.0,0.0,0.0,0.0,0.0,0.0,0.0,0.0,0.0,0.0,0.0,0.0,0.0,0.0,0.0,0.0,0.0,0.0,0.0,0.0,0.0,0.0,0.0,0.0,0.0,0.0,0.0,0.0,0.0,0.0,0.0,0.0,0.0,0.0,0.0,4.002,4.4321,4.7045,0.0,4.7749,4.8438,4.802,4.778,4.6299,4.3295,0.0,0.0,0.0,0.0,0.0,0.0,0.0,0.0,0.0,0.0,0.0,0.0,0.0,0.0,0.0,0.0,0.0,0.0,0.0,0.0,0.0,0.0,0.0,0.0,0.0,0.0,0.0,0.0,0.0,0.0,0.0,0.0,0.0,0.0,0.0,0.0,0.0,0.0,0.0,0.0,0.0,0.0,0.0,0.0,0.0,0.0,0.0,0.0,0.0,0.0,0.0,0.0,0.0,0.0,0.0,0.0,0.0,0.0,0.0,0.0,0.0,0.0,0.0,0.0,0.0,0.0,0.0,0.0,0.0,0.0,0.0,0.0,0.0,0.0,0.0,0.0,0.0,0.0,0.0,0.0,0.0,0.0,0.0,0.0,0.0,0.0,0.0,0.0,0.0,0.0,0.0,0.0,0.0,0.0,0.0,0.0,0.0,0.0,0.0,0.0,0.0,0.0,0.0,4.1867,4.4103,0.0,4.4713,4.5405,4.4606,4.4455,4.3047,3.9845,0.0,0.0,0.0,0.0,0.0,0.0,0.0,0.0,0.0,0.0,0.0,0.0,0.0,0.0,0.0,0.0,0.0,0.0,0.0,0.0,0.0,0.0,0.0,0.0,0.0,0.0,0.0,0.0,0.0,0.0,0.0,0.0,0.0,0.0,0.0,0.0,0.0,0.0,0.0,0.0,0.0,0.0,0.0,0.0,0.0,0.0,0.0,0.0,0.0,0.0,0.0,0.0,0.0,0.0,0.0,0.0,0.0,0.0,0.0,0.0,0.0,0.0,0.0,0.0,0.0,0.0,0.0,0.0,0.0,0.0,0.0,0.0,0.0,0.0,0.0,0.0,0.0,0.0,0.0,0.0,0.0,0.0,0.0,0.0,0.0,0.0,0.0,0.0,0.0,0.0,0.0,0.0,0.0,0.0,0.0,0.0,0.0,0.0,0.0,0.0,0.0,0.0,0.0,3.9187,4.1233,4.0211,4.0565,4.1643,4.3445,4.2378,4.0964,3.9386,3.7606,0.0,0.0,0.0,0.0,0.0,0.0,0.0,0.0,0.0,0.0,0.0,0.0,0.0,0.0,0.0,0.0,0.0,0.0,0.0,0.0,0.0,0.0,0.0,0.0,0.0,0.0,0.0,0.0,0.0,0.0,0.0,0.0,0.0,0.0,0.0,0.0,0.0,0.0,0.0,0.0,0.0,0.0,0.0,0.0,0.0,0.0,0.0,0.0,0.0,0.0,0.0,0.0,0.0,0.0,0.0,0.0,0.0,0.0,0.0,0.0,0.0,0.0,0.0,0.0,0.0,0.0,0.0,0.0,0.0,0.0,0.0,0.0,0.0,0.0,0.0,0.0,0.0,0.0,0.0,0.0,0.0,0.0,0.0,0.0,0.0,0.0,0.0,0.0,0.0,0.0,0.0,0.0,0.0,0.0,0.0,0.0,0.0,0.0,0.0,0.0,0.0,0.0,3.6348,3.8224,3.8831,3.9367,3.9864,4.0354,3.8898,3.7254,3.5603,3.427,0.0,0.0,0.0,0.0,0.0,0.0,0.0,0.0,0.0,0.0,0.0,0.0,0.0,0.0,0.0,0.0,0.0,0.0,0.0,0.0,0.0,0.0,0.0,0.0,0.0,0.0,0.0,0.0,0.0,0.0,0.0,0.0,0.0,0.0,0.0,0.0,0.0,0.0,0.0,0.0,0.0,0.0,0.0,0.0,0.0,0.0,0.0,0.0,0.0,0.0,0.0,0.0,0.0,0.0,0.0,0.0,0.0,0.0,0.0,0.0,0.0,0.0,0.0,0.0,0.0,0.0,0.0,0.0,0.0,0.0,0.0,0.0,0.0,0.0,0.0,0.0,0.0,0.0,0.0,0.0,0.0,0.0,0.0,0.0,0.0,0.0,0.0,0.0,0.0,0.0,0.0,0.0,0.0,0.0,0.0,0.0,0.0,0.0,0.0,0.0,0.0,0.0,3.3968,3.5969,3.7919,3.8822,3.9052,3.8591,3.7241,3.5657,3.3942,3.2487,0.0,0.0,0.0,0.0,0.0,0.0,0.0,0.0,0.0,0.0,0.0,0.0,0.0,0.0,0.0,0.0,0.0,0.0,0.0,0.0,0.0,0.0,0.0,0.0,0.0,0.0,0.0,0.0,0.0,0.0,0.0,0.0,0.0,0.0,0.0,0.0,0.0,0.0,0.0,0.0,0.0,0.0,0.0,0.0,0.0,0.0,0.0,0.0,0.0,0.0,0.0,0.0,0.0,0.0,0.0,0.0,0.0,0.0,0.0,0.0,0.0,0.0,0.0,0.0,0.0,0.0,0.0,0.0,0.0,0.0,0.0,0.0,0.0,0.0,0.0,0.0,0.0,0.0,0.0,0.0,0.0,0.0,0.0,0.0,0.0,0.0,0.0,0.0,0.0,0.0,0.0,0.0,0.0,0.0,0.0,0.0,0.0,0.0,0.0,0.0,0.0,0.0,0.0,3.4201,3.6881,3.815,3.8459,3.7765,3.6463,3.506,3.3524,0.0,0.0,0.0,0.0,0.0,0.0,0.0,0.0,0.0,0.0,0.0,0.0,0.0,0.0,0.0,0.0,0.0,0.0,0.0,0.0,0.0,0.0,0.0,0.0,0.0,0.0,0.0,0.0,0.0,0.0,0.0,0.0,0.0,0.0,0.0,0.0,0.0,0.0,0.0,0.0,0.0,0.0,0.0,0.0,0.0,0.0,0.0,0.0,0.0,0.0,0.0,0.0,0.0,0.0,0.0,0.0,0.0,0.0,0.0,0.0,0.0,0.0,0.0,0.0,0.0,0.0,0.0,0.0,0.0,0.0,0.0,0.0,0.0,0.0,0.0,0.0,0.0,0.0,0.0,0.0,0.0,0.0,0.0,0.0,0.0,0.0,0.0,0.0,0.0,0.0,0.0,0.0,0.0,0.0,0.0,0.0,0.0,0.0,0.0,0.0,0.0,0.0,0.0,0.0,3.2667,3.454,3.5788,3.6827,3.7635,3.5736,3.4176,3.3498,0.0,0.0,0.0,0.0,0.0,0.0,0.0,0.0,0.0,0.0,0.0,0.0,0.0,0.0]}]]]